[[{"header":{"parameterUnit":"m.s-1","parameterCategory":1,"la1":30.6,"la2":29.2853,"lo1":-89.7004,"lo2":-87.6739,"dy":0.0162,"dx":0.0183,"nx":112,"ny":82,"refTime":"2024-02-11T06:00:00:Z","depth":0,"parameterNumber":2,"parameterNumberName":"U-component_of_WINDS"},"data":[0.0,0.0,0.0,0.0,0.0,0.0,0.0,0.0,0.0,0.0,0.0,0.0,0.0,0.0,0.0,0.0,0.0,0.0,0.0,0.0,0.0,0.0,0.0,0.0,0.0,0.0,0.0,0.0,0.0,0.0,0.0,0.0,0.0,0.0,0.0,0.0,0.0,0.0,0.0,0.0,0.0,0.0,0.0,0.0,0.0,0.0,0.0,0.0,0.0,0.0,0.0,0.0,0.0,0.0,0.0,0.0,0.0,0.0,0.0,0.0,0.0,0.0,0.0,0.0,0.0,0.0,0.0,0.0,0.0,0.0,0.0,0.0,0.0,0.0,0.0,0.0,0.0,0.0,0.0,0.0,0.0,0.0,0.0,0.0,0.0,0.0,0.0,0.0,0.0,0.0,-3.3373,-3.3887,-3.4497,-3.5312,-3.6374,-3.5925,-3.5148,-3.4092,0.0,0.0,0.0,0.0,0.0,0.0,0.0,0.0,0.0,0.0,0.0,0.0,0.0,0.0,0.0,0.0,0.0,0.0,0.0,0.0,0.0,0.0,0.0,0.0,0.0,0.0,0.0,0.0,0.0,0.0,0.0,0.0,0.0,0.0,0.0,0.0,0.0,0.0,0.0,0.0,0.0,0.0,0.0,0.0,0.0,0.0,0.0,0.0,0.0,0.0,0.0,0.0,0.0,0.0,0.0,0.0,0.0,0.0,0.0,0.0,0.0,0.0,0.0,0.0,0.0,0.0,0.0,0.0,0.0,0.0,0.0,0.0,0.0,0.0,0.0,0.0,0.0,0.0,0.0,0.0,0.0,0.0,0.0,0.0,0.0,0.0,0.0,0.0,0.0,0.0,0.0,0.0,0.0,0.0,0.0,0.0,0.0,0.0,0.0,0.0,0.0,0.0,0.0,0.0,-3.2486,-3.3476,-3.3759,-3.4304,-3.5346,-3.495,-3.4499,-3.4197,0.0,0.0,0.0,0.0,0.0,0.0,0.0,0.0,0.0,0.0,0.0,0.0,0.0,0.0,0.0,0.0,0.0,0.0,0.0,0.0,0.0,0.0,0.0,0.0,0.0,0.0,0.0,0.0,0.0,0.0,0.0,0.0,0.0,0.0,0.0,0.0,0.0,0.0,0.0,0.0,0.0,0.0,0.0,0.0,0.0,0.0,0.0,0.0,0.0,0.0,0.0,0.0,0.0,0.0,0.0,0.0,0.0,0.0,0.0,0.0,0.0,0.0,0.0,0.0,0.0,0.0,0.0,0.0,0.0,0.0,0.0,0.0,0.0,0.0,0.0,0.0,0.0,0.0,0.0,0.0,0.0,0.0,0.0,0.0,0.0,0.0,0.0,0.0,0.0,0.0,0.0,0.0,0.0,0.0,0.0,0.0,0.0,0.0,0.0,0.0,0.0,0.0,0.0,-3.2766,-3.2703,-3.3118,-3.3332,-3.3634,-3.4164,-3.3714,-3.3367,-3.3176,-3.2717,0.0,0.0,0.0,0.0,0.0,0.0,0.0,0.0,0.0,0.0,0.0,0.0,0.0,0.0,0.0,0.0,0.0,0.0,0.0,0.0,0.0,0.0,0.0,0.0,0.0,0.0,0.0,0.0,0.0,0.0,0.0,0.0,0.0,0.0,0.0,0.0,0.0,0.0,0.0,0.0,0.0,0.0,0.0,0.0,0.0,0.0,0.0,0.0,0.0,0.0,0.0,0.0,0.0,0.0,0.0,0.0,0.0,0.0,0.0,0.0,0.0,0.0,0.0,0.0,0.0,0.0,0.0,0.0,0.0,0.0,0.0,0.0,0.0,0.0,0.0,0.0,0.0,0.0,0.0,0.0,0.0,0.0,0.0,0.0,0.0,0.0,0.0,0.0,0.0,0.0,0.0,0.0,0.0,0.0,0.0,0.0,0.0,0.0,0.0,0.0,0.0,0.0,-3.2686,-3.2769,-3.2884,-3.2863,-3.2995,-3.335,-3.2737,-3.2239,-3.2024,-3.1638,0.0,0.0,0.0,0.0,0.0,0.0,0.0,0.0,0.0,0.0,0.0,0.0,0.0,0.0,0.0,0.0,0.0,0.0,0.0,0.0,0.0,0.0,0.0,0.0,0.0,0.0,0.0,0.0,0.0,0.0,0.0,0.0,0.0,0.0,0.0,0.0,0.0,0.0,0.0,0.0,0.0,0.0,0.0,0.0,0.0,0.0,0.0,0.0,0.0,0.0,0.0,0.0,0.0,0.0,0.0,0.0,0.0,0.0,0.0,0.0,0.0,0.0,0.0,0.0,0.0,0.0,0.0,0.0,0.0,0.0,0.0,0.0,0.0,0.0,0.0,0.0,0.0,0.0,0.0,0.0,0.0,0.0,0.0,0.0,0.0,0.0,0.0,0.0,0.0,0.0,0.0,0.0,0.0,0.0,0.0,0.0,0.0,0.0,0.0,0.0,0.0,0.0,-3.2,-3.1918,-3.272,-3.2264,-3.2327,-3.3315,-3.2227,-3.1413,-3.1208,-3.0824,0.0,0.0,0.0,0.0,0.0,0.0,0.0,0.0,0.0,0.0,0.0,0.0,0.0,0.0,0.0,0.0,0.0,0.0,0.0,0.0,0.0,0.0,0.0,0.0,0.0,0.0,0.0,0.0,0.0,0.0,0.0,0.0,0.0,0.0,0.0,0.0,0.0,0.0,0.0,0.0,0.0,0.0,0.0,0.0,0.0,0.0,0.0,0.0,0.0,0.0,0.0,0.0,0.0,0.0,0.0,0.0,0.0,0.0,0.0,0.0,0.0,0.0,0.0,0.0,0.0,0.0,0.0,0.0,0.0,0.0,0.0,0.0,0.0,0.0,0.0,0.0,0.0,0.0,0.0,0.0,0.0,0.0,0.0,0.0,0.0,0.0,0.0,0.0,0.0,0.0,0.0,0.0,0.0,0.0,0.0,0.0,0.0,0.0,0.0,0.0,0.0,0.0,-3.1875,-3.1526,0.0,-3.1516,-3.1602,-3.2032,-3.1826,-3.1449,-3.0944,0.0,0.0,0.0,0.0,0.0,0.0,0.0,0.0,0.0,0.0,0.0,0.0,0.0,0.0,0.0,0.0,0.0,0.0,0.0,0.0,0.0,0.0,0.0,0.0,0.0,0.0,0.0,0.0,0.0,0.0,0.0,0.0,0.0,0.0,0.0,0.0,0.0,0.0,0.0,0.0,0.0,0.0,0.0,0.0,0.0,0.0,0.0,0.0,0.0,0.0,0.0,0.0,0.0,0.0,0.0,0.0,0.0,0.0,0.0,0.0,0.0,0.0,0.0,0.0,0.0,0.0,0.0,0.0,0.0,0.0,0.0,0.0,0.0,0.0,0.0,0.0,0.0,0.0,0.0,0.0,0.0,0.0,0.0,0.0,0.0,0.0,0.0,0.0,0.0,0.0,0.0,0.0,0.0,0.0,0.0,0.0,0.0,0.0,0.0,0.0,0.0,0.0,-3.2126,-3.1601,-3.1151,0.0,-3.0932,-3.1018,-3.1196,-3.1317,-3.1132,-3.0643,0.0,0.0,0.0,0.0,0.0,0.0,0.0,0.0,0.0,0.0,0.0,0.0,0.0,0.0,0.0,0.0,0.0,0.0,0.0,0.0,0.0,0.0,0.0,0.0,0.0,0.0,0.0,0.0,0.0,0.0,0.0,0.0,0.0,0.0,0.0,0.0,0.0,0.0,0.0,0.0,0.0,0.0,0.0,0.0,0.0,0.0,0.0,0.0,0.0,0.0,0.0,0.0,0.0,0.0,0.0,0.0,0.0,0.0,0.0,0.0,0.0,0.0,0.0,0.0,0.0,0.0,0.0,0.0,0.0,0.0,0.0,0.0,0.0,0.0,0.0,0.0,0.0,0.0,0.0,0.0,0.0,0.0,0.0,0.0,0.0,0.0,0.0,0.0,0.0,0.0,0.0,0.0,0.0,0.0,0.0,0.0,0.0,0.0,0.0,0.0,0.0,0.0,-3.167,-3.1162,-3.0675,-3.0675,-3.0551,-3.0613,-3.0938,-3.0617,-3.0352,0.0,0.0,0.0,0.0,0.0,0.0,0.0,0.0,0.0,0.0,0.0,0.0,0.0,0.0,0.0,0.0,0.0,0.0,0.0,0.0,0.0,0.0,0.0,0.0,0.0,0.0,0.0,0.0,0.0,0.0,0.0,0.0,0.0,0.0,0.0,0.0,0.0,0.0,0.0,0.0,0.0,0.0,0.0,0.0,0.0,0.0,0.0,0.0,0.0,0.0,0.0,0.0,0.0,0.0,0.0,0.0,0.0,0.0,0.0,0.0,0.0,0.0,0.0,0.0,0.0,0.0,0.0,0.0,0.0,0.0,0.0,0.0,0.0,0.0,0.0,0.0,0.0,0.0,0.0,0.0,0.0,0.0,0.0,0.0,0.0,0.0,0.0,0.0,0.0,0.0,0.0,0.0,0.0,0.0,0.0,0.0,0.0,0.0,0.0,0.0,0.0,0.0,0.0,-3.168,-3.0931,-3.0309,-3.0075,-2.9957,-2.9968,-3.0267,-3.0462,-3.0523,-3.0439,0.0,0.0,0.0,0.0,0.0,0.0,0.0,0.0,0.0,0.0,0.0,0.0,0.0,0.0,0.0,0.0,0.0,0.0,0.0,0.0,0.0,0.0,0.0,0.0,0.0,0.0,0.0,0.0,0.0,0.0,0.0,0.0,0.0,0.0,0.0,0.0,0.0,0.0,0.0,0.0,0.0,0.0,0.0,0.0,0.0,0.0,0.0,0.0,0.0,0.0,0.0,0.0,0.0,0.0,0.0,0.0,0.0,0.0,0.0,0.0,0.0,0.0,0.0,0.0,0.0,0.0,0.0,0.0,0.0,0.0,0.0,0.0,0.0,0.0,0.0,0.0,0.0,0.0,0.0,0.0,0.0,0.0,0.0,0.0,0.0,0.0,0.0,0.0,0.0,0.0,0.0,0.0,0.0,0.0,0.0,0.0,0.0,0.0,0.0,0.0,0.0,0.0,-3.0972,-3.0401,-2.9946,-2.9782,-2.9515,-2.9483,-2.9881,-3.0204,-3.0309,-3.0119,0.0,0.0,0.0,0.0,0.0,0.0,0.0,0.0,0.0,0.0,0.0,0.0,0.0,0.0,0.0,0.0,0.0,0.0,0.0,0.0,0.0,0.0,0.0,0.0,0.0,0.0,0.0,0.0,0.0,0.0,0.0,0.0,0.0,0.0,0.0,0.0,0.0,0.0,0.0,0.0,0.0,0.0,0.0,0.0,0.0,0.0,0.0,0.0,0.0,0.0,0.0,0.0,0.0,0.0,0.0,0.0,0.0,0.0,0.0,0.0,0.0,0.0,0.0,0.0,0.0,0.0,0.0,0.0,0.0,0.0,0.0,0.0,0.0,0.0,0.0,0.0,0.0,0.0,0.0,0.0,0.0,0.0,0.0,0.0,0.0,0.0,0.0,0.0,0.0,0.0,0.0,0.0,0.0,0.0,0.0,0.0,0.0,0.0,0.0,0.0,0.0,0.0,-2.9859,-2.966,-2.9582,-2.9614,-2.9152,-2.9074,-2.9661,-2.9837,-2.9824,-2.953,0.0,0.0,0.0,0.0,0.0,0.0,0.0,0.0,0.0,0.0,0.0,0.0,0.0,0.0,0.0,0.0,0.0,0.0,0.0,0.0,0.0,0.0,0.0,0.0,0.0,0.0,0.0,0.0,0.0,0.0,0.0,0.0,0.0,0.0,0.0,0.0,0.0,0.0,0.0,0.0,0.0,0.0,0.0,0.0,0.0,0.0,0.0,0.0,0.0,0.0,0.0,0.0,0.0,0.0,0.0,0.0,0.0,0.0,0.0,0.0,-3.4042,0.0,0.0,0.0,0.0,0.0,0.0,0.0,0.0,0.0,0.0,0.0,0.0,0.0,0.0,0.0,0.0,0.0,0.0,0.0,0.0,0.0,0.0,0.0,0.0,0.0,0.0,0.0,0.0,0.0,0.0,0.0,0.0,0.0,0.0,0.0,0.0,0.0,0.0,0.0,0.0,0.0,-2.9562,-2.9286,-2.9166,-2.9082,-2.874,-2.8668,-2.9051,-2.9312,-2.9496,-2.9589,-2.9776,0.0,0.0,0.0,0.0,0.0,0.0,0.0,0.0,0.0,0.0,0.0,0.0,0.0,0.0,0.0,0.0,0.0,0.0,0.0,0.0,0.0,0.0,0.0,0.0,0.0,0.0,0.0,0.0,0.0,0.0,0.0,0.0,0.0,0.0,0.0,0.0,0.0,0.0,0.0,0.0,0.0,0.0,0.0,0.0,0.0,0.0,0.0,0.0,0.0,0.0,0.0,0.0,0.0,0.0,0.0,0.0,0.0,0.0,0.0,0.0,-3.4023,0.0,0.0,0.0,0.0,0.0,0.0,0.0,0.0,0.0,0.0,0.0,0.0,0.0,0.0,0.0,0.0,0.0,0.0,0.0,0.0,0.0,0.0,0.0,0.0,0.0,0.0,0.0,0.0,0.0,0.0,0.0,0.0,0.0,0.0,0.0,0.0,0.0,0.0,0.0,0.0,-2.8567,-2.8678,-2.8897,-2.8826,-2.8453,-2.8356,-2.8779,-2.8748,-2.8842,-2.9143,-2.9426,0.0,0.0,0.0,0.0,0.0,0.0,0.0,0.0,0.0,0.0,0.0,0.0,0.0,0.0,0.0,0.0,0.0,0.0,0.0,0.0,0.0,0.0,0.0,0.0,0.0,0.0,0.0,0.0,0.0,0.0,0.0,0.0,0.0,0.0,0.0,0.0,0.0,0.0,0.0,0.0,0.0,0.0,0.0,0.0,0.0,0.0,0.0,0.0,0.0,0.0,0.0,0.0,0.0,-3.1438,-3.1357,-3.1983,-3.2112,-3.2691,-3.357,-3.3737,-3.3953,-3.4101,-3.3578,0.0,0.0,0.0,0.0,0.0,0.0,0.0,0.0,0.0,0.0,0.0,0.0,0.0,0.0,0.0,0.0,0.0,0.0,0.0,0.0,0.0,0.0,0.0,0.0,-3.1692,-3.1556,-3.1633,0.0,0.0,0.0,0.0,0.0,0.0,0.0,0.0,0.0,0.0,0.0,-2.775,-2.8297,-2.8793,-2.8692,-2.8284,-2.8162,-2.859,-2.8326,-2.8301,-2.8661,-2.912,-2.9383,0.0,0.0,0.0,0.0,0.0,0.0,0.0,0.0,0.0,0.0,0.0,0.0,0.0,0.0,0.0,0.0,0.0,0.0,0.0,0.0,0.0,0.0,0.0,0.0,0.0,0.0,0.0,0.0,0.0,0.0,0.0,0.0,-3.3162,-3.1913,0.0,0.0,0.0,0.0,0.0,0.0,0.0,0.0,0.0,0.0,0.0,0.0,0.0,-3.1489,-3.0333,-3.1312,-3.1205,-3.0074,-3.1903,-3.2608,-3.2354,-3.2991,-3.3623,-3.4162,-3.399,0.0,-3.3603,-3.3818,0.0,0.0,0.0,0.0,0.0,0.0,0.0,0.0,0.0,0.0,0.0,0.0,0.0,0.0,0.0,0.0,0.0,0.0,0.0,0.0,0.0,0.0,-3.0966,-3.0627,-3.0531,-3.052,0.0,-3.1533,-3.2265,-3.2199,-3.1904,0.0,0.0,0.0,0.0,0.0,0.0,0.0,-2.8305,-2.8818,-2.9157,-2.8659,-2.8235,-2.8118,-2.8436,-2.8284,-2.8308,-2.8597,-2.9036,-2.9473,-2.9913,-3.0526,0.0,0.0,0.0,0.0,0.0,0.0,0.0,0.0,0.0,0.0,0.0,0.0,0.0,0.0,0.0,0.0,0.0,0.0,0.0,0.0,0.0,0.0,0.0,0.0,0.0,0.0,0.0,0.0,0.0,-3.372,-3.2538,-3.2034,-3.2353,-3.277,0.0,0.0,0.0,0.0,0.0,0.0,0.0,0.0,0.0,-3.2557,-3.2222,-3.1674,-3.101,-3.1225,-3.1251,-3.1063,-3.18,-3.232,-3.2709,-3.3482,-3.3926,-3.4139,-3.4419,-3.4392,-3.4059,-3.3428,-3.2722,-3.1922,0.0,0.0,0.0,0.0,-3.1626,-3.2087,-3.2085,-3.2047,-3.1983,-3.201,0.0,0.0,0.0,0.0,0.0,0.0,0.0,0.0,0.0,0.0,-3.1259,-3.057,-3.07,-3.0918,-3.0807,-3.1374,-3.1683,0.0,-3.08,-3.0917,-3.1287,0.0,0.0,0.0,0.0,-2.9823,-2.8537,-2.8903,-2.9254,-2.907,-2.8356,-2.7989,-2.8259,-2.8039,-2.8014,-2.8356,-2.8645,-2.9045,-2.9582,-3.0075,-3.0369,0.0,0.0,0.0,0.0,0.0,0.0,0.0,0.0,0.0,0.0,0.0,0.0,0.0,0.0,0.0,0.0,0.0,0.0,0.0,0.0,0.0,0.0,0.0,0.0,0.0,0.0,0.0,0.0,-3.2837,-3.1924,-3.1974,-3.1959,-3.207,0.0,0.0,0.0,0.0,0.0,0.0,-3.2538,-3.2451,-3.2351,-3.2272,-3.2079,-3.1847,-3.1611,-3.1392,-3.1475,-3.1863,-3.1661,-3.2095,-3.2998,-3.355,-3.3889,-3.4045,-3.4516,-3.456,-3.4203,-3.3195,-3.2613,-3.2226,-3.1114,-3.0965,-3.1339,-3.0775,-3.0882,-3.1381,-3.1706,-3.1796,-3.1778,-3.1774,-3.1783,-3.18,-3.1797,0.0,0.0,0.0,0.0,-3.1617,-3.1057,-3.1287,-3.1446,-3.0739,-3.095,-3.119,-3.0925,-3.1043,-3.0915,0.0,-2.9851,-3.0016,-3.0409,0.0,0.0,0.0,0.0,-2.9807,-2.9064,-2.9235,-2.9378,-2.9402,-2.8434,-2.789,-2.8137,-2.779,-2.7715,-2.8113,-2.8332,-2.8692,-2.9266,-2.9738,-3.0075,-3.0304,0.0,0.0,0.0,0.0,0.0,0.0,0.0,0.0,0.0,0.0,0.0,0.0,0.0,0.0,0.0,0.0,0.0,0.0,0.0,0.0,0.0,0.0,0.0,0.0,0.0,0.0,0.0,0.0,0.0,-3.1706,-3.138,0.0,0.0,0.0,0.0,-3.1267,-3.1569,-3.1466,-3.0668,-3.1123,-3.1365,-3.1365,-3.1336,-3.1096,-3.058,-3.1492,-3.1576,-3.086,-3.1744,-3.2525,-3.3167,-3.3054,-3.339,-3.4088,-3.3999,-3.3759,-3.3455,-3.3499,-3.3107,-3.2321,-3.1501,-3.1202,-3.1151,-3.0819,-3.1102,-3.1647,-3.1563,-3.1622,-3.1679,-3.1564,-3.1255,-3.1055,-3.155,-3.1202,0.0,0.0,-3.1417,-3.108,-3.124,-3.1073,-3.0836,-3.0777,-3.0688,-3.0628,-3.0628,-3.0477,-3.0306,0.0,-2.9676,-2.9502,-3.0029,0.0,-2.919,-3.0447,-3.0764,-3.0708,-3.036,-3.0116,-2.9824,-2.9438,-2.8434,-2.784,-2.7995,-2.7615,-2.7564,-2.7995,-2.8326,-2.8756,-2.9266,-2.9649,-3.0097,-3.0649,-3.0758,0.0,0.0,0.0,0.0,0.0,0.0,0.0,0.0,0.0,0.0,0.0,0.0,0.0,0.0,0.0,0.0,0.0,0.0,0.0,0.0,0.0,0.0,0.0,0.0,0.0,0.0,0.0,0.0,-3.1913,-3.1174,0.0,-3.1448,-3.1566,-3.1447,-3.1123,-3.1246,-3.1246,-3.1008,-3.1188,-3.1336,-3.1453,-3.1453,-3.1333,-3.1152,-3.1926,-3.2042,-3.1466,-3.23,-3.2784,-3.288,-3.3363,-3.3759,-3.4174,-3.4592,-3.4612,-3.433,-3.3636,-3.2915,-3.2135,-3.0886,-3.0708,-3.1036,-3.016,-3.0396,-3.1073,-3.0807,-3.0896,-3.1102,-3.1073,-3.1042,-3.1067,-3.1247,-3.098,-3.0711,-3.1188,-3.0866,-3.0397,-3.0338,-3.0337,-3.024,-2.9808,-3.0008,-3.0233,-2.9991,-3.0052,-3.0002,-2.9432,-2.9638,-2.9987,-3.0195,-2.9818,-2.9756,-3.0593,-3.0591,-3.0543,-3.0661,-3.0549,-3.0485,-3.0536,-2.9372,-2.8682,-2.8884,-2.8282,-2.7954,-2.7992,-2.8389,-2.8746,-2.9016,-2.949,-2.9901,-3.0224,-3.0359,-3.0415,0.0,0.0,0.0,0.0,0.0,0.0,0.0,0.0,0.0,0.0,0.0,0.0,0.0,0.0,0.0,0.0,0.0,0.0,0.0,0.0,0.0,0.0,0.0,0.0,0.0,0.0,-3.1111,-3.1756,-3.1155,-3.0896,-3.1309,-3.1278,-3.1218,-3.1248,-3.1188,-3.1218,-3.1368,-3.1427,-3.1634,-3.199,-3.1782,-3.1693,-3.1752,-3.2497,-3.2557,-3.1986,-3.2823,-3.3216,-3.3216,-3.3697,-3.411,-3.4378,-3.4758,-3.4751,-3.4358,-3.3431,-3.2698,-3.2019,-3.0716,-3.0656,-3.1131,-3.0249,-3.0396,-3.0984,-3.0538,-3.0538,-3.0687,-3.0597,-3.0687,-3.0836,-3.0836,-3.0628,-3.0506,-3.0776,-3.0417,-2.9966,-2.9838,-2.9919,-2.9905,-2.9419,-2.9736,-2.9993,-2.952,-2.9756,-2.9881,-2.9105,-2.9311,-2.9695,-3.0101,-2.9781,-2.9751,-3.0761,-3.071,-3.0682,-3.0992,-3.0839,-3.08,-3.1104,-3.0019,-2.9351,-2.9557,-2.8706,-2.8141,-2.8146,-2.8311,-2.8537,-2.8799,-2.9232,-2.9633,-3.001,-3.0104,-3.0073,-2.9884,0.0,0.0,0.0,0.0,0.0,0.0,0.0,0.0,0.0,0.0,0.0,0.0,0.0,0.0,0.0,0.0,0.0,0.0,0.0,0.0,0.0,0.0,0.0,-3.0935,-3.0852,-3.09,-3.1247,-3.1241,-3.1339,-3.1466,-3.1217,-3.1214,-3.1495,-3.1399,-3.1399,-3.1555,-3.174,-3.2187,-3.2989,-3.2339,-3.2106,-3.2287,-3.3094,-3.3094,-3.2317,-3.3276,-3.3905,-3.4188,-3.4058,-3.428,-3.4698,-3.4467,-3.4022,-3.3445,-3.2905,-3.242,-3.1898,-3.1202,-3.1136,-3.1448,-3.1071,-3.1168,-3.1394,-3.0806,-3.0597,-3.0507,-3.0203,-3.0203,-3.0296,-3.0296,-3.0205,-3.0142,-3.0266,-3.0054,-2.9839,-2.9839,-2.9839,-2.9839,-2.9808,-2.996,-2.994,-2.9281,-2.9624,-2.9911,-2.9283,-2.8654,-2.8598,-2.9725,-2.9145,-2.9173,-3.1012,-3.1161,0.0,-3.1451,-3.1054,-3.0774,-3.0998,-3.031,-2.989,-2.9997,-2.8855,-2.8235,-2.8415,-2.8139,-2.8193,-2.8715,-2.897,-2.9422,-3.0078,-3.0082,-2.9806,-2.93,0.0,0.0,0.0,0.0,0.0,0.0,0.0,0.0,0.0,0.0,0.0,0.0,0.0,0.0,0.0,0.0,0.0,0.0,0.0,0.0,0.0,-3.1656,-3.113,-3.0758,-3.0345,-3.0249,-3.0748,-3.059,-3.0553,-3.0829,-3.0646,-3.0848,-3.1651,-3.168,-3.2006,-3.2755,-3.2281,-3.2372,-3.3331,-3.2644,-3.2287,-3.2437,-3.3634,-3.3634,-3.2437,-3.3787,-3.4325,-3.4188,-3.4314,-3.4507,-3.4668,-3.4299,-3.3878,-3.3449,-3.2535,-3.1978,-3.1562,-3.1043,-3.0984,-3.122,-3.1188,-3.1119,-3.0986,-3.0799,-3.0423,-2.9993,-2.9929,-3.0083,-3.0296,-3.0174,-3.0325,-3.0447,-3.0507,-3.0509,-3.0539,-3.0538,-3.0538,-3.0448,-3.0206,-3.0205,-3.0178,-3.0005,-3.012,-3.0238,-3.0306,-2.9842,-2.9581,-3.0101,-2.9813,-2.9842,-3.0778,-3.0689,0.0,-3.1276,-3.1245,-3.1183,-3.1354,-3.0756,-3.0421,-3.0694,-2.9581,-2.8873,-2.8858,-2.921,-2.9428,-2.9415,-3.038,-3.066,-3.0186,-2.9687,-2.9315,0.0,0.0,0.0,0.0,0.0,0.0,0.0,0.0,0.0,0.0,0.0,0.0,0.0,0.0,0.0,0.0,0.0,0.0,0.0,0.0,0.0,0.0,-3.1748,-3.1324,-3.0738,-3.0719,-3.0807,-3.1096,-3.1344,-3.1599,-3.1787,-3.1758,-3.1995,-3.2562,-3.2685,-3.2869,-3.3175,-3.2995,-3.3238,-3.3903,-3.3328,-3.3119,-3.3335,-3.4195,-3.4131,-3.312,-3.4351,-3.4731,-3.4407,-3.4537,-3.4581,-3.4568,-3.4387,-3.3853,-3.3135,-3.2629,-3.1921,0.0,0.0,0.0,0.0,0.0,-3.1869,-3.168,-3.1457,-3.0965,-3.042,-3.0236,-3.0252,-3.0296,-3.0205,-3.0326,-3.0507,-3.0628,-3.0598,-3.0509,-3.0568,-3.0657,-3.06,-3.01,-3.0102,-3.0045,-2.9522,-2.9813,-3.0192,-3.0075,-3.0279,0.0,-3.051,-3.0163,-3.0133,-3.0896,-3.0719,-3.0689,-3.116,-3.122,-3.1249,-3.1336,-3.1095,-3.0878,-3.0802,-3.0125,0.0,0.0,0.0,-2.9856,-2.9661,-3.0267,0.0,0.0,0.0,-2.8891,-2.8671,-2.8788,0.0,0.0,-2.9338,-2.9424,0.0,0.0,0.0,0.0,0.0,0.0,0.0,0.0,0.0,0.0,0.0,0.0,0.0,0.0,0.0,0.0,-3.1948,-3.1359,-3.1043,-3.1749,-3.2162,-3.1832,-3.2759,-3.3452,-3.3452,-3.3553,-3.368,-3.3739,-3.393,-3.3819,-3.3317,0.0,0.0,0.0,0.0,-3.4186,-3.4503,-3.4807,-3.4643,-3.4026,-3.4836,-3.5063,-3.4765,-3.4765,-3.4664,-3.4501,-3.461,-3.3908,-3.2794,-3.2893,-3.2157,-3.0952,-3.083,-3.1366,-3.222,-3.2717,-3.2952,-3.2949,-3.241,0.0,0.0,-3.0895,-3.0566,-3.0296,-3.0296,-3.0357,-3.0477,-3.0747,-3.0568,-3.0297,-3.0417,-3.0598,-3.0571,-2.9959,-3.0045,-2.9894,-2.8714,-2.9392,-3.0069,-2.9507,-3.0419,-3.1219,-3.0955,-3.0426,-3.0308,-3.1101,-3.0984,-3.0895,-3.1043,-3.1073,-3.1073,-3.1102,0.0,0.0,-3.0552,-3.0525,-3.0299,-2.9794,-2.9911,-2.9974,-2.9881,-2.9512,-2.903,-2.8412,-2.8603,-2.8598,-2.8413,-2.8721,-2.8873,-2.8865,-2.9081,-2.9295,0.0,0.0,0.0,0.0,0.0,0.0,0.0,0.0,0.0,0.0,0.0,0.0,0.0,0.0,0.0,-3.2648,-3.264,-3.2547,-3.2229,-3.3212,-3.3446,-3.198,-3.257,-3.3103,-3.3103,-3.3105,-3.3404,-3.4063,-3.4125,-3.4428,-3.5004,-3.449,-3.4552,-3.528,-3.455,-3.4282,-3.4503,-3.5096,-3.4969,-3.4186,0.0,0.0,-3.5096,-3.5096,-3.5096,-3.5004,-3.4505,-3.3894,-3.3242,-3.291,-3.2433,-3.1887,-3.1502,-3.2088,-3.319,-3.298,-3.3038,-3.3071,-3.2539,-3.1702,-3.0864,-3.0612,-3.0441,-3.0296,-3.0172,-3.0598,0.0,-3.0984,-3.119,-3.1453,-3.1307,-3.1424,-3.1481,-3.1071,-3.1012,-3.1011,-3.0744,-3.0892,-3.107,-3.1037,-3.1274,-3.1453,-3.1395,-3.1188,-3.0954,-3.0777,-3.0925,-3.0984,-3.0866,-3.0866,-3.0925,-3.1073,-3.1132,-3.1011,-3.0524,-3.0596,-3.0506,-3.0124,-3.0427,-3.0917,-3.1495,-3.0545,-2.9885,-2.9665,-2.9129,-2.8769,-2.8568,-2.863,-2.8668,-2.8668,-2.9002,-2.9252,0.0,0.0,0.0,0.0,0.0,0.0,0.0,0.0,0.0,0.0,0.0,-3.3617,-3.3559,0.0,-3.3239,-3.2849,-3.3318,-3.3573,-3.3066,-3.3998,-3.4326,-3.3111,-3.3644,-3.4058,-3.3932,-3.4058,-3.4335,-3.4822,-3.4852,-3.4884,-3.4981,-3.4884,-3.4884,-3.4981,-3.482,-3.4822,-3.511,-3.5277,-3.5083,-3.4564,-3.4984,-3.5129,-3.4964,-3.4865,-3.4865,-3.4935,-3.461,-3.4094,-3.3514,-3.2841,-3.2622,-3.2688,-3.2468,-3.2825,-3.3438,-3.3489,-3.3633,-3.3734,-3.3397,-3.2701,-3.194,-3.1529,-3.1177,-3.0821,-3.0472,-3.0746,-3.119,-3.1161,-3.1336,-3.1539,-3.1511,-3.1568,-3.1507,-3.1005,-3.0887,-3.0827,-3.0499,-3.0678,-3.0915,-3.1002,-3.1271,-3.1482,-3.1424,-3.1336,-3.1219,-3.0984,-3.0955,-3.0925,-3.0806,-3.0746,-3.0776,-3.0925,-3.0719,-3.054,-3.0412,-3.0306,-3.0522,-3.1182,-3.0495,-3.0478,-3.1367,-3.011,-2.9414,-2.939,-2.8927,-2.8597,-2.8477,-2.8477,-2.8549,-2.8692,-2.8928,-2.9106,0.0,0.0,0.0,0.0,0.0,0.0,0.0,0.0,-3.3076,-3.3673,-3.333,-3.2952,-3.2987,-3.3352,-3.3587,-3.3326,-3.4112,-3.448,-3.3789,-3.4516,-3.4941,-3.4442,-3.4912,-3.5231,-3.5067,-3.5166,-3.5326,-3.5519,-3.5519,-3.5282,-3.4745,-3.5254,-3.5314,-3.4808,-3.5126,-3.5427,-3.5688,-3.5394,-3.5133,-3.4902,-3.4935,-3.4868,-3.4698,-3.453,-3.4563,-3.4731,-3.4664,-3.4343,-3.3784,-3.3093,-3.3017,-3.3346,-3.3412,-3.3483,-3.3574,-3.396,-3.423,-3.4332,-3.4094,-3.3605,-3.2951,-3.24,-3.1835,-3.1266,-3.0802,-3.0866,-3.1102,-3.1249,-3.1278,-3.1307,-3.1395,-3.1453,-3.1332,-3.0765,-3.0645,-3.0498,-3.0073,-3.0315,-3.0673,-3.0702,-3.1122,-3.1482,-3.1336,-3.1307,-3.1278,-3.1248,-3.1014,-3.0806,-3.0806,-3.0687,-3.0687,-3.0836,-3.0543,-3.0392,-3.0534,-3.0096,-3.0458,-3.2046,-3.0676,-3.0083,-3.0695,-2.9515,-2.8824,-2.8794,-2.8556,-2.8436,-2.8411,-2.8436,-2.8556,-2.8771,-2.9006,-2.9139,-3.7296,-3.6575,-3.5614,-3.6614,-3.5283,-3.3801,0.0,0.0,-3.2881,-3.3077,-3.2928,-3.2845,-3.3277,-3.3889,-3.4321,-3.4323,-3.5025,-3.5301,-3.4563,-3.5118,-3.5491,-3.5034,-3.5391,-3.5623,-3.5623,-3.5492,-3.5457,-3.5519,-3.5519,-3.5524,-3.5565,-3.5657,-3.5721,-3.582,-3.5689,-3.5655,-3.5688,-3.5554,-3.5294,-3.4902,-3.5067,-3.4997,-3.4698,-3.4664,-3.4735,-3.4868,-3.4568,-3.4404,-3.4312,-3.4023,-3.3882,-3.3865,-3.4143,-3.4177,-3.4041,-3.4065,-3.423,-3.4361,-3.3848,-3.3178,-3.2503,-3.2065,-3.1454,-3.0864,-3.0776,-3.0925,-3.1102,-3.1102,-3.122,-3.1278,-3.1161,-3.1249,-3.1307,-3.1217,-3.113,-3.1101,-3.1244,-3.1245,-3.1275,-3.1362,-3.1451,-3.1511,-3.1482,-3.1365,-3.1248,-3.1132,-3.0955,-3.0806,-3.0806,-3.0806,-3.0866,-3.1043,-3.1131,-3.1217,-3.1362,-3.0421,-3.038,-3.1766,-3.1566,-3.1098,-3.0469,-2.995,-2.9387,-2.8794,-2.8645,-2.8501,-2.8411,-2.8501,-2.8597,-2.8652,-2.9484,-2.9738,-3.9111,-3.8014,-3.6719,-3.76,-3.6026,-3.4224,-3.3935,-3.3408,-3.3052,-3.3349,-3.2821,-3.272,-3.4032,-3.4374,-3.4656,0.0,-3.6004,-3.6252,-3.5389,-3.5574,-3.5576,-3.4936,-3.537,-3.5643,-3.5591,-3.5589,-3.5621,-3.5621,-3.5621,-3.5653,-3.5688,-3.5816,-3.5878,-3.5816,-3.5878,-3.5816,-3.5688,-3.575,-3.5524,-3.5067,-3.5162,-3.5129,-3.4997,-3.4798,-3.4731,-3.4798,-3.4631,-3.453,-3.4366,-3.4298,-3.4162,-3.4054,-3.4428,-3.4462,-3.4264,-3.4264,-3.4332,-3.4399,-3.4366,-3.3852,-3.3138,-3.2823,-3.2123,-3.1304,-3.0894,-3.1129,-3.1424,-3.1042,-3.1308,-3.1604,-3.122,-3.1132,-3.119,-3.119,-3.1132,-3.1132,-3.1336,-3.1336,-3.1336,-3.1482,-3.1511,-3.1511,-3.1511,-3.1453,-3.1395,-3.1249,-3.0984,-3.0806,-3.0806,-3.0717,-3.0514,-2.9983,-3.0832,-3.0975,-2.9896,-3.0068,-3.0358,-3.0734,-3.0704,-3.0457,-2.996,-2.9776,-2.9408,-2.8794,-2.8645,-2.8573,-2.8532,-2.8952,-2.9211,-2.9308,-2.9862,-3.007,-4.0087,-3.8866,-3.7668,-3.8239,-3.6591,-3.4691,-3.4226,-3.364,-3.3307,-3.364,-3.3154,-3.3165,-3.4827,-3.514,-3.5389,-3.6155,-3.6835,-3.6958,-3.6002,-3.5939,-3.5781,-3.5281,-3.5627,-3.5859,-3.5753,-3.5782,-3.572,-3.5653,-3.5653,-3.5688,-3.5847,-3.5941,-3.5973,-3.5911,-3.5973,-3.591,-3.5688,-3.5814,-3.5621,-3.5195,-3.5297,-3.5264,-3.51,-3.4831,-3.4698,-3.4698,-3.4631,-3.453,-3.4399,-3.4399,-3.4332,-3.4298,-3.4631,-3.4664,-3.4534,-3.4534,-3.4534,-3.4539,-3.4563,-3.413,-3.3512,-3.3229,-3.2458,-3.1569,-3.1392,-3.1508,-3.1623,-3.1126,-3.1451,-3.1807,-3.1131,-3.0984,-3.1014,-3.1014,-3.0984,-3.1014,-3.1248,-3.1248,-3.1307,-3.1482,-3.1511,-3.1511,-3.1511,-3.1482,-3.1424,-3.1307,-3.1073,-3.0866,-3.0806,-3.0601,-3.0221,-2.9564,-3.0203,-3.0195,-2.8966,-2.9564,-3.0063,-3.0213,-3.0239,-3.0121,-2.978,-2.9799,-2.9496,-2.8747,-2.87,-2.869,-2.8804,-2.9211,-2.9501,-2.9768,-3.0225,-3.0418,-3.9285,-3.8226,-3.745,-3.7738,-3.6343,-3.4961,-3.5122,-3.4349,-3.3646,-3.3744,-3.4092,-3.4597,-3.5484,-3.6316,-3.6904,-3.7117,-3.7298,-3.7166,-3.6443,-3.6263,-3.6261,-3.6515,-3.6463,-3.6397,0.0,-3.6133,-3.5846,-3.5522,-3.5519,-3.5716,-3.6164,-3.6068,-3.6132,-3.6476,-3.6163,-3.591,-3.5688,-3.5587,-3.5392,-3.5198,-3.5557,-3.5397,-3.4902,-3.4765,-3.4698,-3.4698,-3.4496,-3.4399,-3.4399,-3.4399,-3.453,-3.4698,-3.4835,-3.4902,-3.4902,-3.4902,-3.4902,-3.478,-3.4002,-3.3517,-3.3145,-3.2832,-3.1981,-3.1308,-3.233,-3.2115,-3.1526,-3.1496,-3.1649,-3.1626,-3.0832,-3.0687,-3.0806,-3.0806,-3.0687,-3.0747,-3.119,-3.122,-3.119,-3.1453,-3.1511,-3.1511,-3.1511,-3.1365,-3.1307,-3.1307,-3.119,-3.1014,-3.0836,-3.0397,-3.0185,-3.0436,-2.9415,-2.8936,-2.9532,-2.8996,-2.9255,-3.0681,-3.091,-3.0742,-3.0199,-3.0299,-2.9836,-2.8628,-2.8747,-2.8993,-2.9396,-2.9051,-2.9154,-2.962,-3.0548,-3.0805,-4.0201,-3.881,-3.7625,-3.8094,-3.6694,-3.5332,-3.5753,-3.4988,-3.4288,-3.4584,-3.418,-3.4211,-3.5517,-3.584,-3.6041,-3.6456,-3.7014,-3.7077,-3.6062,-3.5879,-3.5753,-3.537,-3.5687,0.0,0.0,0.0,0.0,-3.5716,-3.6368,-3.6653,-3.6226,-3.6133,-3.6164,-3.632,-3.6195,-3.5975,-3.5688,-3.5782,-3.5683,-3.5392,-3.5522,-3.5394,-3.51,-3.5063,-3.4964,-3.4802,-3.4534,-3.4399,-3.4399,-3.4399,-3.453,-3.4731,-3.4968,-3.51,-3.51,-3.51,-3.51,-3.5011,-3.4265,-3.352,-3.2926,-3.3145,-3.2461,-3.1717,-3.2474,-3.2433,-3.2046,-3.1642,-3.1556,-3.1442,-3.0772,-3.0628,-3.0657,-3.0657,-3.0687,-3.0806,-3.0925,-3.1132,-3.1278,-3.1336,-3.1453,-3.1511,-3.1511,-3.1482,-3.1424,-3.1307,-3.119,-3.1073,-3.1014,-3.057,-3.0093,-2.9731,-2.9451,-2.8966,-2.8334,-2.9235,-2.9738,-2.9505,-3.0428,-3.0532,-2.9562,-2.976,-2.9478,-2.8628,-2.9248,-2.9567,-2.9521,-3.0127,-3.0746,-3.1388,-3.0885,-3.0959,-4.0116,-3.8852,-3.7676,-3.7964,-3.6852,-3.5881,-3.6489,-3.576,-3.5048,-3.5356,-3.5078,-3.5124,-3.6265,-3.6268,-3.6151,-3.6368,-3.6756,-3.6676,-3.5823,-3.5918,-3.5947,-3.5689,-3.5943,-3.5981,0.0,0.0,0.0,-3.5814,-3.6613,-3.6897,-3.6351,-3.6133,-3.607,-3.6196,-3.607,-3.5847,-3.5494,-3.5653,-3.5619,-3.5392,-3.5457,-3.5359,-3.5067,-3.5067,-3.4902,-3.4601,-3.4399,-3.4293,-3.4225,-3.4264,-3.4462,-3.4731,-3.4997,-3.5133,-3.5195,-3.51,-3.5034,-3.4942,-3.4359,-3.3728,-3.3216,-3.35,-3.2784,-3.2006,-3.2928,-3.2829,-3.2356,-3.2185,-3.2127,-3.1924,-3.1148,-3.0916,-3.0858,-3.0656,-3.0657,-3.0746,-3.0806,-3.1043,-3.1249,-3.1278,-3.1424,-3.1511,-3.1511,-3.1482,-3.1424,-3.1365,-3.1278,-3.1072,-3.0778,-3.0038,-2.9383,-2.9023,-2.8836,-2.8528,-2.7979,-2.9059,-2.9592,-2.9256,-3.0068,-3.0171,-2.9332,-2.9561,-2.9452,-2.8903,-2.9768,-3.0261,-3.0309,-3.1022,-3.1537,-3.1931,-3.1302,-3.1135,-3.9126,-3.8341,-3.7517,-3.7431,-3.6857,-3.6512,-3.7305,-3.6654,-3.5971,-3.6138,-3.6646,-3.7227,0.0,0.0,-3.7242,-3.6878,-3.6521,-3.618,-3.5823,-3.629,-3.6815,0.0,0.0,0.0,0.0,0.0,0.0,-3.5812,0.0,-3.6507,-3.6475,-3.5975,-3.5847,-3.6133,-3.5847,-3.5494,-3.5195,-3.5195,-3.5195,-3.5195,-3.5359,-3.5261,-3.4902,-3.4868,-3.4601,-3.4094,-3.4094,-3.402,-3.3917,-3.4025,-3.4332,-3.4698,-3.4835,-3.5001,-3.5162,-3.4935,-3.4769,-3.461,-3.4159,-3.3991,-3.393,-3.3677,-3.2825,-3.2088,-3.359,-3.3173,-3.231,-3.3005,-3.3149,-3.2836,-3.1782,-3.1495,-3.1321,-3.0713,-3.0598,-3.0628,-3.0776,-3.0955,-3.1132,-3.1278,-3.1424,-3.1511,-3.1511,-3.1365,-3.1336,-3.1482,-3.1365,-3.0981,-3.0245,-2.9009,-2.8296,-2.8485,-2.7758,-2.7665,-2.8581,-2.8532,-2.8906,-2.991,-2.9863,-2.9724,-2.9438,-2.979,-2.9851,-2.9464,-3.0258,-3.1016,-3.161,-3.167,-3.159,-3.1412,-3.183,-3.1443,-3.9041,-3.7937,-3.6943,-3.7589,-3.7213,-3.7045,-3.8489,-3.8056,-3.7568,-3.8256,-3.8328,-3.8254,0.0,0.0,0.0,-3.734,-3.7274,0.0,-3.675,-3.6446,0.0,-3.6693,0.0,-3.6132,-3.5814,-3.6548,0.0,0.0,-3.6514,-3.6801,-3.6162,-3.5847,-3.5688,-3.5683,-3.5459,-3.5201,-3.4968,-3.51,-3.51,-3.4968,-3.5034,-3.4935,-3.4765,-3.4433,-3.423,-3.4094,-3.3848,-3.3779,-3.3917,-3.4025,-3.423,-3.4501,-3.4802,-3.4935,-3.4935,-3.4635,-3.453,-3.4433,-3.4057,-3.3781,-3.3514,-3.2796,-3.2417,-3.2298,-3.3016,-3.2348,-3.1607,-3.2663,-3.2319,-3.155,-3.1392,-3.1368,-3.1226,-3.0742,-3.0657,-3.0776,-3.0806,-3.1043,-3.1248,-3.1278,-3.1424,-3.1511,-3.1511,-3.1482,-3.1482,-3.1511,-3.0948,-3.0683,-3.0952,-3.027,-2.9739,-2.9684,-2.9037,-2.8766,-2.908,-2.9188,-2.9355,-2.9672,-2.9863,-2.9932,-2.9855,-3.0033,-3.0086,-3.0011,-3.133,-3.1917,-3.1763,-3.252,-3.2813,-3.2684,-3.2411,-3.2284,-3.9673,-3.8599,-3.7507,-3.8188,-3.7694,-3.7337,-3.8376,-3.8388,-3.8435,-3.9277,-3.9635,-3.9807,-4.0003,-3.9067,0.0,0.0,0.0,0.0,-3.5687,-3.5858,-3.5984,0.0,-3.6011,0.0,-3.5589,-3.6321,-3.6408,0.0,-3.6285,-3.6542,-3.5908,-3.5527,-3.5329,-3.5261,-3.5067,-3.4835,-3.4568,-3.4735,-3.4735,-3.4568,-3.4635,-3.4568,-3.4327,-3.4162,-3.3957,-3.375,0.0,-3.364,-3.3779,-3.3848,-3.4094,-3.4399,-3.4462,-3.4534,-3.4635,-3.4298,-3.4191,-3.4157,-3.3848,-3.3722,-3.3585,-3.3111,-3.2696,-3.2511,-3.2936,-3.242,-3.1825,-3.2817,-3.2425,-3.1728,-3.1636,-3.1412,-3.107,-3.059,-3.0538,-3.0598,-3.0687,-3.0984,-3.1249,-3.1336,-3.1424,-3.1453,-3.1511,-3.1453,-3.1424,-3.1424,-3.08,-3.0389,-3.0629,-2.9833,-2.9215,-2.9134,-2.8519,-2.8309,-2.8764,-2.8901,-2.9155,-2.9672,-2.9837,-2.9997,-3.0072,-3.0452,-3.0711,-3.0812,-3.218,-3.2786,-3.2651,-3.3485,-3.3743,-3.3359,-3.3255,-3.3139,-4.0509,-3.9676,-3.8583,-3.8992,-3.8274,-3.7576,-3.7972,-3.8598,-3.9294,-4.01,-4.0965,-4.1737,-4.2246,-4.0254,-3.8368,-3.7902,0.0,-3.4986,-3.4443,-3.5375,-3.5886,-3.5306,-3.5706,-3.5879,-3.5503,-3.63,-3.6351,-3.5192,-3.57,-3.5926,-3.5621,-3.5136,-3.4868,-3.4802,-3.4635,-3.4428,-3.4025,-3.423,-3.4264,-3.4059,-3.423,-3.4157,-3.3848,-3.3922,-3.375,-3.3326,-3.3466,-3.357,-3.357,-3.3605,-3.3882,-3.4293,-3.3985,-3.4088,-3.4293,-3.3951,-3.3813,-3.3779,-3.3605,-3.364,-3.3779,-3.3728,-3.3141,-3.2546,-3.2904,-3.2554,-3.2156,-3.2772,-3.2748,-3.2415,-3.1927,-3.1422,-3.0914,-3.0379,-3.0296,-3.0357,-3.0568,-3.0866,-3.1161,-3.1395,-3.1366,-3.1307,-3.1424,-3.1366,-3.1219,-3.113,-3.0626,-3.0127,-2.9753,-2.8731,-2.8086,-2.8117,-2.7484,-2.7421,-2.8387,-2.8296,-2.8687,-2.9746,-2.9773,-2.9936,-3.0379,-3.0956,-3.1428,-3.1756,-3.283,-3.3487,-3.372,-3.4399,-3.4376,-3.3674,-3.4118,-3.4029,-4.0686,-3.9815,-3.9028,-3.9932,-3.9013,-3.8239,-3.9608,-4.0798,0.0,-4.245,-4.3433,-4.4162,-4.4145,-4.2582,-4.1137,-4.0605,-4.0084,-3.9076,-3.7151,-3.763,-3.7266,0.0,-3.5431,-3.557,-3.4424,-3.5284,0.0,0.0,-3.5053,-3.5281,-3.5067,-3.4968,-3.4702,-3.4264,-3.4122,-3.3917,-3.3709,-3.3991,-3.4059,-3.3917,-3.3922,-3.3819,-3.364,-3.3501,-3.3396,-3.329,-3.3361,0.0,-3.3361,-3.3536,-3.364,-3.3744,-3.3848,-3.3917,-3.3951,-3.3536,-3.3396,-3.3396,-3.3192,-3.3129,-3.308,-3.277,-3.2286,-3.1811,-3.1624,-3.1099,-3.067,-3.1182,-3.1388,-3.1366,-3.0885,-3.0793,-3.0725,-3.0254,-3.0205,-3.0357,-3.0568,-3.0866,-3.1102,-3.1161,-3.1132,-3.1132,-3.1161,-3.1132,-3.0925,-3.022,-3.0044,-2.9666,-2.8856,-2.8735,-2.8877,-2.9261,-2.8738,-2.8763,-2.9688,-2.8853,-2.8764,-2.9875,-2.955,-2.9945,-3.1398,-3.1601,-3.1991,-3.2574,-3.3495,-3.3924,-3.3873,-3.4546,-3.4542,-3.396,-3.472,-3.4824,-4.2302,-4.1475,-4.042,-4.0617,-3.9709,-3.9022,-3.9833,0.0,0.0,-4.388,-4.4569,-4.506,-4.5417,-4.332,0.0,-4.0976,-4.0135,-3.8756,-3.6652,-3.6923,0.0,-3.4771,-3.5247,-3.5398,0.0,-3.5264,-3.5312,-3.3972,-3.4629,-3.4968,-3.4668,-3.4635,-3.4534,-3.4264,-3.4293,-3.4088,-3.3605,-3.3922,-3.3957,-3.3744,-3.3507,-3.3472,-3.3605,-3.3262,-3.3192,-3.329,-3.329,-3.3164,-3.3014,-3.3325,-3.3372,-3.3289,-3.3526,-3.3605,-3.357,-3.3262,-3.3086,-3.3016,-3.2988,-3.273,-3.2354,-3.2249,-3.2038,-3.1718,-3.148,-3.0963,-3.0599,-3.111,-3.0936,-3.0549,-3.0438,-3.0227,-3.0076,-2.9984,-3.0052,-3.0235,-3.0417,-3.0568,-3.0746,-3.0925,-3.0895,-3.0778,-3.0601,-3.0514,-3.0191,-2.9404,-2.8996,-2.8651,-2.8369,-2.8222,-2.8391,-2.8972,-2.8741,-2.8797,-2.9399,-2.9171,-2.9405,-3.0445,-3.0413,-3.0926,-3.2209,-3.2404,-3.2719,-3.3272,-3.3866,-3.425,-3.4325,-3.4835,-3.4975,-3.4722,-3.5307,-3.5497,-4.3698,-4.2903,-4.1669,-4.1075,-4.0238,-3.9677,-4.0154,-4.1491,0.0,-4.4683,-4.5375,-4.5811,-4.6005,-4.3742,-4.1732,0.0,-4.0044,-3.839,-3.6067,-3.6469,-3.6308,0.0,-3.5177,0.0,-3.4543,-3.5426,0.0,-3.3842,-3.4479,-3.4773,-3.4428,-3.4462,-3.4428,-3.4332,-3.4496,-3.4293,-3.3675,-3.3951,-3.3888,-3.3605,-3.3227,-3.3227,-3.3536,-3.3157,-3.3094,-3.3227,-3.3227,-3.3079,-3.2794,-3.2988,-3.3008,-3.2936,-3.3023,-3.3024,-3.2961,-3.2785,-3.2498,-3.2282,-3.2458,-3.2083,-3.1564,-3.1598,-3.1508,-3.1399,-3.1254,-3.0891,-3.0555,-3.0849,-3.0458,-2.9936,-2.9961,-2.9636,-2.9401,-2.9713,-2.9898,-3.008,-3.0235,-3.0266,-3.0326,-3.0627,-3.048,-3.0219,-2.9987,-2.9842,-2.9493,-2.8711,-2.8249,-2.8021,-2.8111,-2.7968,-2.8108,-2.8684,-2.8626,-2.8738,-2.9191,-2.9513,-3.0102,-3.1121,-3.1243,-3.1761,-3.2891,-3.3014,-3.3308,-3.3771,-3.4176,-3.4497,-3.4739,-3.5128,-3.535,-3.5509,-3.5689,-3.5966,-4.3451,-4.2774,-4.2035,-4.1142,-4.037,-4.0251,-4.1732,0.0,-4.4003,-4.4909,-4.6499,-4.7213,-4.5539,-4.4756,-4.3944,-4.2713,-4.2441,-4.1162,-3.7687,-3.875,-3.8101,-3.3187,0.0,0.0,-3.3817,-3.5183,-3.5785,-3.4846,-3.4739,-3.4631,-3.4399,-3.4563,-3.453,-3.4128,-3.4162,-3.4059,-3.3848,-3.3882,-3.3813,-3.3605,-3.3396,-3.329,-3.3326,-3.3094,-3.3023,-3.3023,-3.3023,-3.2995,0.0,-3.2403,-3.2521,-3.2919,-3.2437,-3.2076,-3.1937,-3.1791,-3.1364,-3.0891,-3.0897,-3.087,-3.0699,-3.019,-3.0064,-3.013,-2.9997,-2.9871,-2.9668,-2.9046,-2.9274,-2.9624,-2.9077,-2.9045,-2.9208,-2.9526,-2.9744,-2.9898,-3.008,-3.0111,-3.0142,-3.0172,-2.9714,-2.9373,-2.9463,-2.9346,-2.9027,-2.8369,-2.8655,-2.8709,-2.7906,-2.8625,-2.9319,-2.9493,-2.9227,-2.9389,-3.0289,-3.0108,-3.0475,-3.1737,-3.1202,-3.1632,-3.3345,-3.3111,-3.328,-3.405,-3.4448,-3.4739,-3.4859,-3.5175,-3.5475,-3.5756,-3.5812,-3.5975,-4.51,-4.3379,-4.1429,-4.1192,-4.0546,-4.0446,-4.2267,0.0,-4.3982,-4.647,-4.7084,-4.6983,-4.6104,-4.5298,-4.4089,-4.2092,-4.1691,-4.0661,-3.7783,-3.8029,-3.7413,-3.4636,-3.5376,0.0,0.0,0.0,-3.3967,-3.3498,-3.4126,-3.4496,-3.4399,-3.4597,-3.4631,-3.4496,-3.4534,-3.4399,-3.402,-3.4157,-3.402,-3.3605,-3.3536,-3.3466,-3.3466,-3.3403,-3.3368,-3.3333,-3.3227,-3.2807,0.0,-3.2137,-3.192,-3.1673,-3.1612,-3.1437,-3.1233,-3.1124,-3.0884,-3.0665,-3.0665,-3.0418,-3.0062,-2.9849,-2.9487,-2.9203,-2.9525,-2.9356,-2.9046,-2.9122,-2.91,-2.9002,-2.8848,-2.9049,-2.9334,-2.946,-2.9557,-2.9682,-2.9803,-2.9803,-2.9834,-2.9898,-2.9822,-2.9776,-2.9813,-2.9726,-2.9406,-2.8851,-2.8883,-2.8828,-2.834,-2.8827,-2.9256,-2.9367,-3.0009,-3.068,-3.1345,-3.1491,-3.184,-3.2444,-3.2432,-3.2786,-3.3591,-3.3641,-3.3884,-3.4448,-3.4691,-3.4939,-3.5152,-3.5383,-3.5532,-3.5689,-3.5944,-3.6118,-4.6877,-4.5069,-4.2881,-4.2319,-4.1942,-4.2099,0.0,0.0,-4.4527,-4.7282,-4.7214,-4.6498,-4.5892,-4.5238,-4.3923,-4.1221,-4.074,-3.9764,-3.7071,-3.687,-3.6565,0.0,0.0,-3.4983,0.0,-3.3574,-3.3336,-3.3033,-3.3846,-3.4397,-3.4534,-3.4597,-3.4597,-3.4597,-3.4735,-3.4635,-3.4196,-3.4332,-3.4162,-3.3744,-3.3709,-3.3675,-3.3675,-3.357,-3.3501,-3.3501,-3.3094,-3.2539,0.0,-3.1708,-3.1377,-3.0987,-3.1012,-3.0832,-3.0632,-3.0526,-3.0349,-3.0184,-3.0184,-2.9876,-2.9455,-2.9487,-2.9089,-2.8682,-2.9122,-2.8926,-2.8682,-2.9122,-2.8926,-2.8633,-2.8729,-2.9017,-2.9334,-2.9334,-2.946,-2.9648,-2.9741,-2.9803,-2.9867,-3.0054,-3.0122,-3.0132,-3.0158,-3.0042,-2.9838,-2.945,-2.9307,-2.9139,-2.897,-2.9104,-2.929,-2.9396,-3.0578,-3.1494,-3.1805,-3.2238,-3.2681,-3.3069,-3.344,-3.3668,-3.3797,-3.4075,-3.4399,-3.4739,-3.4939,-3.5152,-3.5406,-3.5554,-3.5711,-3.5822,-3.6062,-3.6247,-4.8408,-4.8123,-4.7432,-4.4901,-4.4965,-4.5839,0.0,-4.6246,-4.5928,-4.6824,-4.684,-4.6162,-4.4352,-4.4445,-4.3758,-4.0524,-4.0126,-3.8977,-3.5495,-3.5877,0.0,0.0,0.0,-3.5474,-3.5638,-3.5248,-3.4755,-3.422,-3.4188,0.0,-3.4872,-3.4568,-3.4399,-3.4399,-3.4597,-3.4597,-3.4399,-3.4399,-3.4298,-3.4094,-3.3888,-3.3819,-3.3882,-3.3466,-3.329,-3.3262,-3.2472,-3.2165,0.0,-3.1017,-3.0848,-3.1326,-3.0736,-3.0318,-2.9997,-2.9997,-2.9638,-2.9113,-2.9113,-2.8986,-2.8826,-2.8826,-2.8729,-2.86,-2.86,-2.86,-2.86,-2.86,-2.86,-2.86,-2.86,-2.8858,-2.9113,-2.9113,-2.9366,-2.971,-3.0019,-3.0174,-3.0388,-3.0718,-3.0426,-3.0156,-3.0268,-3.0183,-3.0099,-3.0099,-3.0012,-2.9956,-2.9783,-2.9622,-2.9615,-2.9853,-3.0918,-3.1561,-3.1424,-3.2023,-3.2724,-3.3455,-3.3745,-3.3949,-3.4101,-3.4349,-3.4618,-3.4883,-3.5175,-3.5406,-3.56,-3.5711,-3.5975,-3.6284,-3.6212,-3.631,-4.8489,-4.7057,-4.559,-4.543,-4.5129,-4.5255,-4.6742,-4.6398,-4.6139,-4.7552,-4.7214,-4.6296,-4.4994,-4.4781,-4.3869,-4.1072,-4.0542,-3.9547,0.0,0.0,0.0,-3.5372,-3.4429,-3.3858,0.0,0.0,-3.3299,-3.4129,-3.38,-3.3897,-3.4706,-3.4399,-3.4264,-3.4399,-3.4462,-3.4462,-3.4399,-3.4399,-3.4298,-3.4094,-3.4162,-3.4128,-3.4025,-3.3888,-3.3813,-3.3646,-3.2714,-3.2213,-3.1933,-3.0755,-3.0439,-3.0591,-2.9954,-2.9676,-2.9489,-2.9233,-2.9086,-2.889,-2.889,-2.8858,-2.8826,-2.8826,-2.8729,-2.86,-2.86,-2.86,-2.86,-2.86,-2.8665,-2.8761,-2.8761,-2.9017,-2.9334,-2.9334,-2.9648,-3.0019,-3.0297,-3.0569,-3.0866,-3.1219,-3.1243,-3.1264,-3.1548,-3.1494,-3.1438,-3.152,-3.1129,-3.0621,-3.0087,-2.9685,-2.9592,-2.9925,-3.0366,-3.1024,-3.1883,-3.2774,-3.3387,-3.3617,-3.3975,-3.4201,-3.4226,-3.457,-3.4883,-3.5175,-3.5373,-3.5577,-3.5734,-3.5966,-3.6191,-3.6423,-3.6318,-3.6423,-4.9841,-4.8775,-4.7497,-4.7448,-4.6806,-4.6528,-4.7875,-4.7253,-4.6553,-4.7027,-4.6321,-4.5313,-4.4239,-4.3495,-4.2468,-4.0701,-4.0073,-3.9185,0.0,0.0,0.0,0.0,0.0,0.0,0.0,-3.2229,-3.2553,-3.3136,-3.3077,-3.3383,-3.4189,-3.4283,-3.4366,-3.453,-3.4462,-3.4399,-3.4399,-3.4298,-3.4264,-3.4196,-3.4264,-3.4264,-3.4196,-3.4059,-3.3842,-3.3448,-3.2484,-3.1829,0.0,-3.0527,-3.0114,-3.0083,-2.9775,-2.9526,-2.931,-2.9149,-2.9017,-2.8954,-2.9081,-2.9017,-2.8922,-2.8922,-2.8858,-2.8794,-2.8794,-2.8794,-2.8794,-2.8794,-2.8958,-2.918,-2.918,-2.9463,-2.9744,-2.9744,-3.0052,-3.0447,-3.0807,-3.1131,-3.1451,-3.1851,-3.2048,-3.2247,-3.2413,-3.2388,-3.2269,-3.2074,-3.1459,-3.0782,-3.0099,-2.9788,-2.973,-3.0101,-3.0678,-3.1417,-3.2449,-3.318,-3.3684,-3.3968,-3.4325,-3.457,-3.4667,-3.4906,-3.5198,-3.5498,-3.56,-3.5778,-3.5997,-3.6268,-3.6457,-3.6582,-3.6846,-3.7129,0.0,-5.2379,-5.1974,-5.0404,-4.9467,-4.9112,-4.9659,-4.8599,0.0,-4.5769,-4.4702,-4.3643,-4.2573,-4.1178,-4.0072,-3.9743,-3.9091,0.0,0.0,-3.5678,0.0,0.0,0.0,0.0,-3.1397,-3.2049,-3.2378,-3.1646,-3.2201,-3.2815,-3.3387,-3.4189,-3.4606,-3.4639,-3.4501,-3.4428,-3.4428,-3.423,-3.423,-3.4433,-3.4138,-3.4172,-3.4341,-3.3939,-3.3425,0.0,-3.1867,-3.1241,-3.0807,-3.0306,-3.0021,-2.9901,-3.008,-2.9865,-2.9523,-2.9557,-2.9401,-2.9149,-2.9491,-2.9397,-2.9113,-2.9145,-2.9117,-2.9149,-2.9149,-2.9149,-2.9149,-2.9149,-2.9495,-2.9839,-2.9839,-3.0054,-3.0326,-3.0357,-3.0598,-3.0984,-3.1451,-3.1766,-3.2104,-3.2574,-3.2769,-3.2912,-3.2912,-3.2939,-3.269,-3.2034,-3.1285,-3.0648,-3.0176,-2.997,-3.0067,-3.0545,-3.1649,-3.2627,-3.3186,-3.3323,-3.3704,-3.4464,-3.4763,-3.5024,-3.5291,-3.5314,-3.5475,-3.5834,-3.5822,-3.5997,-3.636,-3.6602,-3.6705,-3.676,-3.7697,-3.8174,-5.144,0.0,-5.0545,-5.0113,-4.9885,-4.9745,0.0,-4.8905,-4.7767,-4.6567,-4.5542,0.0,0.0,0.0,0.0,0.0,0.0,0.0,0.0,0.0,0.0,0.0,0.0,-3.3988,-3.261,-3.1723,-3.1602,-3.2445,-3.1835,-3.1795,-3.2719,-3.326,-3.3674,-3.3937,-3.4401,-3.4631,-3.4631,-3.4428,-3.4467,-3.4769,-3.3839,-3.3641,-3.4068,-3.305,-3.2503,-3.2331,-3.1475,-3.12,-3.1281,-3.0555,-3.0447,-3.0776,-3.0538,-3.0417,-3.0266,-2.9898,-2.9529,-2.9247,-2.9401,-2.9303,-2.9145,-2.9397,-2.9557,-2.9623,-2.9623,-2.9623,-2.9623,-2.9623,-2.9901,-3.0205,-3.0205,-3.0357,-3.0568,-3.0658,-3.1014,-3.1451,-3.1938,-3.2244,-3.2574,-3.3038,-3.3096,-3.3043,-3.3043,-3.3123,-3.314,-3.2982,-3.1981,-3.1417,-3.1914,-3.115,-3.1045,-3.2329,-3.2886,-3.3493,-3.4394,-3.434,-3.4357,-3.4643,-3.5011,-3.5268,-3.5373,-3.5464,-3.5667,-3.5954,-3.6105,-3.636,-3.669,-3.6766,-3.6851,-3.7009,-3.7976,-3.8522,-5.1133,-5.0868,-5.0312,-4.9487,-4.927,-4.9116,-4.8636,-4.8083,-4.7192,-4.5579,0.0,0.0,0.0,0.0,0.0,0.0,-3.8545,0.0,0.0,0.0,0.0,0.0,0.0,-3.2731,0.0,-3.1161,-3.0949,-3.1521,-3.1303,-3.1386,-3.1922,-3.298,-3.3605,-3.3703,-3.4512,-3.4831,-3.4563,-3.4076,-3.4209,-3.4902,-3.3897,-3.3703,-3.4154,-3.3355,-3.2664,-3.2082,-3.1611,-3.129,-3.1061,-3.0863,-3.0807,-3.0866,-3.0746,-3.0598,-3.0447,-3.0266,-2.9931,-2.9685,-2.9898,-2.9806,-2.9682,-2.9867,-3.0021,-3.0174,-3.0174,-3.0297,-3.0448,-3.0297,-3.0509,-3.0807,-3.0925,-3.1043,-3.119,-3.1423,-3.168,-3.202,-3.2413,-3.2687,-3.2931,-3.3256,-3.3229,-3.3203,-3.3203,-3.3309,-3.3313,-3.3099,-3.2524,-3.2216,-3.2538,-3.2205,-3.2308,-3.3303,-3.3758,-3.4254,-3.4954,-3.4954,-3.4954,-3.5081,-3.5268,-3.5475,-3.5689,-3.5689,-3.5866,-3.6212,-3.6512,-3.6811,-3.7009,-3.7068,-3.736,-3.7887,-3.8408,-3.9128,-5.0775,-5.0766,-5.0189,-4.8735,-4.8112,-4.7753,-4.7072,-4.666,-4.5895,-4.4136,-4.3428,0.0,0.0,-3.9221,0.0,0.0,0.0,0.0,0.0,0.0,0.0,0.0,0.0,0.0,-3.0747,-3.0598,-3.0387,-3.008,-3.069,-3.1159,-3.1274,-3.2881,-3.3777,-3.367,-3.4643,-3.4872,-3.4283,-3.3686,-3.3885,-3.4791,-3.4064,-3.3876,-3.4173,-3.3828,-3.2991,-3.193,0.0,0.0,-3.0807,-3.119,-3.1131,-3.0807,-3.0925,-3.0747,-3.0507,-3.0628,-3.0477,-3.0237,-3.0538,-3.0568,-3.0447,-3.0447,-3.0568,-3.0717,-3.0717,-3.1014,-3.1307,-3.1043,-3.119,-3.1423,-3.1653,-3.1798,-3.1912,-3.2163,-3.2358,-3.2551,-3.2854,-3.3016,-3.315,-3.3309,-3.3309,-3.3282,-3.3361,-3.3466,-3.3425,-3.3094,-3.2999,-3.2966,-3.2945,-3.3158,-3.3487,-3.3955,-3.4495,-3.4906,-3.5152,-3.535,-3.5487,-3.552,-3.5543,-3.5723,-3.6019,-3.5954,-3.6127,-3.6568,-3.695,-3.7222,-3.7336,-3.7554,-3.8075,-3.8865,-3.921,-4.0072,-4.9829,-4.916,-4.8406,-4.8205,-4.6921,-4.5833,-4.6456,-4.5291,-4.419,-4.4466,-4.3689,-4.2751,0.0,-3.8846,-3.665,0.0,0.0,0.0,0.0,0.0,0.0,0.0,0.0,-3.2019,-3.119,-3.0538,-3.0083,-2.9839,-3.0135,-3.0514,-3.1088,-3.2315,-3.3147,-3.3507,-3.4446,-3.4505,-3.3649,-3.4185,-3.4482,-3.4463,-3.3927,-3.353,-3.3213,-3.2736,-3.2199,-3.1571,0.0,-3.154,-3.1538,-3.1625,-3.1682,-3.1798,-3.1683,-3.1511,-3.1277,-3.1014,-3.0837,-3.0688,-3.0748,-3.0925,-3.1131,-3.1014,-3.1161,-3.1335,-3.1219,-3.1453,-3.1741,-3.1798,-3.1769,-3.1712,-3.1769,-3.1968,-3.2163,-3.2358,-3.2578,-3.2854,-3.3016,-3.3069,-3.3176,-3.344,-3.3282,-3.3229,-3.3565,-3.3642,-3.3764,-3.4013,-3.364,-3.3603,-3.4438,-3.4167,-3.4137,-3.4848,-3.5178,-3.5383,-3.5463,-3.5633,-3.5734,-3.5768,-3.5844,-3.5975,-3.6161,-3.6416,-3.6684,-3.6911,-3.7145,-3.7392,-3.7649,-3.8456,-3.8905,-3.9085,-4.0673,-4.1506,-4.9634,-4.8452,-4.7213,-4.7045,-4.5968,-4.4633,-4.351,-4.2826,-4.2195,-4.1488,-4.0716,-3.9873,0.0,0.0,-3.5255,-3.4991,0.0,-3.2373,-3.2553,-3.2391,-3.2069,0.0,0.0,-3.092,-3.0628,-3.0144,-2.9803,-2.9713,-3.0177,-3.0503,-3.054,-3.2185,-3.3074,-3.2948,-3.3918,-3.4188,-3.3732,-3.4319,-3.4337,-3.3902,-3.3513,-3.3276,-3.32,-3.2939,-3.2459,-3.1879,0.0,-3.1966,-3.1853,-3.2023,-3.2051,-3.1996,-3.1826,-3.1798,-3.1739,-3.1596,-3.1452,-3.1336,-3.1423,-3.1538,-3.1683,-3.1597,-3.1683,-3.1768,-3.1682,-3.1798,-3.1912,-3.1968,-3.194,-3.194,-3.2193,-3.2219,-3.2302,-3.2687,-3.2854,-3.2966,-3.315,-3.3203,-3.3256,-3.3388,-3.3309,-3.3282,-3.3539,-3.3694,-3.3949,-3.4349,-3.4274,-3.4471,-3.5142,-3.499,-3.4935,-3.5316,-3.5498,-3.5588,-3.5656,-3.58,-3.591,-3.591,-3.6084,-3.6212,-3.6374,-3.6806,-3.7068,-3.7222,-3.7466,-3.7721,-3.7914,-3.8832,-3.9516,-4.0039,-4.1359,-4.2159,-4.9648,-4.7956,-4.6174,-4.5838,-4.489,-4.3503,-4.1488,-4.096,-4.0551,-3.9222,-3.8395,0.0,0.0,-3.5178,0.0,-3.2006,-3.1467,-3.128,-3.1247,-3.1073,-3.0896,-3.0747,-3.0235,-2.9898,-3.0019,-2.9772,-2.9617,-2.9617,-3.0227,-3.0557,-3.0368,-3.2275,-3.3226,-3.2873,-3.3726,-3.4122,-3.4026,-3.4322,-3.4089,-3.3397,-3.3456,-3.3356,-3.3211,-3.3194,-3.2861,-3.2247,-3.2358,-3.2302,-3.2107,-3.2358,-3.2302,-3.2079,-3.1968,-3.1968,-3.1996,-3.1996,-3.194,-3.1912,-3.2025,-3.2081,-3.2081,-3.2025,-3.2025,-3.2053,-3.2025,-3.2025,-3.2053,-3.2053,-3.2109,-3.2221,-3.2441,-3.2441,-3.2499,-3.2935,-3.3016,-3.3043,-3.3256,-3.3309,-3.3309,-3.3335,-3.3361,-3.3414,-3.3565,-3.3797,-3.4075,-3.4448,-3.4763,-3.5105,-3.5406,-3.5475,-3.5543,-3.56,-3.56,-3.5689,-3.59,-3.5997,-3.6084,-3.6105,-3.6276,-3.6444,-3.6588,-3.7224,-3.7638,-3.7771,-3.808,-3.838,-3.8712,-3.9402,-4.0197,-4.1099,-4.1937,-4.2667,-4.9692,-4.7491,-4.5136,-4.4866,-4.3448,-4.2159,-4.2462,-4.101,-3.9696,-4.0151,-3.9159,-3.7798,0.0,-3.4767,0.0,-3.0105,-3.0698,-3.1392,-3.1161,0.0,-3.0747,-3.0628,-3.0294,-3.0019,-2.9839,-2.9682,-2.9617,-2.9617,-2.9924,-3.0425,-3.1,-3.2478,-3.3502,-3.3873,-3.4379,-3.4598,-3.444,-3.4273,-3.3845,-3.3116,-3.4303,-3.4086,-3.2671,-3.3008,-3.2918,-3.2382,-3.2413,-3.2382,-3.2355,-3.2523,-3.2496,-3.2355,-3.2355,-3.2219,-3.1996,-3.1996,-3.2081,-3.2163,-3.2163,-3.2274,-3.2358,-3.2081,-3.2079,-3.2163,-3.2053,-3.2109,-3.2191,-3.2191,-3.2358,-3.2496,-3.2274,-3.2554,-3.2885,-3.2912,-3.3096,-3.3282,-3.3309,-3.3309,-3.3335,-3.3466,-3.3492,-3.3565,-3.3822,-3.4,-3.4176,-3.4448,-3.493,-3.5268,-3.5314,-3.5498,-3.56,-3.56,-3.56,-3.5756,-3.614,-3.6233,-3.6339,-3.6444,-3.6464,-3.6609,-3.693,-3.789,-3.8569,-3.8888,-3.9102,-3.9656,-4.0625,-4.0681,-4.1119,-4.1956,-4.2883,-4.3321,-4.9551,-4.7719,-4.5806,-4.5494,-4.3451,-4.1389,-4.0768,-3.9335,-3.7906,-3.734,-3.6151,-3.4788,0.0,0.0,-3.0435,-3.0046,-3.03,-3.0543,-3.0599,-3.0266,-3.0164,-3.05,-2.9904,-2.9694,-3.0186,-3.006,-2.9958,-3.0021,-3.0608,-3.0937,-3.0944,-3.2183,-3.3075,-3.3372,-3.3332,-3.3607,-3.4121,-3.3844,-3.3488,-3.3091,-3.3908,-3.3725,-3.2609,-3.2773,-3.2715,-3.2523,-3.2523,-3.2578,-3.2718,-3.2773,-3.2746,-3.2718,-3.2578,-3.2358,-3.2135,-3.2219,-3.2219,-3.2219,-3.2302,-3.2355,-3.2355,-3.2274,-3.2274,-3.233,-3.2274,-3.2302,-3.2358,-3.2413,-3.2523,-3.2605,-3.2636,-3.2827,-3.3043,-3.3123,-3.3229,-3.3309,-3.3309,-3.3309,-3.3309,-3.3388,-3.3466,-3.3539,-3.3745,-3.4101,-3.4448,-3.4691,-3.5128,-3.5429,-3.5464,-3.5554,-3.56,-3.56,-3.5756,-3.591,-3.6041,-3.6297,-3.6714,-3.7387,-3.7504,-3.7687,-3.7987,-3.9002,-3.948,-3.9333,-3.9873,-4.0159,-4.0162,-4.1065,-4.1684,-4.2135,-4.3011,-4.3394,-4.9017,-4.7095,-4.5077,-4.5038,-4.2902,-4.0538,-3.9544,-3.8122,-3.6763,-3.5659,-3.397,-3.2312,-3.1236,0.0,0.0,0.0,-3.0132,-3.0163,-3.0299,-2.9898,-2.9757,-3.0147,-2.9684,-2.9568,-3.021,-3.0247,-3.0325,-3.0387,-3.0944,-3.1123,-3.0835,-3.2159,-3.2932,-3.294,-3.3006,-3.3396,-3.4149,-3.3767,-3.3491,-3.3415,-3.3909,-3.3642,-3.2773,-3.2718,-3.2691,-3.2691,-3.2691,-3.2773,-3.2912,-3.2966,-3.2966,-3.2966,-3.2773,-3.2523,-3.233,-3.2441,-3.2413,-3.233,-3.2355,-3.241,-3.2468,-3.2468,-3.2468,-3.2468,-3.2551,-3.2523,-3.2496,-3.2578,-3.2664,-3.2746,-3.2885,-3.2989,-3.3123,-3.3229,-3.3282,-3.3309,-3.3309,-3.3335,-3.3361,-3.3361,-3.3519,-3.3668,-3.3848,-3.4275,-3.4643,-3.4906,-3.5291,-3.5543,-3.56,-3.5644,-3.5689,-3.5711,-3.5932,-3.6208,-3.6556,-3.6845,-3.7408,-3.8444,-3.8944,-3.9164,-3.913,-3.9858,-4.0311,-4.0336,-4.0593,-4.0808,-4.0993,-4.1611,-4.2121,-4.2624,-4.312,-4.3394,-4.806,-4.5401,-4.2533,-4.3028,-4.143,-3.9589,-3.9175,-3.7737,-3.6347,-3.5876,-3.3215,-3.106,-3.1167,-3.0364,0.0,-2.981,-3.0221,-3.0538,-3.0326,-2.9898,-2.9617,-2.9617,-2.9713,-2.9808,-2.9808,-3.0296,-3.0598,-3.0598,-3.0717,-3.0806,-3.0806,-3.2525,-3.3276,-3.2794,-3.3694,-3.4326,-3.4678,-3.4166,-3.3963,-3.4105,-3.4509,-3.4101,-3.3096,-3.2993,-3.2912,-3.2912,-3.2912,-3.2912,-3.2912,-3.3043,-3.3096,-3.3069,-3.2966,-3.2773,-3.2578,-3.2578,-3.2578,-3.2578,-3.2468,-3.2496,-3.2578,-3.2578,-3.2578,-3.2633,-3.2827,-3.2746,-3.2578,-3.2605,-3.2746,-3.2912,-3.2912,-3.2989,-3.3096,-3.3096,-3.3203,-3.3309,-3.3309,-3.3414,-3.3487,-3.3487,-3.372,-3.4,-3.425,-3.4521,-3.4787,-3.5081,-3.5373,-3.56,-3.56,-3.5711,-3.5844,-3.5975,-3.614,-3.6628,-3.7728,-3.7923,-3.8444,-3.9545,-4.0665,-4.0987,-4.0219,-4.042,-4.105,-4.2167,-4.1297,-4.1696,-4.3478,-4.2412,-4.2466,-4.3497,-4.3304,-4.3322,-4.642,-4.4703,-4.2951,-4.225,0.0,-3.8692,-3.8608,-3.7387,-3.5889,-3.4464,-3.2651,-3.12,-3.1009,-3.0117,0.0,-2.9609,-2.9579,-2.9688,-3.0086,-2.962,-2.9473,-3.0175,-2.9901,-2.9944,-3.0714,-3.083,-3.0955,-3.1073,-3.1219,-3.1307,-3.1307,-3.1958,-3.2434,-3.2734,-3.2867,-3.3272,-3.3937,-3.3505,-3.341,-3.3545,-3.3646,-3.3498,-3.3096,-3.3256,-3.3229,-3.3016,-3.3016,-3.3096,-3.3176,-3.3229,-3.3176,-3.3096,-3.3043,-3.2935,-3.28,-3.28,-3.28,-3.28,-3.2773,-3.2691,-3.2605,-3.2773,-3.2718,-3.2633,-3.2827,-3.2885,-3.2827,-3.2935,-3.2989,-3.3043,-3.315,-3.3282,-3.3388,-3.3388,-3.3461,-3.3571,-3.3466,-3.3461,-3.3487,-3.3487,-3.3797,-3.4075,-3.4151,-3.4618,-3.5011,-3.5105,-3.5475,-3.5756,-3.5866,-3.591,-3.5975,-3.614,-3.6212,-3.6692,-3.7694,-3.8032,-3.8667,-3.9743,-4.0936,-4.1467,-4.1252,-4.1978,-4.2392,-4.2353,-4.2531,-4.2641,-4.2717,-4.281,-4.3031,-4.3497,-4.3375,-4.3393,-4.5528,-4.3943,-4.2277,-4.1343,-3.9416,-3.742,-3.6389,0.0,0.0,0.0,-3.2209,-3.1243,-3.099,-3.0261,0.0,-2.9464,-2.9488,-2.9538,-2.974,-2.9541,-2.9635,-3.0252,-3.0187,-3.0348,-3.0998,-3.1131,-3.1248,-3.1365,-3.1453,-3.163,-3.1869,-3.2345,-3.2793,-3.3215,-3.3415,-3.3704,-3.4115,-3.3658,-3.3504,-3.3688,-3.3541,-3.3361,-3.3176,-3.3361,-3.3335,-3.3176,-3.3176,-3.3229,-3.3309,-3.3309,-3.3256,-3.3176,-3.3176,-3.3096,-3.2993,-3.2993,-3.2993,-3.2962,-3.2939,-3.2854,-3.2827,-3.2935,-3.2935,-3.2877,-3.3016,-3.3043,-3.3043,-3.3096,-3.3123,-3.3203,-3.3282,-3.3492,-3.3617,-3.3466,-3.3565,-3.3642,-3.3545,-3.3565,-3.3668,-3.372,-3.3975,-3.425,-3.4448,-3.4811,-3.5175,-3.536,-3.5689,-3.5975,-3.6105,-3.617,-3.6255,-3.6402,-3.6762,-3.7436,-3.8541,-3.9155,-3.9948,-4.1137,-4.1978,-4.2431,-4.2466,-4.2753,-4.2927,-4.2947,-4.3065,-4.3098,-4.3024,-4.3223,-4.3445,-4.3651,-4.3499,-4.3611,-4.5115,-4.3061,-4.0923,-4.0383,-3.8498,0.0,-3.358,-3.3912,-3.4335,-3.3052,0.0,-3.1182,-3.1013,-3.0629,-3.0073,-2.9373,-2.974,-2.9911,-2.934,-2.959,-2.9901,-3.0115,-3.0539,-3.0807,-3.0837,-3.1248,-3.1511,-3.1539,-3.1599,-3.1898,-3.2497,-3.3307,-3.3789,-3.3909,-3.4667,-3.5027,-3.4844,-3.4251,-3.4073,-3.437,-3.3915,-3.3539,-3.3335,-3.3335,-3.3367,-3.3403,-3.334,-3.334,-3.3403,-3.334,-3.3309,-3.3309,-3.3335,-3.3256,-3.3123,-3.315,-3.315,-3.3123,-3.2989,-3.3016,-3.3123,-3.315,-3.3229,-3.3335,-3.3335,-3.3335,-3.3309,-3.3176,-3.3229,-3.3335,-3.3335,-3.3617,-3.3797,-3.344,-3.3513,-3.3668,-3.3539,-3.372,-3.3949,-3.4101,-3.4226,-3.4497,-3.5034,-3.5152,-3.5314,-3.5858,-3.6177,-3.6337,-3.6464,-3.6568,-3.6713,-3.6936,-3.7606,-3.8586,-3.9935,-4.0805,-4.1791,-4.3032,-4.3337,-4.3493,-4.352,-4.2938,-4.3008,-4.3767,-4.3177,-4.3219,-4.3986,-4.3681,-4.3684,-4.3913,-4.3657,-4.4029,-4.3933,-4.2121,0.0,-3.9463,-3.7877,-3.6243,-3.5034,-3.45,-3.3904,-3.2726,-3.1926,-3.13,-3.0925,-3.069,-3.0335,-2.9791,-2.9905,-3.0054,-2.994,-2.9966,-3.0146,-3.0447,-3.0658,-3.0896,-3.1161,-3.1365,-3.1568,-3.1742,-3.2193,-3.2613,-3.288,-3.3178,-3.3326,-3.3356,-3.3913,-3.4282,-3.4518,-3.4301,-3.4428,-3.4856,-3.3863,-3.3492,-3.3591,-3.3591,-3.3805,-3.4067,-3.353,-3.3593,-3.4062,-3.3631,-3.3414,-3.3335,-3.3513,-3.3513,-3.344,-3.3513,-3.3487,-3.3408,-3.3487,-3.3414,-3.3309,-3.3487,-3.3513,-3.3492,-3.3565,-3.3591,-3.3591,-3.3565,-3.3591,-3.3591,-3.3591,-3.3745,-3.3848,-3.3642,-3.3745,-3.3848,-3.3822,-3.3848,-3.3975,-3.4226,-3.4448,-3.4739,-3.5175,-3.5373,-3.587,-3.6972,-3.7184,-3.7301,-3.7596,-3.7658,-3.7822,-3.8164,-3.8364,-3.9251,-4.1141,-4.1578,-4.1941,-4.2458,-4.3181,-4.3352,-4.2887,-4.3347,-4.368,-4.3865,-4.3775,-4.3822,-4.3986,-4.3908,-4.3939,-4.4048,-4.4575,-4.4983,-4.4219,-4.2532,0.0,-3.7952,0.0,-3.5904,-3.4754,-3.4111,-3.3545,-3.2854,-3.2048,-3.1394,-3.0955,-3.0866,-3.057,-2.9743,-2.9943,-3.0088,-2.9803,-3.0153,-3.0568,-3.0896,-3.1131,-3.1365,-3.1596,-3.1712,-3.1918,-3.2337,-3.27,-3.3213,-3.3909,-3.3842,-3.4081,-3.4756,-3.4831,-3.5149,-3.572,-3.5376,-3.5257,-3.5289,-3.4233,-3.3673,-3.3487,-3.3642,-3.3782,-3.3889,-3.3541,-3.3604,-3.3889,-3.362,-3.3519,-3.3519,-3.3642,-3.3642,-3.3591,-3.3668,-3.3642,-3.3591,-3.3668,-3.3591,-3.3487,-3.3642,-3.3745,-3.3797,-3.3873,-3.3975,-3.4101,-3.4118,-3.4143,-3.4201,-3.4218,-3.4292,-3.4349,-3.43,-3.4226,-3.4176,-3.4101,-3.425,-3.4595,-3.5265,-3.521,-3.5312,-3.6186,-3.6532,-3.6952,-3.7658,-3.8132,-3.8545,-3.8717,-3.8521,-3.8612,-3.933,-3.9441,-4.0148,-4.1813,-4.2375,-4.2788,-4.3058,-4.3525,-4.3675,-4.3444,-4.3847,-4.4085,-4.4085,-4.4192,-4.4266,-4.431,-4.4237,-4.4438,-4.4886,-4.5131,-4.5515,-4.495,-4.3221,-4.1103,-3.6811,-3.5801,0.0,-3.4203,-3.3664,-3.3371,-3.3161,-3.2272,-3.1423,-3.1073,-3.1014,-3.0719,-2.9724,-3.0011,-3.0214,-2.9695,-3.0396,-3.1014,-3.1307,-3.1716,-3.2036,-3.2179,-3.227,-3.2541,-3.3025,-3.3177,-3.3693,-3.4759,-3.4479,-3.4873,-3.6199,-3.5944,-3.618,-3.6951,-3.6481,-3.5995,-3.5505,-3.4609,-3.3926,-3.3388,-3.3617,-3.3706,-3.3678,-3.355,-3.3582,-3.3704,-3.3576,-3.3617,-3.3771,-3.3797,-3.3822,-3.3848,-3.3848,-3.3797,-3.3771,-3.3797,-3.3771,-3.3745,-3.3745,-3.3949,-3.4176,-3.4176,-3.4374,-3.4618,-3.4682,-3.473,-3.4811,-3.4873,-3.4996,-3.5153,-3.5153,-3.5133,-3.4963,-3.4538,-3.4715,-3.5238,-3.6262,-3.6107,-3.6162,-3.7318,-3.7902,-3.8272,-3.8432,-3.918,-3.9717,-3.964,-3.9375,-3.9476,-4.0293,-4.0583,-4.1197,-4.2402,-4.3164,-4.3684,-4.3897,-4.3976,-4.407,-4.4184,-4.4274,-4.4318,-4.4333,-4.4426,-4.451,-4.4565,-4.4482,-4.4881,-4.5712,-4.5537,-4.5879,-4.524,0.0,-4.0394,0.0,-3.6082,-3.5408,0.0,0.0,-3.3481,0.0,-3.2544,-3.1538,-3.1073,-3.0896,-3.0717,-3.0241,-3.0389,-3.0569,-3.0601,-3.1072,-3.1422,-3.1451,-3.228,-3.2846,-3.2846,-3.3363,-3.3632,-3.3374,-3.3894,-3.4166,-3.4053,-3.3985,-3.4325,-3.5101,-3.5211,-3.5524,-3.5979,-3.6349,-3.6134,-3.5221,-3.4252,-3.3738,-3.3642,-3.3797,-3.4072,-3.435,-3.3773,-3.3889,-3.4479,-3.3898,-3.3822,-3.405,-3.4176,-3.43,-3.4399,-3.4399,-3.425,-3.405,-3.4176,-3.4075,-3.3899,-3.4,-3.4226,-3.4448,-3.4448,-3.4715,-3.5001,-3.5024,-3.5095,-3.5131,-3.5155,-3.5679,-3.6205,-3.6205,-3.6817,-3.6999,-3.5347,-3.5095,-3.5304,-3.5813,-3.6775,-3.7575,-3.7882,-3.8587,-3.9399,-4.0116,-4.0474,-4.0441,-3.9925,-4.0532,-4.0959,-4.0672,-4.141,-4.2402,-4.35,-4.3763,-4.3897,-4.3955,-4.4023,-4.407,-4.4184,-4.4274,-4.431,-4.4383,-4.4454,-4.4468,-4.4426,-4.4524,-4.503,-4.5871,-4.5913,-4.6313,-4.5179,-4.2797,-4.0417,0.0,-3.7061,-3.6048,-3.5352,0.0,-3.3859,-3.2951,-3.2206,-3.176,-3.179,-3.1625,-3.1394,-3.1131,-3.1073,-3.1102,-3.119,-3.1538,-3.1796,-3.1881,-3.2407,-3.297,-3.3455,-3.3763,-3.4006,-3.4242,-3.4521,-3.467,-3.4588,-3.4585,-3.4983,-3.5846,-3.5584,-3.5721,-3.641,-3.6262,-3.5742,-3.4908,-3.4253,-3.3848,-3.3694,-3.3924,-3.406,-3.4142,-3.3848,-3.3938,-3.4246,-3.3925,-3.3975,-3.4226,-3.4275,-3.4472,-3.4715,-3.4715,-3.4739,-3.4706,-3.4739,-3.4715,-3.461,-3.457,-3.4715,-3.4987,-3.5001,-3.5188,-3.5441,-3.5711,-3.57,-3.5655,-3.5788,-3.6016,-3.6299,-3.6683,-3.6808,-3.6741,-3.6412,-3.6299,-3.639,-3.6853,-3.7931,-3.8843,-3.9,-3.9797,-4.0542,-4.0938,-4.1527,-4.1845,-4.1605,-4.1667,-4.1869,-4.2245,-4.2272,-4.2734,-4.3779,-4.3865,-4.3961,-4.4085,-4.4101,-4.4162,-4.4318,-4.4325,-4.4383,-4.444,-4.4468,-4.4496,-4.451,-4.4605,-4.5337,-4.6595,-4.6223,-4.6423,0.0,0.0,-4.1018,-3.9301,-3.8071,-3.697,0.0,0.0,-3.4348,0.0,-3.2303,-3.2186,-3.2449,-3.2139,-3.1779,-3.1581,-3.1618,-3.168,-3.1709,-3.2023,-3.2247,-3.2358,-3.2912,-3.3568,-3.421,-3.4582,-3.4864,-3.5049,-3.508,-3.498,-3.4746,-3.49,-3.5359,-3.6094,-3.5804,-3.5915,-3.6405,-3.57,-3.5129,-3.4776,-3.4253,-3.3899,-3.3745,-3.4025,-3.4126,-3.405,-3.3949,-3.3949,-3.405,-3.3975,-3.4176,-3.4497,-3.4497,-3.4739,-3.5071,-3.5048,-3.5142,-3.5224,-3.5165,-3.5165,-3.5165,-3.5001,-3.5128,-3.5304,-3.5396,-3.5566,-3.5866,-3.6191,-3.6233,-3.6233,-3.6339,-3.6414,-3.6594,-3.71,-3.694,-3.6744,-3.7025,-3.7188,-3.7413,-3.7861,-3.9004,-3.9954,-4.0075,-4.0935,-4.1538,-4.1323,-4.2181,-4.2659,-4.232,-4.2141,-4.221,-4.2803,-4.2423,-4.2516,-4.3495,-4.3601,-4.3754,-4.4116,-4.4153,-4.4229,-4.4325,-4.4354,-4.4397,-4.4468,-4.4482,-4.451,-4.4565,-4.4646,-4.5453,-4.6876,-4.6326,-4.6323,0.0,-4.3011,0.0,-3.9939,-3.8887,0.0,0.0,0.0,0.0,0.0,-3.324,-3.2812,-3.2794,-3.204,-3.1351,-3.1155,-3.1708,-3.2219,-3.2327,-3.2602,-3.2761,-3.2761,-3.4254,-3.5272,-3.5331,-3.6472,-3.6751,-3.5657,-3.5558,-3.504,-3.3834,-3.4436,-3.4819,-3.4793,-3.5459,-3.5545,-3.5096,-3.4356,-3.4317,-3.4961,-3.4124,-3.3771,-3.3899,-3.4176,-3.4349,-3.4448,-3.4075,-3.4126,-3.4448,-3.4201,-3.4472,-3.5081,-3.5081,-3.5258,-3.5554,-3.5441,-3.5362,-3.5362,-3.5314,-3.5222,-3.5105,-3.5105,-3.5234,-3.5418,-3.5385,-3.5788,-3.6276,-3.6225,-3.6464,-3.671,-3.6527,-3.7102,-3.7679,-3.7573,-3.8039,-3.8099,-3.6824,-3.7193,-3.7847,-3.8189,-3.9605,-4.079,-4.0928,-4.1772,-4.2199,-4.1391,-4.2161,-4.2262,-4.08,-4.1414,-4.1754,-4.1199,-4.1261,-4.1699,-4.258,-4.278,-4.3206,-4.3949,-4.3986,-4.407,-4.4199,-4.4289,-4.4325,-4.4397,-4.4454,-4.4482,-4.4496,-4.4565,-4.5098,-4.607,-4.6008,-4.6008,0.0,0.0,0.0,-4.1898,-4.0499,-3.9034,-3.7739,-3.6561,-3.5154,0.0,0.0,-3.2619,-3.1763,-3.1826,-3.2206,-3.2699,-3.2982,-3.3198,-3.3251,-3.3377,-3.3666,-3.417,-3.484,-3.5621,-3.652,-3.6649,-3.6727,-3.7075,-3.5964,-3.5421,-3.5738,-3.5667,-3.5637,-3.5796,-3.5975,-3.5608,-3.4698,-3.4331,-3.428,-3.4565,-3.4405,-3.4325,-3.43,-3.4643,-3.4883,-3.4977,-3.4802,-3.4778,-3.4859,-3.4763,-3.4954,-3.5304,-3.5304,-3.5532,-3.5844,-3.58,-3.5854,-3.5941,-3.58,-3.5756,-3.5756,-3.5509,-3.56,-3.58,-3.5888,-3.6105,-3.636,-3.6527,-3.6664,-3.6725,-3.669,-3.6879,-3.7081,-3.704,-3.7554,-3.7831,-3.6893,-3.7365,-3.8208,-3.8919,-3.9747,-4.0622,-4.1772,-4.1936,-4.1821,-4.1533,-4.1902,-4.1833,-4.0832,-4.1537,-4.1891,-4.1245,-4.1762,-4.2316,-4.2668,-4.325,-4.372,-4.4101,-4.4162,-4.4222,-4.431,-4.4383,-4.4426,-4.4454,-4.4468,-4.4482,-4.4482,-4.4565,-4.5084,-4.5995,-4.5429,-4.5402,-4.6076,0.0,0.0,0.0,0.0,-4.0104,-3.8393,0.0,0.0,0.0,0.0,0.0,0.0,-3.2754,-3.3226,-3.3548,-3.3838,-3.3968,-3.3975,-3.4151,-3.4536,-3.5252,-3.5647,-3.6247,-3.7196,-3.7012,-3.696,-3.7213,-3.6051,0.0,-3.6488,-3.6118,-3.6005,-3.6397,-3.6091,-3.5584,-3.4808,-3.448,-3.4374,-3.4497,-3.4667,-3.4763,-3.4763,-3.5095,-3.5327,-3.5464,-3.5532,-3.5441,-3.5258,-3.5211,-3.5373,-3.5588,-3.5633,-3.581,-3.6105,-3.6105,-3.6191,-3.6297,-3.6127,-3.6118,-3.6118,-3.5866,-3.5888,-3.6019,-3.617,-3.6318,-3.6464,-3.669,-3.6826,-3.6906,-3.6851,-3.6846,-3.6786,-3.6705,-3.7297,-3.7652,-3.6946,-3.7446,-3.8269,-3.8974,-3.9574,-4.0289,-4.1399,-4.1384,-4.1105,-4.0816,-4.118,-4.1213,-4.0499,-4.0949,-4.1229,-4.0867,-4.1388,-4.1909,-4.2313,-4.3101,-4.3757,-4.4116,-4.4229,-4.4318,-4.4354,-4.4426,-4.4468,-4.4482,-4.4482,-4.4482,-4.4482,-4.4537,-4.492,-4.5542,-4.516,-4.5283,0.0,0.0,0.0,0.0,0.0,0.0,-3.8688,0.0,-3.7449,0.0,0.0,0.0,0.0,0.0,0.0,-3.3641,-3.4164,-3.4601,-3.457,-3.4859,-3.5314,-3.6007,-3.6745,-3.7261,-3.7386,-3.7801,-3.75,-3.6166,-3.591,-3.5836,-3.5894,-3.5744,-3.5887,-3.6391,-3.5766,-3.54,-3.5393,-3.4683,-3.4521,-3.4906,-3.4939,-3.5048,-3.5224,-3.5509,-3.5711,-3.5832,-3.6084,-3.5975,-3.5622,-3.5509,-3.5633,-3.6019,-3.6092,-3.6199,-3.6318,-3.6284,-3.6284,-3.6297,-3.6212,-3.6105,-3.6019,-3.6161,-3.6105,-3.6041,-3.6255,-3.6485,-3.6684,-3.6684,-3.6985,-3.7257,-3.7029,-3.6989,-3.693,-3.6745,-3.7344,-3.7775,-3.6986,-3.7426,-3.8047,-3.8249,-3.9104,-3.9795,-3.9811,-4.014,-4.0076,-3.9247,-3.9986,-4.0394,-3.966,-3.9634,-3.9768,-3.9863,-4.0019,-4.0443,-4.1308,-4.2239,-4.3095,-4.3875,-4.4079,-4.4192,-4.4281,-4.4354,-4.4426,-4.4482,-4.4482,-4.4482,-4.4482,-4.4482,-4.4565,-4.4699,-4.5322,-4.5631,-4.5932,0.0,0.0,0.0,0.0,0.0,-4.1157,-4.0413,-3.9312,0.0,0.0,0.0,0.0,0.0,0.0,0.0,-3.5916,-3.5644,-3.5532,-3.6096,-3.6786,-3.7485,-3.778,-3.8347,-3.9457,-3.8159,-3.7845,0.0,-3.7652,-3.6999,-3.8106,-3.7178,-3.6686,-3.6924,-3.6123,-3.5548,-3.519,-3.4991,-3.4987,-3.5198,-3.5532,-3.5655,-3.5655,-3.6062,-3.6276,-3.6318,-3.6499,-3.6499,-3.6395,-3.6255,-3.6318,-3.6499,-3.6423,-3.6423,-3.6423,-3.6339,-3.6284,-3.6297,-3.6212,-3.6182,-3.6105,-3.6062,-3.6127,-3.6255,-3.6402,-3.6588,-3.6806,-3.6906,-3.7025,-3.7048,-3.7009,-3.6989,-3.697,-3.6946,-3.7145,-3.7294,-3.7064,-3.7169,-3.758,-3.8282,-3.8796,-3.9273,-3.9959,-3.9787,-3.9463,-3.9318,-3.9654,-3.9624,-3.8838,-3.9369,-3.9659,-3.9209,-3.9711,-4.0281,-4.0644,-4.1445,-4.2017,-4.224,-4.2932,-4.3318,-4.3347,-4.406,-4.4468,-4.4482,-4.4482,-4.4482,-4.4482,-4.4482,-4.4565,-4.4699,-4.4818,-4.5204,-4.5697,-4.5355,-4.4751,-4.4348,0.0,0.0,-4.1667,-4.0863,-3.9933,0.0,0.0,0.0,0.0,0.0,0.0,0.0,0.0,-3.7437,-3.658,-3.7206,-3.8028,-3.8664,-3.8734,-3.9071,-3.9893,-3.8387,-3.7814,-3.9037,-3.7543,-3.7047,-3.8135,-3.7941,-3.7645,-3.7278,-3.6447,-3.585,-3.5514,-3.5332,-3.535,-3.5611,-3.5954,-3.6148,-3.6191,-3.6478,-3.6602,-3.6609,-3.6705,-3.6766,-3.6826,-3.6731,-3.6705,-3.6684,-3.6664,-3.6623,-3.6582,-3.6527,-3.6485,-3.6444,-3.6437,-3.6374,-3.6331,-3.631,-3.6318,-3.6423,-3.6568,-3.6731,-3.6891,-3.697,-3.7009,-3.7048,-3.7048,-3.7048,-3.7029,-3.6989,-3.7029,-3.7087,-3.7071,-3.7091,-3.727,-3.7919,-3.8197,-3.8472,-3.9066,-3.8959,-3.881,-3.8862,-3.8978,-3.8928,-3.8501,-3.9014,-3.9249,-3.8907,-3.9616,-4.0156,-4.0288,-4.1111,-4.1609,-4.1609,-4.2476,-4.3011,-4.3011,-4.3962,-4.4482,-4.4482,-4.4482,-4.4496,-4.4537,-4.4496,-4.4496,-4.4537,-4.4578,-4.5016,-4.5317,-4.5146,-4.4562,-4.3741,-4.3077,0.0,-4.1229,-4.0566,-4.0228,-4.0578,0.0,0.0,0.0,0.0,0.0,0.0,0.0,0.0,-3.7864,-3.8473,-3.9279,-3.9727,-3.9779,-3.9755,-3.9671,-3.8707,-3.7792,-3.7216,-3.6838,-3.6793,-3.7115,-3.8224,-3.8415,-3.7498,-3.6745,-3.6272,-3.6076,-3.5675,-3.5655,-3.6084,-3.6276,-3.6485,-3.6725,-3.6725,-3.6766,-3.6811,-3.6811,-3.6871,-3.6989,-3.6989,-3.6906,-3.6725,-3.6806,-3.6766,-3.6705,-3.6786,-3.6745,-3.6684,-3.6684,-3.6623,-3.6561,-3.6643,-3.6623,-3.6568,-3.6731,-3.6891,-3.7009,-3.6989,-3.7119,-3.7196,-3.7126,-3.7161,-3.7232,-3.7083,-3.7029,-3.7068,-3.711,-3.7129,-3.7167,-3.7392,-3.7522,-3.7631,-3.7739,-3.7967,-3.8191,-3.8135,-3.8283,-3.8412,-3.8476,-3.8643,-3.8719,-3.8788,-3.949,-3.9993,-4.0081,-4.0874,-4.1326,-4.1326,-4.2304,-4.2875,-4.2875,-4.3924,-4.4482,-4.4482,-4.4482,-4.4524,-4.4592,-4.4537,-4.444,-4.4333,-4.4622,-4.5101,0.0,0.0,0.0,0.0,-4.424,0.0,-4.3074,-4.3222,-4.3154,0.0,0.0,0.0,0.0,0.0,0.0,0.0,0.0,0.0,0.0,0.0,-4.1589,-4.157,-4.1589,-4.1573,-4.1415,-3.9896,-3.9103,-3.9495,-3.9084,-3.8762,-3.8625,-3.8594,-3.8151,-3.7206,-3.6921,-3.6548,-3.6026,-3.5988,-3.6156,-3.6471,-3.6629,-3.6771,-3.6965,-3.6965,-3.6965,-3.695,-3.695,-3.697,-3.6989,-3.6989,-3.697,-3.6911,-3.6831,-3.6771,-3.6786,-3.6725,-3.6705,-3.6684,-3.6684,-3.6664,-3.6664,-3.6684,-3.6786,-3.6871,-3.6811,-3.693,-3.7087,-3.7009,-3.7525,-3.7921,-3.7267,-3.7662,-3.8074,-3.7399,-3.7279,-3.7336,-3.7354,-3.7354,-3.7392,-3.7522,-3.7577,-3.7667,-3.7915,-3.8017,-3.8152,-3.83,-3.8412,-3.8476,-3.8491,-3.8643,-3.8735,-3.8862,-3.9025,-3.9172,-3.93,-3.9533,-3.9686,-3.9686,-4.1217,-4.2122,-4.2122,-4.3652,-4.4482,-4.4482,-4.4482,-4.4524,-4.4592,-4.4646,-4.4565,-4.442,-4.5321,-4.606,0.0,0.0,0.0,-4.4388,0.0,0.0,0.0,-4.335,-4.3263,-4.2771,0.0,0.0,0.0,0.0,0.0,0.0,0.0,0.0,0.0,0.0,0.0,-4.2588,-4.259,-4.2582,-4.2468,-4.1274,-4.0551,-4.0659,-4.0545,-4.0194,-3.9499,-3.9133,-3.8508,-3.7543,-3.7064,-3.6663,-3.6284,-3.6451,-3.6615,-3.6811,-3.6911,-3.6989,-3.7048,-3.7009,-3.6989,-3.6989,-3.6989,-3.7009,-3.7048,-3.7048,-3.7087,-3.7126,-3.695,-3.6891,-3.6891,-3.6866,-3.6846,-3.6846,-3.6846,-3.6846,-3.6846,-3.6846,-3.693,-3.7048,-3.697,-3.7029,-3.7196,-3.7639,-3.7706,-3.7651,-3.769,-3.7729,-3.7697,-3.7309,-3.7298,-3.7429,-3.7485,-3.754,-3.7613,-3.7775,-3.7845,-3.788,-3.7933,-3.8087,-3.8254,-3.8385,-3.8512,-3.8606,-3.8652,-3.8728,-3.8855,-3.8921,-3.8935,-3.8993,-3.9069,-3.9137,-3.9378,-3.9825,-4.1118,-4.2098,-4.251,-4.3816,-4.4482,-4.4482,-4.4524,-4.4578,-4.4646,-4.4725,-4.4672,-4.4496,-4.5553,-4.6393,0.0,0.0,0.0,0.0,0.0,-4.3372,0.0,0.0,0.0,0.0,0.0,0.0,0.0,0.0,0.0,0.0,0.0,0.0,0.0,0.0,0.0,-4.3779,-4.3844,-4.3855,-4.3731,-4.2836,-4.2033,-4.163,-4.1728,-4.1395,-4.0437,-3.9893,-3.9111,-3.8093,-3.7301,-3.6876,-3.6756,-3.6989,-3.7087,-3.7106,-3.7164,-3.7148,-3.7148,-3.7087,-3.7048,-3.7048,-3.7048,-3.7087,-3.7164,-3.7164,-3.7203,-3.7295,-3.7106,-3.7048,-3.7048,-3.7048,-3.7029,-3.7009,-3.7009,-3.7009,-3.7009,-3.7009,-3.7068,-3.7164,-3.736,-3.727,-3.7325,-3.8235,-3.7925,-3.7404,-3.7996,-3.7787,-3.7418,-3.7241,-3.7373,-3.7522,-3.7631,-3.7721,-3.7828,-3.7984,-3.8051,-3.8121,-3.8019,-3.8207,-3.8352,-3.8496,-3.8606,-3.875,-3.8788,-3.8862,-3.8921,-3.8979,-3.8993,-3.9021,-3.9082,-3.9202,-3.9591,-4.0463,-4.1407,-4.2299,-4.3175,-4.4055,-4.451,-4.451,-4.4578,-4.4659,-4.4751,-4.494,-4.4977,-4.4882,-4.587,-4.6646,0.0,0.0,0.0,0.0,-4.4406,0.0,0.0,0.0,-4.4274,-4.4651,0.0,0.0,0.0,0.0,0.0,0.0,0.0,0.0,0.0,0.0,0.0,-4.6483,-4.6394,-4.6408,-4.639,-4.4786,-4.3636,-4.335,-4.2912,-4.2543,-4.2245,-4.0975,-3.9749,-3.8662,-3.7785,-3.7338,-3.7319,-3.7338,-3.7412,-3.7522,-3.7429,-3.7373,-3.7373,-3.7279,-3.7276,-3.7276,-3.7276,-3.7276,-3.7295,-3.7295,-3.7295,-3.7314,-3.7295,-3.7276,-3.7276,-3.7276,-3.7184,-3.7071,-3.7071,-3.7071,-3.7071,-3.7071,-3.7184,-3.7421,-3.8225,-3.7903,-3.7437,-3.829,-3.847,-3.826,-3.7657,-3.8092,-3.8526,-3.7792,-3.7739,-3.7846,-3.7864,-3.7915,-3.7948,-3.8019,-3.8138,-3.8287,-3.8396,-3.8444,-3.8575,-3.8803,-3.8803,-3.8803,-3.8862,-3.8892,-3.8921,-3.8979,-3.8993,-3.9021,-3.9082,-3.9256,-3.9709,-4.0517,-4.1475,-4.2366,-4.3243,-4.4137,-4.4578,-4.4578,-4.4659,-4.4764,-4.4889,-4.5597,-4.591,-4.5868,-4.6674,-4.7391,0.0,0.0,0.0,0.0,0.0,0.0,-4.4855,0.0,-4.4699,0.0,0.0,0.0,0.0,0.0,0.0,0.0,-4.6881,0.0,0.0,0.0,0.0,0.0,0.0,0.0,-4.7824,-4.7049,-4.6419,-4.6219,-4.535,-4.4443,-4.3587,-4.1898,-4.0394,-3.921,-3.8275,-3.7792,-3.7756,-3.7739,-3.7775,-3.7775,-3.7595,-3.7522,-3.7503,-3.739,-3.7314,-3.7314,-3.7314,-3.7298,-3.7354,-3.7354,-3.7392,-3.7466,-3.7466,-3.7392,-3.7314,-3.7314,-3.7241,-3.7203,-3.7203,-3.7203,-3.7222,-3.7279,-3.7693,-3.8142,-3.7962,-3.8052,-3.823,-3.8493,-3.8244,-3.7962,-3.8161,-3.822,-3.8115,-3.7793,-3.8205,-3.8544,-3.8127,-3.8449,-3.8768,-3.8376,-3.8417,-3.858,-3.8713,-3.8667,-3.8637,-3.8765,-3.8892,-3.8993,-3.9021,-3.9514,-3.9733,-3.9276,-3.9649,-3.9737,-3.933,-3.9797,-4.0499,-4.1309,-4.2718,-4.3686,-4.4025,-4.4431,-4.4646,-4.4592,-4.5162,-4.5493,-4.5558,-4.639,-4.7046,-4.7564,-4.7888,-4.8037,-4.6133,0.0,0.0,0.0,0.0,0.0,0.0,0.0,0.0,0.0,0.0,0.0,0.0,0.0,-4.5758,-4.6183,0.0,-4.7377,0.0,0.0,0.0,0.0,0.0,0.0,0.0,-4.8864,-4.875,-4.861,-4.753,-4.6402,-4.5355,-4.3114,-4.1272,-4.0141,-3.8911,-3.8254,-3.8204,-3.8171,-3.8104,-3.8019,-3.7828,-3.7739,-3.7703,-3.7503,-3.7392,-3.7392,-3.7373,-3.7392,-3.7466,-3.7466,-3.7503,-3.7595,-3.7595,-3.7522,-3.7392,-3.7373,-3.7373,-3.7392,-3.7373,-3.7354,-3.7373,-3.7429,-3.7914,-3.8397,-3.7912,-3.811,-3.8506,-3.8645,-3.8127,-3.7701,-3.8382,-3.8151,-3.7774,-3.7792,-3.84,-3.8791,-3.8297,-3.8707,-3.9097,-3.8638,-3.8658,-3.8765,-3.8862,-3.8825,-3.8765,-3.881,-3.8979,-3.9133,-3.9147,-4.0001,-4.0381,-3.9797,-4.0483,-4.0721,-4.0136,-4.0701,-4.1428,-4.2305,-4.4014,-4.4971,-4.4971,-4.5264,-4.5391,-4.531,-4.5995,-4.6375,-4.6388,-4.7246,-4.8005,-4.864,-4.8596,-4.8555,0.0,0.0,0.0,-4.6096,0.0,0.0,0.0,0.0,-4.4646,0.0,0.0,0.0,0.0,-4.5556,-4.5951,-4.6996,-4.7165,0.0,0.0,0.0,0.0,0.0,0.0,0.0,0.0,-5.0022,-5.0017,0.0,-4.8876,-4.8137,-4.7897,-4.486,-4.2674,-4.1679,-3.9719,-3.8673,-3.8673,-3.8559,-3.8444,-3.8401,-3.8168,-3.8051,-3.8002,-3.7792,-3.7703,-3.7667,-3.7613,-3.7577,-3.7595,-3.7595,-3.7595,-3.7595,-3.7595,-3.7631,-3.7685,-3.7613,-3.7631,-3.7685,-3.7613,-3.7577,-3.7577,-3.7595,-3.7631,-3.7773,-3.8521,-3.8274,-3.79,-3.8688,-3.8384,-3.7881,-3.7917,-3.7969,-3.8036,-3.8068,-3.8188,-3.836,-3.8385,-3.8465,-3.8544,-3.8658,-3.875,-3.8803,-3.8877,-3.8892,-3.8935,-3.9092,-3.9082,-3.911,-3.9202,-4.0042,-4.0606,-4.0568,-4.1322,-4.1863,-4.1825,-4.1944,-4.2461,-4.3391,-4.5014,-4.5957,-4.5957,-4.6792,-4.7208,-4.714,-4.7232,-4.7286,-4.7352,-4.817,-4.8545,-4.8507,-4.8438,-4.8738,0.0,0.0,-4.77,-4.7353,0.0,0.0,0.0,0.0,0.0,0.0,0.0,0.0,0.0,-4.5946,-4.6373,-4.6331,-4.732,-4.8326,0.0,0.0,0.0,0.0,0.0,0.0,0.0,0.0,0.0,0.0,-5.0847,0.0,-4.908,-4.6281,-4.4116,-4.2799,-4.0937,-3.956,-3.878,-3.8689,-3.8575,-3.8444,-3.8303,-3.8171,-3.8051,-3.7931,-3.788,-3.7846,-3.7811,-3.7811,-3.7811,-3.7811,-3.7811,-3.7811,-3.7811,-3.7828,-3.7862,-3.7739,-3.7739,-3.7846,-3.7811,-3.7811,-3.7811,-3.7811,-3.8187,-3.8618,-3.8277,-3.8456,-3.8706,-3.8401,-3.8165,-3.8036,-3.8036,-3.8121,-3.8188,-3.8221,-3.8687,-3.9187,-3.9305,-3.9301,-3.9365,-3.9543,-3.9239,-3.895,-3.9036,-3.9579,-3.9807,-3.9208,-3.973,-4.0037,-3.9474,-4.0715,-4.1431,-4.0866,-4.2096,-4.2736,-4.2134,-4.2662,-4.3642,-4.5064,-4.5746,-4.6301,-4.683,-4.7238,-4.7365,-4.7284,-4.7826,-4.8143,-4.8183,-4.8971,-4.9334,-4.9339,-4.9268,-4.9213,-4.8679,-4.8751,0.0,-4.7887,-4.7932,0.0,-4.7226,0.0,-4.729,0.0,0.0,0.0,0.0,0.0,-4.6793,-4.6795,-4.7256,-4.7856,0.0,-5.0252,0.0,0.0,0.0,0.0,0.0,0.0,0.0,-5.2332,-5.1951,-5.1048,0.0,-4.6846,-4.4715,-4.3118,-4.1142,-3.9727,-3.8862,-3.881,-3.8735,-3.8621,-3.8449,-3.8336,-3.8234,-3.8154,-3.807,-3.8038,-3.7967,-3.795,-3.7951,-3.7951,-3.7951,-3.7951,-3.7916,-3.8003,-3.8087,-3.7863,-3.7828,-3.7951,-3.7951,-3.7951,-3.7951,-3.7899,-3.8258,-3.8635,-3.8113,-3.838,-3.8826,-3.8591,-3.8389,-3.8274,-3.8564,-3.8489,-3.832,-3.8352,-3.8802,-3.9305,-3.9731,-3.9617,-3.9512,-3.9991,-3.9548,-3.912,-3.9219,-4.0061,-4.0512,-3.9751,-4.0534,-4.1003,-4.0452,-4.1682,-4.241,-4.187,-4.3102,-4.3744,-4.3202,-4.3718,-4.4638,-4.6038,-4.6417,-4.6973,-4.7806,-4.82,-4.8326,-4.818,-4.8737,-4.8988,-4.8985,-4.9485,-4.9736,-4.9721,-4.9707,-4.958]},{"header":{"parameterUnit":"m.s-1","parameterCategory":1,"la1":30.6,"la2":29.2853,"lo1":-89.7004,"lo2":-87.6739,"dy":0.0162,"dx":0.0183,"nx":112,"ny":82,"refTime":"2024-02-11T06:00:00:Z","depth":0,"parameterNumber":3,"parameterNumberName":"V-component_of_WINDS"},"data":[0.0,0.0,0.0,0.0,0.0,0.0,0.0,0.0,0.0,0.0,0.0,0.0,0.0,0.0,0.0,0.0,0.0,0.0,0.0,0.0,0.0,0.0,0.0,0.0,0.0,0.0,0.0,0.0,0.0,0.0,0.0,0.0,0.0,0.0,0.0,0.0,0.0,0.0,0.0,0.0,0.0,0.0,0.0,0.0,0.0,0.0,0.0,0.0,0.0,0.0,0.0,0.0,0.0,0.0,0.0,0.0,0.0,0.0,0.0,0.0,0.0,0.0,0.0,0.0,0.0,0.0,0.0,0.0,0.0,0.0,0.0,0.0,0.0,0.0,0.0,0.0,0.0,0.0,0.0,0.0,0.0,0.0,0.0,0.0,0.0,0.0,0.0,0.0,0.0,0.0,1.3952,1.5221,1.5767,1.5861,1.558,1.4835,1.3404,1.1118,0.0,0.0,0.0,0.0,0.0,0.0,0.0,0.0,0.0,0.0,0.0,0.0,0.0,0.0,0.0,0.0,0.0,0.0,0.0,0.0,0.0,0.0,0.0,0.0,0.0,0.0,0.0,0.0,0.0,0.0,0.0,0.0,0.0,0.0,0.0,0.0,0.0,0.0,0.0,0.0,0.0,0.0,0.0,0.0,0.0,0.0,0.0,0.0,0.0,0.0,0.0,0.0,0.0,0.0,0.0,0.0,0.0,0.0,0.0,0.0,0.0,0.0,0.0,0.0,0.0,0.0,0.0,0.0,0.0,0.0,0.0,0.0,0.0,0.0,0.0,0.0,0.0,0.0,0.0,0.0,0.0,0.0,0.0,0.0,0.0,0.0,0.0,0.0,0.0,0.0,0.0,0.0,0.0,0.0,0.0,0.0,0.0,0.0,0.0,0.0,0.0,0.0,0.0,0.0,1.4041,1.5923,1.6057,1.5905,1.5691,1.4836,1.3243,1.0659,0.0,0.0,0.0,0.0,0.0,0.0,0.0,0.0,0.0,0.0,0.0,0.0,0.0,0.0,0.0,0.0,0.0,0.0,0.0,0.0,0.0,0.0,0.0,0.0,0.0,0.0,0.0,0.0,0.0,0.0,0.0,0.0,0.0,0.0,0.0,0.0,0.0,0.0,0.0,0.0,0.0,0.0,0.0,0.0,0.0,0.0,0.0,0.0,0.0,0.0,0.0,0.0,0.0,0.0,0.0,0.0,0.0,0.0,0.0,0.0,0.0,0.0,0.0,0.0,0.0,0.0,0.0,0.0,0.0,0.0,0.0,0.0,0.0,0.0,0.0,0.0,0.0,0.0,0.0,0.0,0.0,0.0,0.0,0.0,0.0,0.0,0.0,0.0,0.0,0.0,0.0,0.0,0.0,0.0,0.0,0.0,0.0,0.0,0.0,0.0,0.0,0.0,0.0,1.476,1.5818,1.6829,1.6664,1.6405,1.6204,1.532,1.3864,1.1748,1.0159,0.0,0.0,0.0,0.0,0.0,0.0,0.0,0.0,0.0,0.0,0.0,0.0,0.0,0.0,0.0,0.0,0.0,0.0,0.0,0.0,0.0,0.0,0.0,0.0,0.0,0.0,0.0,0.0,0.0,0.0,0.0,0.0,0.0,0.0,0.0,0.0,0.0,0.0,0.0,0.0,0.0,0.0,0.0,0.0,0.0,0.0,0.0,0.0,0.0,0.0,0.0,0.0,0.0,0.0,0.0,0.0,0.0,0.0,0.0,0.0,0.0,0.0,0.0,0.0,0.0,0.0,0.0,0.0,0.0,0.0,0.0,0.0,0.0,0.0,0.0,0.0,0.0,0.0,0.0,0.0,0.0,0.0,0.0,0.0,0.0,0.0,0.0,0.0,0.0,0.0,0.0,0.0,0.0,0.0,0.0,0.0,0.0,0.0,0.0,0.0,0.0,0.0,1.6297,1.7332,1.7531,1.7153,1.6812,1.6628,1.5659,1.4312,1.2494,1.0701,0.0,0.0,0.0,0.0,0.0,0.0,0.0,0.0,0.0,0.0,0.0,0.0,0.0,0.0,0.0,0.0,0.0,0.0,0.0,0.0,0.0,0.0,0.0,0.0,0.0,0.0,0.0,0.0,0.0,0.0,0.0,0.0,0.0,0.0,0.0,0.0,0.0,0.0,0.0,0.0,0.0,0.0,0.0,0.0,0.0,0.0,0.0,0.0,0.0,0.0,0.0,0.0,0.0,0.0,0.0,0.0,0.0,0.0,0.0,0.0,0.0,0.0,0.0,0.0,0.0,0.0,0.0,0.0,0.0,0.0,0.0,0.0,0.0,0.0,0.0,0.0,0.0,0.0,0.0,0.0,0.0,0.0,0.0,0.0,0.0,0.0,0.0,0.0,0.0,0.0,0.0,0.0,0.0,0.0,0.0,0.0,0.0,0.0,0.0,0.0,0.0,0.0,1.6525,1.7511,1.7673,1.72,1.6829,1.661,1.5458,1.3863,1.1785,1.0426,0.0,0.0,0.0,0.0,0.0,0.0,0.0,0.0,0.0,0.0,0.0,0.0,0.0,0.0,0.0,0.0,0.0,0.0,0.0,0.0,0.0,0.0,0.0,0.0,0.0,0.0,0.0,0.0,0.0,0.0,0.0,0.0,0.0,0.0,0.0,0.0,0.0,0.0,0.0,0.0,0.0,0.0,0.0,0.0,0.0,0.0,0.0,0.0,0.0,0.0,0.0,0.0,0.0,0.0,0.0,0.0,0.0,0.0,0.0,0.0,0.0,0.0,0.0,0.0,0.0,0.0,0.0,0.0,0.0,0.0,0.0,0.0,0.0,0.0,0.0,0.0,0.0,0.0,0.0,0.0,0.0,0.0,0.0,0.0,0.0,0.0,0.0,0.0,0.0,0.0,0.0,0.0,0.0,0.0,0.0,0.0,0.0,0.0,0.0,0.0,0.0,0.0,1.6682,1.7655,0.0,1.7831,1.7517,1.7302,1.6523,1.5001,1.2463,0.0,0.0,0.0,0.0,0.0,0.0,0.0,0.0,0.0,0.0,0.0,0.0,0.0,0.0,0.0,0.0,0.0,0.0,0.0,0.0,0.0,0.0,0.0,0.0,0.0,0.0,0.0,0.0,0.0,0.0,0.0,0.0,0.0,0.0,0.0,0.0,0.0,0.0,0.0,0.0,0.0,0.0,0.0,0.0,0.0,0.0,0.0,0.0,0.0,0.0,0.0,0.0,0.0,0.0,0.0,0.0,0.0,0.0,0.0,0.0,0.0,0.0,0.0,0.0,0.0,0.0,0.0,0.0,0.0,0.0,0.0,0.0,0.0,0.0,0.0,0.0,0.0,0.0,0.0,0.0,0.0,0.0,0.0,0.0,0.0,0.0,0.0,0.0,0.0,0.0,0.0,0.0,0.0,0.0,0.0,0.0,0.0,0.0,0.0,0.0,0.0,0.0,1.5843,1.7113,1.8076,0.0,1.8448,1.8226,1.792,1.7226,1.5735,1.3284,0.0,0.0,0.0,0.0,0.0,0.0,0.0,0.0,0.0,0.0,0.0,0.0,0.0,0.0,0.0,0.0,0.0,0.0,0.0,0.0,0.0,0.0,0.0,0.0,0.0,0.0,0.0,0.0,0.0,0.0,0.0,0.0,0.0,0.0,0.0,0.0,0.0,0.0,0.0,0.0,0.0,0.0,0.0,0.0,0.0,0.0,0.0,0.0,0.0,0.0,0.0,0.0,0.0,0.0,0.0,0.0,0.0,0.0,0.0,0.0,0.0,0.0,0.0,0.0,0.0,0.0,0.0,0.0,0.0,0.0,0.0,0.0,0.0,0.0,0.0,0.0,0.0,0.0,0.0,0.0,0.0,0.0,0.0,0.0,0.0,0.0,0.0,0.0,0.0,0.0,0.0,0.0,0.0,0.0,0.0,0.0,0.0,0.0,0.0,0.0,0.0,0.0,1.6399,1.7901,1.8798,1.8798,1.8998,1.8898,1.8361,1.7278,1.5885,0.0,0.0,0.0,0.0,0.0,0.0,0.0,0.0,0.0,0.0,0.0,0.0,0.0,0.0,0.0,0.0,0.0,0.0,0.0,0.0,0.0,0.0,0.0,0.0,0.0,0.0,0.0,0.0,0.0,0.0,0.0,0.0,0.0,0.0,0.0,0.0,0.0,0.0,0.0,0.0,0.0,0.0,0.0,0.0,0.0,0.0,0.0,0.0,0.0,0.0,0.0,0.0,0.0,0.0,0.0,0.0,0.0,0.0,0.0,0.0,0.0,0.0,0.0,0.0,0.0,0.0,0.0,0.0,0.0,0.0,0.0,0.0,0.0,0.0,0.0,0.0,0.0,0.0,0.0,0.0,0.0,0.0,0.0,0.0,0.0,0.0,0.0,0.0,0.0,0.0,0.0,0.0,0.0,0.0,0.0,0.0,0.0,0.0,0.0,0.0,0.0,0.0,0.0,1.68,1.822,1.9309,1.9671,1.9922,1.9835,1.9375,1.8622,1.7445,1.5803,0.0,0.0,0.0,0.0,0.0,0.0,0.0,0.0,0.0,0.0,0.0,0.0,0.0,0.0,0.0,0.0,0.0,0.0,0.0,0.0,0.0,0.0,0.0,0.0,0.0,0.0,0.0,0.0,0.0,0.0,0.0,0.0,0.0,0.0,0.0,0.0,0.0,0.0,0.0,0.0,0.0,0.0,0.0,0.0,0.0,0.0,0.0,0.0,0.0,0.0,0.0,0.0,0.0,0.0,0.0,0.0,0.0,0.0,0.0,0.0,0.0,0.0,0.0,0.0,0.0,0.0,0.0,0.0,0.0,0.0,0.0,0.0,0.0,0.0,0.0,0.0,0.0,0.0,0.0,0.0,0.0,0.0,0.0,0.0,0.0,0.0,0.0,0.0,0.0,0.0,0.0,0.0,0.0,0.0,0.0,0.0,0.0,0.0,0.0,0.0,0.0,0.0,1.7124,1.8721,1.9868,2.0183,2.0571,2.0549,1.9966,1.9474,1.8573,1.7127,0.0,0.0,0.0,0.0,0.0,0.0,0.0,0.0,0.0,0.0,0.0,0.0,0.0,0.0,0.0,0.0,0.0,0.0,0.0,0.0,0.0,0.0,0.0,0.0,0.0,0.0,0.0,0.0,0.0,0.0,0.0,0.0,0.0,0.0,0.0,0.0,0.0,0.0,0.0,0.0,0.0,0.0,0.0,0.0,0.0,0.0,0.0,0.0,0.0,0.0,0.0,0.0,0.0,0.0,0.0,0.0,0.0,0.0,0.0,0.0,0.0,0.0,0.0,0.0,0.0,0.0,0.0,0.0,0.0,0.0,0.0,0.0,0.0,0.0,0.0,0.0,0.0,0.0,0.0,0.0,0.0,0.0,0.0,0.0,0.0,0.0,0.0,0.0,0.0,0.0,0.0,0.0,0.0,0.0,0.0,0.0,0.0,0.0,0.0,0.0,0.0,0.0,1.75,1.9307,2.0474,2.0496,2.1083,2.1123,2.0291,2.0031,1.9414,1.8274,0.0,0.0,0.0,0.0,0.0,0.0,0.0,0.0,0.0,0.0,0.0,0.0,0.0,0.0,0.0,0.0,0.0,0.0,0.0,0.0,0.0,0.0,0.0,0.0,0.0,0.0,0.0,0.0,0.0,0.0,0.0,0.0,0.0,0.0,0.0,0.0,0.0,0.0,0.0,0.0,0.0,0.0,0.0,0.0,0.0,0.0,0.0,0.0,0.0,0.0,0.0,0.0,0.0,0.0,0.0,0.0,0.0,0.0,0.0,0.0,1.397,0.0,0.0,0.0,0.0,0.0,0.0,0.0,0.0,0.0,0.0,0.0,0.0,0.0,0.0,0.0,0.0,0.0,0.0,0.0,0.0,0.0,0.0,0.0,0.0,0.0,0.0,0.0,0.0,0.0,0.0,0.0,0.0,0.0,0.0,0.0,0.0,0.0,0.0,0.0,0.0,0.0,1.8071,1.98,2.0996,2.1178,2.1706,2.18,2.1155,2.086,2.0462,1.9911,1.8247,0.0,0.0,0.0,0.0,0.0,0.0,0.0,0.0,0.0,0.0,0.0,0.0,0.0,0.0,0.0,0.0,0.0,0.0,0.0,0.0,0.0,0.0,0.0,0.0,0.0,0.0,0.0,0.0,0.0,0.0,0.0,0.0,0.0,0.0,0.0,0.0,0.0,0.0,0.0,0.0,0.0,0.0,0.0,0.0,0.0,0.0,0.0,0.0,0.0,0.0,0.0,0.0,0.0,0.0,0.0,0.0,0.0,0.0,0.0,0.0,1.5955,0.0,0.0,0.0,0.0,0.0,0.0,0.0,0.0,0.0,0.0,0.0,0.0,0.0,0.0,0.0,0.0,0.0,0.0,0.0,0.0,0.0,0.0,0.0,0.0,0.0,0.0,0.0,0.0,0.0,0.0,0.0,0.0,0.0,0.0,0.0,0.0,0.0,0.0,0.0,0.0,1.8552,2.0268,2.1431,2.1526,2.208,2.2204,2.1588,2.1565,2.1439,2.1028,1.9802,0.0,0.0,0.0,0.0,0.0,0.0,0.0,0.0,0.0,0.0,0.0,0.0,0.0,0.0,0.0,0.0,0.0,0.0,0.0,0.0,0.0,0.0,0.0,0.0,0.0,0.0,0.0,0.0,0.0,0.0,0.0,0.0,0.0,0.0,0.0,0.0,0.0,0.0,0.0,0.0,0.0,0.0,0.0,0.0,0.0,0.0,0.0,0.0,0.0,0.0,0.0,0.0,0.0,2.1911,2.1753,2.1878,2.1967,2.1947,2.1749,1.9922,1.8675,1.7989,1.7387,0.0,0.0,0.0,0.0,0.0,0.0,0.0,0.0,0.0,0.0,0.0,0.0,0.0,0.0,0.0,0.0,0.0,0.0,0.0,0.0,0.0,0.0,0.0,0.0,2.168,2.1185,1.7943,0.0,0.0,0.0,0.0,0.0,0.0,0.0,0.0,0.0,0.0,0.0,1.9072,2.0796,2.1895,2.1769,2.2297,2.2451,2.1839,2.218,2.2211,2.1745,2.106,2.0006,0.0,0.0,0.0,0.0,0.0,0.0,0.0,0.0,0.0,0.0,0.0,0.0,0.0,0.0,0.0,0.0,0.0,0.0,0.0,0.0,0.0,0.0,0.0,0.0,0.0,0.0,0.0,0.0,0.0,0.0,0.0,0.0,1.8571,1.8939,0.0,0.0,0.0,0.0,0.0,0.0,0.0,0.0,0.0,0.0,0.0,0.0,0.0,2.3247,2.2445,2.3223,2.3302,2.2662,2.3607,2.3637,2.2918,2.337,2.3216,2.2558,2.2604,0.0,2.0896,2.032,0.0,0.0,0.0,0.0,0.0,0.0,0.0,0.0,0.0,0.0,0.0,0.0,0.0,0.0,0.0,0.0,0.0,0.0,0.0,0.0,0.0,0.0,2.2705,2.329,2.348,2.3366,0.0,2.1219,2.0015,2.012,1.9408,0.0,0.0,0.0,0.0,0.0,0.0,0.0,2.0051,2.1667,2.2575,2.1941,2.2359,2.2567,2.2166,2.2297,2.2266,2.1894,2.1242,2.0494,1.9705,1.889,0.0,0.0,0.0,0.0,0.0,0.0,0.0,0.0,0.0,0.0,0.0,0.0,0.0,0.0,0.0,0.0,0.0,0.0,0.0,0.0,0.0,0.0,0.0,0.0,0.0,0.0,0.0,0.0,0.0,1.8933,1.9262,2.031,2.0463,2.0827,0.0,0.0,0.0,0.0,0.0,0.0,0.0,0.0,0.0,2.4036,2.4613,2.4747,2.4391,2.456,2.4526,2.4324,2.4456,2.4355,2.4093,2.4494,2.448,2.4183,2.4664,2.4702,2.4294,2.2601,2.1761,2.1481,0.0,0.0,0.0,0.0,1.9858,2.059,2.0737,2.1011,2.132,2.1137,0.0,0.0,0.0,0.0,0.0,0.0,0.0,0.0,0.0,0.0,2.4643,2.4755,2.5028,2.5317,2.5452,2.4623,2.3444,0.0,2.1868,2.1498,2.0028,0.0,0.0,0.0,0.0,2.142,2.1261,2.2329,2.2959,2.2559,2.2708,2.2665,2.2328,2.2604,2.2635,2.2204,2.1831,2.1296,2.0474,1.9671,1.8248,0.0,0.0,0.0,0.0,0.0,0.0,0.0,0.0,0.0,0.0,0.0,0.0,0.0,0.0,0.0,0.0,0.0,0.0,0.0,0.0,0.0,0.0,0.0,0.0,0.0,0.0,0.0,0.0,1.9828,2.0338,2.1822,2.2119,2.2507,0.0,0.0,0.0,0.0,0.0,0.0,2.4519,2.4957,2.5276,2.5441,2.5746,2.5847,2.5827,2.5477,2.5375,2.5516,2.5016,2.4906,2.5206,2.5512,2.5712,2.583,2.6306,2.6699,2.6903,2.4619,2.3695,2.3629,2.2502,2.2241,2.2457,2.2104,2.2489,2.3327,2.4001,2.4398,2.455,2.4491,2.4223,2.3746,2.2891,0.0,0.0,0.0,0.0,2.3664,2.3885,2.511,2.6211,2.608,2.6375,2.6756,2.7061,2.6926,2.6114,0.0,2.3904,2.3822,2.2144,0.0,0.0,0.0,0.0,2.282,2.2504,2.3047,2.3369,2.3023,2.2923,2.2787,2.2482,2.2909,2.3,2.2512,2.2235,2.1769,2.0924,2.0248,1.9022,1.7276,0.0,0.0,0.0,0.0,0.0,0.0,0.0,0.0,0.0,0.0,0.0,0.0,0.0,0.0,0.0,0.0,0.0,0.0,0.0,0.0,0.0,0.0,0.0,0.0,0.0,0.0,0.0,0.0,0.0,2.3676,2.4297,0.0,0.0,0.0,0.0,2.4759,2.5507,2.5881,2.5619,2.6231,2.6611,2.6611,2.6645,2.6324,2.5603,2.5787,2.5684,2.5326,2.5477,2.5813,2.6323,2.6528,2.6858,2.7236,2.7409,2.7767,2.801,2.6408,2.5577,2.5252,2.4778,2.4653,2.4779,2.5068,2.5524,2.603,2.6193,2.6183,2.6114,2.6252,2.5707,2.5148,2.5778,2.4653,0.0,0.0,2.5384,2.5056,2.6214,2.6892,2.7222,2.7229,2.733,2.7456,2.7456,2.7623,2.7347,0.0,2.5401,2.47,2.3993,0.0,2.3479,2.3205,2.4198,2.4646,2.3827,2.4009,2.3937,2.3103,2.2923,2.2848,2.272,2.312,2.318,2.272,2.218,2.162,2.0924,2.0377,1.9639,1.869,1.8435,0.0,0.0,0.0,0.0,0.0,0.0,0.0,0.0,0.0,0.0,0.0,0.0,0.0,0.0,0.0,0.0,0.0,0.0,0.0,0.0,0.0,0.0,0.0,0.0,0.0,0.0,0.0,0.0,2.4821,2.5188,0.0,2.633,2.6311,2.6271,2.6231,2.651,2.6569,2.6367,2.6578,2.6645,2.6568,2.6568,2.6467,2.6197,2.6611,2.6472,2.5881,2.6156,2.6489,2.6805,2.7077,2.7705,2.8612,2.9026,2.9366,2.9515,2.8099,2.7254,2.6726,2.6089,2.5996,2.6274,2.6334,2.6598,2.6952,2.7196,2.7154,2.6918,2.6952,2.6688,2.6358,2.6629,2.6401,2.6114,2.6578,2.6832,2.6893,2.6606,2.7137,2.771,2.7314,2.7558,2.7947,2.8151,2.8085,2.7795,2.7088,2.6862,2.6472,2.5393,2.5355,2.5246,2.4664,2.5161,2.5403,2.4829,2.4904,2.4797,2.4235,2.3626,2.3175,2.2924,2.28,2.2335,2.1334,2.1587,2.1174,1.9849,2.0126,1.9511,1.7803,1.7572,1.6514,0.0,0.0,0.0,0.0,0.0,0.0,0.0,0.0,0.0,0.0,0.0,0.0,0.0,0.0,0.0,0.0,0.0,0.0,0.0,0.0,0.0,0.0,0.0,0.0,0.0,0.0,2.4198,2.5773,2.6375,2.6798,2.7216,2.737,2.7438,2.7464,2.7532,2.7498,2.7267,2.7199,2.7198,2.7262,2.7085,2.6949,2.688,2.7329,2.7258,2.6661,2.6937,2.732,2.7748,2.8025,2.8749,2.9818,3.0215,3.0342,3.0197,2.9061,2.8237,2.7589,2.6408,2.6298,2.6765,2.6411,2.6598,2.7053,2.7556,2.7556,2.739,2.7549,2.7449,2.7281,2.7281,2.7456,2.7649,2.7348,2.7689,2.8005,2.7222,2.7597,2.8071,2.7675,2.7851,2.8091,2.8136,2.8115,2.7925,2.7439,2.7333,2.7032,2.6224,2.6174,2.6149,2.5812,2.6055,2.6147,2.5719,2.5535,2.5277,2.4964,2.4255,2.3715,2.3458,2.2834,2.2036,2.1066,2.1237,2.0733,1.9334,1.9671,1.9061,1.7239,1.7075,1.6244,1.4737,0.0,0.0,0.0,0.0,0.0,0.0,0.0,0.0,0.0,0.0,0.0,0.0,0.0,0.0,0.0,0.0,0.0,0.0,0.0,0.0,0.0,0.0,0.0,2.2682,2.4213,2.5585,2.6629,2.7884,2.8591,2.8394,2.8667,2.8728,2.842,2.8584,2.8584,2.8412,2.8205,2.8289,2.8677,2.8174,2.7787,2.7576,2.7954,2.7954,2.7601,2.7737,2.8324,2.92,2.9411,2.9931,3.0698,3.0898,3.0634,3.0048,2.9304,2.8557,2.7729,2.5893,2.5667,2.633,2.55,2.575,2.6577,2.7315,2.7549,2.759,2.798,2.798,2.7822,2.7822,2.7921,2.8046,2.7855,2.8026,2.8254,2.8254,2.8254,2.8254,2.8287,2.8183,2.7919,2.7365,2.7685,2.7893,2.7307,2.672,2.6321,2.6414,2.6184,2.6153,2.6663,2.685,0.0,2.6449,2.5827,2.5369,2.5157,2.4764,2.4476,2.4345,2.321,2.2359,2.2002,2.1205,2.0343,1.946,1.922,1.8519,1.7278,1.7193,1.6649,1.562,0.0,0.0,0.0,0.0,0.0,0.0,0.0,0.0,0.0,0.0,0.0,0.0,0.0,0.0,0.0,0.0,0.0,0.0,0.0,0.0,0.0,2.2685,2.3726,2.4521,2.5519,2.6411,2.7204,2.7847,2.8119,2.7758,2.796,2.8144,2.8187,2.8213,2.8317,2.8411,2.8062,2.8017,2.8279,2.7881,2.7576,2.74,2.8222,2.8222,2.74,2.8038,2.8675,2.92,2.9113,2.9668,3.0672,3.0146,2.9973,2.9986,2.8721,2.823,2.817,2.7105,2.6756,2.6901,2.7472,2.802,2.8456,2.8658,2.8432,2.8091,2.8216,2.8052,2.7822,2.7954,2.7848,2.7656,2.759,2.753,2.7497,2.7556,2.7556,2.7597,2.7861,2.7921,2.7835,2.7676,2.7782,2.7769,2.7347,2.6811,2.6576,2.7282,2.6785,2.646,2.7051,2.6619,0.0,2.6595,2.6451,2.6282,2.6077,2.5636,2.5245,2.4911,2.3741,2.2558,2.1549,2.1664,2.1234,2.0028,2.0831,2.0487,1.8771,1.7096,1.6166,0.0,0.0,0.0,0.0,0.0,0.0,0.0,0.0,0.0,0.0,0.0,0.0,0.0,0.0,0.0,0.0,0.0,0.0,0.0,0.0,0.0,0.0,2.3815,2.475,2.6022,2.6704,2.7255,2.7694,2.847,2.8828,2.8621,2.8595,2.8682,2.8808,2.8727,2.8636,2.8522,2.8431,2.8388,2.8448,2.8402,2.8286,2.7971,2.9012,2.9086,2.8225,2.8888,2.9467,2.9844,2.9693,3.0061,3.0785,3.0223,2.9884,2.9574,2.8615,2.8118,0.0,0.0,0.0,0.0,0.0,2.8821,2.9029,2.927,2.8939,2.8492,2.863,2.8272,2.7822,2.7921,2.7789,2.759,2.7456,2.749,2.753,2.7523,2.7423,2.7311,2.7341,2.7223,2.6994,2.6524,2.6785,2.7006,2.655,2.6495,0.0,2.7471,2.6921,2.6543,2.6976,2.6704,2.656,2.679,2.6841,2.6807,2.6645,2.6265,2.5795,2.5335,2.4124,0.0,0.0,0.0,2.1642,2.0291,2.0512,0.0,0.0,0.0,1.7446,1.7656,1.8208,0.0,0.0,1.6683,1.669,0.0,0.0,0.0,0.0,0.0,0.0,0.0,0.0,0.0,0.0,0.0,0.0,0.0,0.0,0.0,0.0,2.4904,2.5394,2.7045,2.7721,2.802,2.8101,2.9175,2.9923,2.9923,2.9751,2.9667,2.9718,2.956,2.9269,2.8835,0.0,0.0,0.0,0.0,2.9262,2.8888,2.9859,3.0049,2.9448,2.9885,3.0279,3.0622,3.0622,3.0736,3.0861,3.062,2.9999,2.9077,2.8846,2.8263,2.7444,2.6215,2.6671,2.8132,2.8692,2.8898,2.896,2.9504,0.0,0.0,2.9127,2.8565,2.7822,2.7822,2.7756,2.7623,2.7323,2.7523,2.7762,2.7689,2.749,2.7226,2.6798,2.6465,2.5986,2.4961,2.555,2.6081,2.5537,2.6095,2.6782,2.7146,2.6801,2.6521,2.6739,2.7053,2.7214,2.7045,2.7011,2.7011,2.6977,0.0,0.0,2.5636,2.4499,2.346,2.2707,2.2488,2.1878,2.0729,1.9533,1.8628,1.8144,1.9066,1.9701,2.0034,2.1011,2.1463,2.1408,1.9615,1.9436,0.0,0.0,0.0,0.0,0.0,0.0,0.0,0.0,0.0,0.0,0.0,0.0,0.0,0.0,0.0,2.4826,2.5731,2.6533,2.7223,2.8116,2.8566,2.8169,2.8563,2.8903,2.8903,2.8841,2.8974,2.9286,2.9274,2.934,2.9567,2.9328,2.9315,2.9603,2.9378,2.915,2.8888,2.958,2.9669,2.9262,0.0,0.0,3.0241,3.0241,3.0241,3.0228,2.9731,2.9659,2.9865,2.9181,2.9012,2.9092,2.8178,2.8577,2.9689,3.0154,3.0207,3.0171,3.0744,3.015,2.9161,2.9369,2.8698,2.7822,2.8013,2.749,0.0,2.7053,2.6816,2.6568,2.6739,2.6602,2.6474,2.6655,2.6663,2.6544,2.6316,2.6443,2.6536,2.6333,2.6417,2.6568,2.6636,2.6637,2.679,2.7289,2.718,2.7113,2.7248,2.7248,2.718,2.7011,2.6943,2.6544,2.5669,2.5278,2.4648,2.3748,2.3295,2.3034,2.3041,2.1888,2.1267,2.1306,2.1115,2.1143,2.1479,2.1721,2.18,2.18,2.1023,2.0673,0.0,0.0,0.0,0.0,0.0,0.0,0.0,0.0,0.0,0.0,0.0,2.343,2.3717,0.0,2.5276,2.578,2.6384,2.7005,2.7562,2.8213,2.8612,2.8656,2.9054,2.9411,2.9497,2.9411,2.9389,2.9479,2.9505,2.9467,2.9352,2.9467,2.9467,2.9352,2.9543,2.9479,2.9136,2.9667,2.9897,2.9782,3.0012,3.0203,3.0394,3.0508,3.0508,3.0368,3.0086,2.9965,2.9913,2.9376,2.9502,2.9953,2.9556,2.9686,3.0173,3.0755,3.0887,3.0777,3.1143,3.0628,2.9784,2.9594,2.8883,2.8058,2.7861,2.7382,2.6875,2.685,2.6645,2.6465,2.6499,2.643,2.6321,2.619,2.6148,2.6097,2.582,2.5971,2.6114,2.6072,2.6298,2.6533,2.6602,2.6645,2.6782,2.7053,2.7146,2.718,2.7315,2.7382,2.7348,2.718,2.6822,2.6373,2.5802,2.5261,2.4937,2.4803,2.3718,2.3228,2.3476,2.2484,2.1914,2.1946,2.1847,2.1894,2.2049,2.2049,2.1956,2.1769,2.1454,2.1146,0.0,0.0,0.0,0.0,0.0,0.0,0.0,0.0,2.2839,2.3143,2.4105,2.4944,2.5027,2.5707,2.6359,2.6688,2.6892,2.7182,2.7668,2.7951,2.8357,2.89,2.9555,3.0024,3.0216,3.0101,2.9972,2.9804,2.9804,2.954,2.9025,2.9451,2.9501,2.895,2.9605,2.9793,2.9419,2.9831,3.0139,3.0406,3.0368,3.0444,3.0698,3.0887,3.0849,3.066,3.0736,3.0451,3.0021,2.9797,3.0056,3.0623,3.055,3.0414,3.043,3.1051,3.1161,3.1048,3.131,3.086,3.0128,2.9689,2.8917,2.809,2.7613,2.7248,2.6977,2.6807,2.6714,2.6679,2.6636,2.6568,2.6408,2.5929,2.5829,2.5761,2.5234,2.5493,2.5795,2.5762,2.6172,2.6533,2.6645,2.6679,2.6714,2.6748,2.7079,2.7315,2.7315,2.739,2.739,2.7281,2.6668,2.6245,2.6021,2.5086,2.483,2.5662,2.4183,2.3293,2.3394,2.2494,2.1918,2.1698,2.2011,2.2166,2.2197,2.2166,2.2011,2.173,2.1611,2.1366,1.9467,1.8989,1.9136,2.04,2.0991,2.1534,0.0,0.0,2.4386,2.4253,2.5553,2.6538,2.6058,2.6417,2.6815,2.6876,2.7119,2.721,2.6822,2.7191,2.7666,2.818,2.898,2.9496,2.9496,2.9715,2.9818,2.9804,2.9804,2.9677,2.9383,2.9394,2.9316,2.9071,2.9355,2.9457,2.9419,2.9702,3.0011,3.0406,3.0216,3.0356,3.0698,3.0736,3.0596,3.0444,3.0785,3.091,3.0895,3.104,3.1251,3.1442,3.1082,3.1044,3.1193,3.1283,3.1161,3.1075,3.1633,3.0804,2.9459,2.9706,2.8697,2.7426,2.7348,2.718,2.6977,2.6977,2.6841,2.6714,2.6909,2.6807,2.6679,2.6603,2.6705,2.6739,2.6391,2.6451,2.6535,2.6433,2.6449,2.6499,2.6533,2.6611,2.6748,2.6943,2.7146,2.7315,2.7315,2.7315,2.7248,2.7045,2.6824,2.6603,2.6433,2.5245,2.4988,2.607,2.4885,2.4024,2.3751,2.2826,2.2145,2.1698,2.1831,2.2018,2.2197,2.2018,2.1894,2.1886,2.2016,2.1606,1.9606,1.9265,1.9472,2.0309,2.1115,2.1961,2.3106,2.3995,2.4681,2.513,2.5816,2.632,2.6232,2.6556,2.6894,0.0,2.7254,2.738,2.7094,2.7174,2.7237,2.7234,2.7821,2.8607,2.9535,2.9599,2.956,2.956,2.956,2.9521,2.9419,2.9263,2.9248,2.9263,2.9248,2.9263,2.9419,2.9404,2.9677,3.0216,3.0164,3.0203,3.0356,3.0584,3.066,3.0584,3.0773,3.0887,3.1011,3.1086,3.1235,3.141,3.0999,3.0962,3.1123,3.1123,3.1048,3.0973,3.1011,3.0414,2.9512,2.9103,2.842,2.7695,2.7393,2.748,2.7559,2.7283,2.7276,2.7352,2.708,2.6943,2.6875,2.6875,2.6943,2.6943,2.6645,2.6645,2.6645,2.6533,2.6499,2.6499,2.6499,2.6568,2.6636,2.6807,2.7113,2.7315,2.7315,2.7356,2.7056,2.6121,2.6333,2.6164,2.5141,2.5119,2.5137,2.511,2.4588,2.3957,2.3197,2.2796,2.2312,2.1698,2.1831,2.1925,2.2042,2.2266,2.2313,2.2185,2.2097,2.1747,1.966,1.9484,1.9766,2.0439,2.1232,2.2101,2.3304,2.394,2.4533,2.5523,2.5961,2.6263,2.6543,2.6842,2.7094,2.7183,2.7318,2.7348,2.7191,2.7082,2.6902,2.6526,2.6847,2.7765,2.9277,2.9365,2.938,2.9521,2.9521,2.9419,2.9223,2.917,2.9131,2.9145,2.9131,2.9209,2.9419,2.9326,2.956,3.0126,2.9947,2.9985,3.0177,3.0546,3.0698,3.0698,3.0773,3.0887,3.0973,3.0973,3.1048,3.1086,3.0773,3.0736,3.0823,3.0823,3.0823,3.0759,3.0378,2.9865,2.9325,2.8758,2.8216,2.7808,2.7773,2.7937,2.8101,2.772,2.7765,2.7833,2.7301,2.7113,2.7079,2.7079,2.7113,2.7079,2.6748,2.6748,2.6739,2.6533,2.6499,2.6499,2.6499,2.6533,2.6602,2.6679,2.7011,2.7248,2.7315,2.7193,2.6679,2.5531,2.5625,2.5393,2.4305,2.4808,2.5003,2.4575,2.4542,2.4067,2.311,2.3021,2.2582,2.1761,2.1824,2.1965,2.2202,2.2313,2.2383,2.2483,2.2263,2.1999,1.9694,1.9793,2.0175,2.1351,2.1729,2.2112,2.3302,2.3608,2.3999,2.5255,2.6219,2.697,2.7228,2.7553,2.7683,2.7528,2.7348,2.7065,2.6599,2.6711,2.6648,2.6166,2.6371,2.7056,0.0,2.887,2.9287,2.974,2.9804,2.9507,2.8831,2.9013,2.8934,2.8562,2.8895,2.9209,2.9419,2.9663,2.9895,3.0062,2.9638,2.9767,3.0406,3.0622,3.0698,3.0698,3.0924,3.0973,3.0973,3.0973,3.0887,3.0698,3.0482,3.0406,3.0406,3.0406,3.0406,3.0367,2.9951,2.92,2.8497,2.8856,2.8109,2.7276,2.854,2.8664,2.8386,2.836,2.8248,2.798,2.7579,2.739,2.7315,2.7315,2.739,2.7323,2.6816,2.6841,2.6875,2.6568,2.6499,2.6499,2.6499,2.6611,2.6679,2.6679,2.6875,2.7079,2.7281,2.6657,2.6067,2.5652,2.4682,2.428,2.4725,2.433,2.4386,2.5236,2.5142,2.4728,2.3968,2.3779,2.3102,2.1917,2.1761,2.2147,2.2967,2.1941,2.187,2.2677,2.2811,2.233,1.9336,1.9509,1.9848,2.0791,2.1132,2.144,2.2395,2.2722,2.3073,2.416,2.4662,2.5084,2.5746,2.6099,2.6487,2.6976,2.714,2.7186,2.7113,2.716,2.7003,2.6472,2.6831,0.0,0.0,0.0,0.0,2.9507,2.945,2.922,2.8816,2.887,2.8831,2.8697,2.8855,2.9067,2.9419,2.9365,2.9546,2.9895,2.974,2.9831,3.0177,3.0279,3.0394,3.052,3.0823,3.0973,3.0973,3.0973,3.0887,3.066,3.033,3.0177,3.0177,3.0177,3.0177,3.0101,2.959,2.9138,2.8749,2.8497,2.8094,2.7876,2.8731,2.9012,2.8917,2.849,2.8351,2.8186,2.7646,2.7456,2.7423,2.7423,2.739,2.7315,2.7121,2.6943,2.6773,2.6645,2.6568,2.6499,2.6499,2.6533,2.6602,2.6679,2.6875,2.7011,2.7079,2.6458,2.5815,2.5337,2.4822,2.4305,2.3722,2.4531,2.4843,2.4268,2.4805,2.4615,2.3514,2.3199,2.267,2.1917,2.194,2.223,2.2806,2.2395,2.2544,2.312,2.2285,2.1778,1.9242,1.9424,1.9665,2.0292,2.0375,2.0508,2.1173,2.1487,2.1901,2.3015,2.3438,2.3859,2.475,2.516,2.5667,2.6302,2.6766,2.7139,2.7364,2.7561,2.7459,2.6894,2.727,2.7734,0.0,0.0,0.0,2.9326,2.9582,2.9415,2.8721,2.887,2.8949,2.8791,2.8949,2.9223,2.9651,2.9521,2.9624,2.9895,2.9818,2.9934,3.0216,3.0216,3.0406,3.0748,3.0973,3.1149,3.1224,3.1123,3.0962,3.066,3.0356,3.0139,3.0126,3.0177,3.0254,3.0241,2.9541,2.9255,2.913,2.8802,2.8436,2.8317,2.9454,2.9624,2.939,2.9171,2.9118,2.8935,2.8046,2.7837,2.7785,2.7542,2.7423,2.7382,2.7315,2.7045,2.6807,2.6714,2.6602,2.6499,2.6499,2.6533,2.6602,2.6611,2.6773,2.6833,2.6696,2.5939,2.5262,2.4843,2.452,2.4098,2.3477,2.4437,2.4775,2.3956,2.4567,2.4378,2.3175,2.32,2.2959,2.2329,2.2483,2.2803,2.3257,2.2695,2.2651,2.304,2.1969,2.1249,1.9401,1.9483,1.9634,1.9798,1.9546,1.9363,1.9783,2.0005,2.0507,2.1768,2.2511,2.3205,0.0,0.0,2.512,2.5583,2.6291,2.6955,2.7364,2.7909,2.7995,0.0,0.0,0.0,0.0,0.0,0.0,2.939,0.0,2.996,2.8626,2.9067,2.9223,2.887,2.9223,2.9651,3.0126,3.0126,3.0126,3.0126,2.9934,3.0049,3.0406,3.0444,3.0748,3.131,3.131,3.1447,3.1559,3.1384,3.1048,3.0698,3.0482,3.0292,3.0164,3.0368,3.0558,3.062,2.9891,2.9548,2.956,2.9729,2.9041,2.8577,3.0645,3.0464,2.9671,3.0243,3.0375,3.0023,2.8743,2.842,2.8263,2.7654,2.749,2.7456,2.7348,2.7146,2.6943,2.6714,2.6602,2.6499,2.6499,2.6611,2.6645,2.6533,2.6611,2.6519,2.6176,2.5217,2.4489,2.4329,2.3917,2.3785,2.4035,2.4154,2.4255,2.4329,2.4508,2.4124,2.3103,2.3855,2.3904,2.3071,2.3323,2.3746,2.4255,2.2799,2.2171,2.2355,2.1825,2.0861,1.9571,1.933,1.9129,1.9153,1.8859,1.8672,1.919,1.9182,1.9194,1.965,2.0272,2.0824,0.0,0.0,0.0,2.4832,2.6039,0.0,2.7693,2.8283,0.0,2.8219,0.0,2.8934,2.9326,2.9662,0.0,0.0,2.9766,2.9536,2.8958,2.9223,2.9419,2.9546,2.9754,2.9999,3.033,3.0177,3.0177,3.033,3.0254,3.0368,3.0622,3.0936,3.1161,3.131,3.1633,3.1706,3.1559,3.1384,3.1161,3.0861,3.052,3.0368,3.0368,3.071,3.0887,3.0936,3.1003,3.0551,2.9913,2.966,2.9381,2.9337,3.0519,3.0033,2.9281,3.0326,3.0007,2.9228,2.8765,2.8618,2.8426,2.768,2.7423,2.7348,2.7315,2.7045,2.6748,2.6714,2.6602,2.6499,2.6499,2.6533,2.6533,2.6499,2.6257,2.6206,2.6494,2.5968,2.5568,2.5691,2.5186,2.4841,2.4836,2.4709,2.4632,2.4678,2.4508,2.4239,2.3961,2.4051,2.3985,2.3765,2.3395,2.3456,2.399,2.2613,2.1976,2.2098,2.1452,2.0716,1.935,1.8878,1.8445,1.8113,1.7878,1.7809,1.7895,1.8054,1.823,1.8367,1.8799,1.9254,1.9565,2.1046,0.0,0.0,0.0,0.0,2.6831,2.7639,2.8177,0.0,2.8709,0.0,2.9599,2.994,3.0079,0.0,3.0044,2.9856,2.9273,2.9613,2.9908,3.0049,3.0216,3.0482,3.0785,3.0596,3.0596,3.0785,3.071,3.0785,3.1112,3.1235,3.1458,3.168,0.0,3.1853,3.1706,3.1633,3.131,3.0973,3.0962,3.0823,3.071,3.1086,3.1261,3.1299,3.1633,3.1309,3.0708,3.0474,3.029,3.0317,3.1119,3.0699,3.0135,3.1075,3.0636,2.9782,2.9308,2.8974,2.8596,2.7847,2.7556,2.749,2.739,2.7113,2.6807,2.6645,2.6602,2.6568,2.6499,2.6568,2.6602,2.6602,2.619,2.607,2.6509,2.5877,2.5397,2.555,2.5066,2.4772,2.4784,2.4684,2.4627,2.4678,2.4541,2.4345,2.4189,2.4277,2.4265,2.4073,2.3758,2.3657,2.3777,2.2586,2.1913,2.1716,2.1084,2.0457,1.9051,1.8343,1.7634,1.7005,1.6891,1.6828,1.6511,1.6833,1.729,1.7592,1.7759,1.804,1.8534,1.9851,2.1104,2.1773,0.0,2.5013,2.5428,2.6596,2.7474,2.7584,2.8465,2.9184,2.9397,2.9658,2.9965,3.019,3.0558,3.0413,2.956,3.0075,3.0444,3.052,3.071,3.0999,3.1384,3.1161,3.1123,3.1347,3.1161,3.1299,3.1633,3.1495,3.168,3.2182,3.2036,3.1927,3.1927,3.189,3.1596,3.1149,3.1485,3.1373,3.1149,3.1522,3.1669,3.1706,3.189,3.1853,3.1706,3.1589,3.1244,3.102,3.1775,3.1575,3.1256,3.1855,3.1487,3.0761,2.9969,2.9365,2.8765,2.802,2.7822,2.7756,2.7523,2.7248,2.6909,2.6636,2.6671,2.6679,2.6602,2.6671,2.6722,2.6646,2.6273,2.6074,2.6324,2.5475,2.4848,2.4931,2.4584,2.442,2.4622,2.4489,2.4393,2.4466,2.4434,2.4296,2.4056,2.4459,2.4554,2.4257,2.4127,2.3886,2.3556,2.2553,2.1795,2.1298,2.0805,2.0195,1.9135,1.804,1.7021,1.6796,1.636,1.6084,1.6558,1.6225,0.0,1.6615,1.6455,1.6402,1.689,1.835,1.9732,2.0634,2.2678,2.4299,2.4765,2.6349,2.7325,0.0,2.8246,2.9192,2.9466,2.9476,0.0,0.0,3.0471,3.0266,3.0216,3.033,3.0634,3.1123,3.1336,3.1559,3.178,3.1421,3.1347,3.1559,3.1495,3.1606,3.1853,3.2,3.2109,3.2218,3.2146,0.0,3.2146,3.1963,3.1853,3.1743,3.1633,3.1559,3.1522,3.1963,3.2109,3.2109,3.2264,3.2273,3.2155,3.1577,3.084,3.0319,3.0739,3.0494,3.0205,3.0911,3.098,3.0556,2.9761,2.9349,2.8966,2.8212,2.7921,2.7756,2.7523,2.7248,2.6977,2.6909,2.6943,2.6943,2.6909,2.6943,2.6824,2.6503,2.6348,2.6246,2.6096,2.5647,2.5604,2.6289,2.5819,2.5615,2.5865,2.4861,2.4243,2.4247,2.3717,2.366,2.4147,2.4139,2.4271,2.4602,2.3672,2.3261,2.3335,2.2327,2.1532,2.0913,2.1017,2.0615,1.8503,1.7659,1.6742,1.6153,1.5792,1.5618,1.5691,0.0,0.0,1.5808,1.5619,1.5515,1.5916,1.7283,0.0,1.9435,2.1116,2.2715,2.3745,2.4964,0.0,2.6681,2.7724,2.8537,0.0,2.9134,2.9565,3.0455,3.0302,3.033,3.0672,3.071,3.0823,3.1123,3.1149,3.1373,3.189,3.1495,3.1458,3.1743,3.1936,3.1973,3.189,3.2191,3.2264,3.2218,3.2218,3.1956,3.1604,3.1901,3.1738,3.1315,3.1746,3.189,3.1927,3.2191,3.2372,3.2444,3.2417,3.2234,3.2003,3.1553,3.121,3.1034,3.1275,3.0963,3.0665,3.1314,3.0936,3.0217,2.9717,2.9318,2.8855,2.8329,2.8085,2.7888,2.7689,2.7523,2.7382,2.718,2.7214,2.7111,2.6601,2.6642,2.6535,2.6129,2.5823,2.5741,2.6109,2.5691,2.562,2.6259,2.6107,2.5929,2.5839,2.497,2.4511,2.4599,2.4138,2.4054,2.4437,2.4308,2.4211,2.4118,2.3276,2.2777,2.2665,2.1873,2.1275,2.0863,2.0797,2.0391,1.76,1.7063,1.6361,1.5511,1.5295,1.5231,1.4963,1.4948,0.0,1.5168,1.5072,1.4996,1.5281,1.6409,1.7553,0.0,1.9747,2.1225,2.2702,2.374,2.4896,0.0,2.7114,0.0,2.8412,2.8751,0.0,3.0073,3.0237,3.0495,3.0999,3.0962,3.0999,3.1048,3.0924,3.1149,3.1817,3.1522,3.1532,3.189,3.2228,3.2228,3.1963,3.23,3.2309,3.2228,3.2228,3.1875,3.1325,3.1857,3.1667,3.1119,3.1821,3.21,3.2109,3.2288,3.2357,3.2352,3.2176,3.1943,3.1633,3.1323,3.1302,3.1467,3.1666,3.1366,3.1093,3.1461,3.086,3.0002,2.9701,2.9251,2.8766,2.8444,2.8249,2.8112,2.7888,2.7855,2.7789,2.7516,2.7445,2.721,2.6413,2.646,2.644,2.5965,2.5603,2.5621,2.6329,2.591,2.57,2.6112,2.6002,2.5819,2.5544,2.4929,2.4649,2.4755,2.441,2.4316,2.4505,2.4207,2.3868,2.3482,2.2889,2.2402,2.2025,2.1474,2.1031,2.076,2.045,2.0039,1.6625,1.6099,1.5508,1.5331,1.4943,1.47,1.5086,0.0,1.4617,1.4863,1.4773,1.4716,1.5072,1.5794,1.6649,1.7638,1.9342,2.0917,2.2144,2.3862,2.5099,2.5408,0.0,0.0,2.8125,2.8554,2.9238,3.0291,3.0533,3.0773,3.0973,3.0849,3.0887,3.1272,3.1235,3.1347,3.1633,3.1596,3.1669,3.189,3.2109,3.2218,3.2182,3.2309,3.2381,3.2381,3.2381,3.2354,0.0,3.1842,3.1889,3.2208,3.1807,3.1728,3.1868,3.2069,3.1777,3.1366,3.1304,3.1277,3.1171,3.0521,3.0261,3.0195,3.0327,3.0397,3.0322,2.9947,3.0051,3.0146,2.9589,2.9236,2.9017,2.8638,2.8411,2.8249,2.8112,2.8079,2.8046,2.8013,2.7588,2.7152,2.688,2.7008,2.695,2.6339,2.6663,2.6948,2.6773,2.6752,2.669,2.6556,2.5858,2.5435,2.5585,2.4764,2.4186,2.4024,2.3566,2.3513,2.395,2.3131,2.2819,2.3075,2.2478,2.2025,2.1835,2.1397,2.0896,2.0333,2.0313,1.9942,1.5639,1.5468,1.5233,1.4739,1.4458,1.4273,1.4142,0.0,1.392,1.4207,1.4339,1.4533,1.498,1.5542,1.6375,1.7705,1.8726,1.9997,2.1979,2.302,2.4007,2.5164,2.5939,0.0,0.0,0.0,2.825,2.9637,3.0459,3.0924,3.0973,3.0811,3.0773,3.0924,3.0823,3.0973,3.1447,3.1299,3.1447,3.189,3.1963,3.2036,3.2036,3.2046,3.2082,3.2119,3.2228,3.182,0.0,3.1443,3.1163,3.052,3.0863,3.1096,3.1301,3.1465,3.1428,3.1205,3.1205,3.0954,3.0592,3.0308,3.0007,2.9847,3.0243,3.0135,2.9947,3.0091,3.0003,2.9771,2.9485,2.9176,2.889,2.8761,2.8605,2.8476,2.8406,2.8406,2.8373,2.8249,2.7931,2.7464,2.6551,2.659,2.6478,2.5751,2.595,2.6185,2.6197,2.607,2.5884,2.5698,2.5972,2.603,2.5782,2.5105,2.4597,2.4449,2.3943,2.3657,2.374,2.3121,2.2694,2.2478,2.2101,2.178,2.1436,2.1051,2.0722,2.045,2.0078,1.9764,1.4612,1.4752,1.4765,1.4109,1.3881,1.378,0.0,0.0,1.3348,1.367,1.4041,1.4382,1.4745,1.5356,1.6259,1.7657,1.8459,1.9609,2.1727,2.2594,2.352,0.0,0.0,2.5945,0.0,2.7127,2.7848,2.9161,3.001,3.0566,3.0823,3.0811,3.0811,3.0811,3.0596,3.071,3.1198,3.1048,3.1235,3.1743,3.178,3.1817,3.1817,3.1927,3.2,3.2,3.2028,3.1422,0.0,3.0821,3.0433,2.9599,3.0079,3.0431,3.0632,3.0793,3.0748,3.0582,3.0582,3.0336,3.0039,3.0007,2.9795,2.9701,3.0091,2.9954,2.9701,3.0091,2.9954,2.9585,2.9491,2.9208,2.889,2.889,2.8761,2.8568,2.8471,2.8406,2.8281,2.8026,2.7723,2.719,2.6158,2.6173,2.6109,2.5544,2.5589,2.578,2.597,2.5524,2.5071,2.4886,2.5544,2.5847,2.5526,2.4849,2.4459,2.4526,2.4018,2.3629,2.3446,2.3038,2.2553,2.2025,2.178,2.1436,2.1012,2.0683,2.0411,2.0216,1.9784,1.9527,1.371,1.3856,1.3994,1.346,1.3106,1.3036,0.0,1.3315,1.3007,1.3427,1.393,1.4279,1.4304,1.5141,1.6143,1.7201,1.8764,2.0128,2.1169,2.2856,0.0,0.0,0.0,2.607,2.7284,2.7912,2.8523,2.9162,2.92,0.0,3.0381,3.0785,3.0973,3.0973,3.0811,3.0811,3.0973,3.0973,3.1086,3.131,3.1532,3.1606,3.1596,3.2036,3.2218,3.2191,3.1771,3.1471,0.0,3.0018,2.9855,3.0317,2.9746,2.9728,2.9997,2.9997,2.9638,2.9113,2.9113,2.924,2.9397,2.9397,2.9491,2.9617,2.9617,2.9617,2.9617,2.9617,2.9617,2.9617,2.9617,2.9366,2.9113,2.9113,2.8858,2.8503,2.8177,2.7954,2.7663,2.7297,2.6624,2.6041,2.5851,2.595,2.6107,2.6107,2.6147,2.6271,2.6466,2.5524,2.4686,2.4336,2.4319,2.4382,2.4496,2.3642,2.3341,2.3863,2.3519,2.3224,2.3001,2.2628,2.2214,2.1797,2.1397,2.1012,2.0605,2.0411,1.9942,1.9292,1.9508,1.9408,1.2823,1.2884,1.2911,1.2759,1.2675,1.2657,1.2853,1.2922,1.3121,1.3579,1.4041,1.4375,1.4728,1.5365,1.6293,1.7805,1.8797,2.0042,0.0,0.0,0.0,2.4941,2.5709,2.6393,0.0,0.0,2.8377,2.9149,2.9707,3.0188,3.057,3.0973,3.1123,3.0973,3.0962,3.0962,3.0973,3.0973,3.1086,3.131,3.1235,3.1272,3.1384,3.1532,3.1669,3.179,3.1522,3.0972,3.0304,2.9895,2.9267,2.8652,2.8926,2.9099,2.9233,2.9489,2.947,2.9334,2.9334,2.9366,2.9397,2.9397,2.9491,2.9617,2.9617,2.9617,2.9617,2.9617,2.9554,2.946,2.946,2.9208,2.889,2.889,2.8568,2.8177,2.7762,2.7464,2.7129,2.6722,2.6332,2.6002,2.5719,2.5847,2.5915,2.5753,2.549,2.5186,2.4912,2.3985,2.3224,2.2858,2.2727,2.2956,2.37,2.354,2.3486,2.3703,2.3187,2.2852,2.2815,2.2289,2.1797,2.1397,2.0992,2.0644,2.0372,2.0039,1.9548,1.9112,1.9311,1.9112,1.2427,1.2501,1.245,1.2326,1.2159,1.2141,1.2549,1.2606,1.2801,1.3707,1.4162,1.4505,1.5017,1.5724,1.6675,1.8068,1.906,2.0236,0.0,0.0,0.0,0.0,0.0,0.0,0.0,2.7344,2.7926,2.8805,2.9522,3.0059,3.0448,3.0869,3.1011,3.0887,3.0962,3.0973,3.0973,3.1086,3.1123,3.1198,3.1123,3.1123,3.1198,3.1347,3.1352,3.1259,3.1029,3.047,0.0,2.9287,2.8702,2.8052,2.8379,2.8638,2.8803,2.9022,2.9208,2.9271,2.9145,2.9208,2.9303,2.9303,2.9366,2.9429,2.9429,2.9429,2.9429,2.9429,2.9212,2.899,2.899,2.8702,2.8411,2.8411,2.8085,2.7656,2.7196,2.6824,2.6449,2.5965,2.5721,2.5535,2.5324,2.5419,2.5381,2.5059,2.4578,2.4049,2.3463,2.2909,2.2403,2.197,2.2238,2.2617,2.2986,2.2964,2.2989,2.3128,2.2665,2.2289,2.2138,2.1759,2.1359,2.0858,2.0605,2.0294,1.9902,1.9487,1.913,1.8891,1.8977,1.8765,0.0,1.2575,1.2418,1.2101,1.1648,1.1621,1.267,1.2399,0.0,1.3829,1.4363,1.4709,1.5285,1.6221,1.7165,1.8008,1.9384,0.0,0.0,2.2949,0.0,0.0,0.0,0.0,2.6934,2.7012,2.741,2.8369,2.8803,2.9288,2.9996,3.0448,3.0684,3.0646,3.0861,3.0999,3.0999,3.1161,3.1161,3.0936,3.1145,3.1108,3.0921,3.1304,3.1169,0.0,3.0373,2.9841,2.9107,2.8385,2.8118,2.8189,2.8112,2.8341,2.8697,2.8605,2.8766,2.9022,2.8729,2.8826,2.9113,2.9081,2.9053,2.9022,2.9022,2.9022,2.9022,2.9022,2.867,2.8254,2.8254,2.8026,2.7789,2.7756,2.743,2.6994,2.6449,2.607,2.5652,2.5052,2.4862,2.4801,2.4801,2.4765,2.4578,2.4085,2.3521,2.2938,2.2329,2.2278,2.2147,2.1687,2.2627,2.3005,2.2331,2.2056,2.2045,2.2381,2.1987,2.1568,2.1205,2.1167,2.0896,2.0274,2.0216,1.9902,1.9231,1.8851,1.8652,1.8629,1.859,1.8413,1.2468,0.0,1.1844,1.1973,1.1919,1.2,0.0,1.2933,1.3247,1.4292,1.4688,0.0,0.0,0.0,0.0,0.0,0.0,0.0,0.0,0.0,0.0,0.0,0.0,2.6734,2.6703,2.7034,2.7653,2.8705,2.8917,2.9135,2.9396,3.0079,3.032,3.0025,3.0502,3.0773,3.0773,3.0999,3.0898,3.0558,3.0603,3.0357,2.9877,3.002,2.998,2.9821,2.948,2.9031,2.8539,2.806,2.7656,2.7348,2.7556,2.7689,2.7855,2.8249,2.8578,2.8867,2.8766,2.8922,2.9081,2.8826,2.8605,2.8481,2.8481,2.8481,2.8481,2.8481,2.8189,2.7921,2.7921,2.7756,2.7523,2.7364,2.696,2.6449,2.5921,2.5476,2.5052,2.4503,2.449,2.4562,2.4562,2.4454,2.4299,2.4184,2.3236,2.2617,2.2659,2.1913,2.1587,2.2064,2.2078,2.2011,2.1912,2.2141,2.2259,2.2176,2.1665,2.1244,2.0992,2.0838,2.0489,1.9981,1.9706,1.9231,1.8594,1.8531,1.8273,1.7951,1.8012,1.7861,1.2571,1.2506,1.2311,1.2396,1.2456,1.2588,1.3032,1.3278,1.3699,1.47,0.0,0.0,0.0,0.0,0.0,0.0,2.028,0.0,0.0,0.0,0.0,0.0,0.0,2.6802,0.0,2.7267,2.7683,2.8507,2.8747,2.8887,2.8996,2.9631,2.9928,2.9818,3.0199,3.0546,3.0849,3.0749,3.06,3.0406,3.0188,2.9818,2.93,2.9445,2.9282,2.876,2.8525,2.8297,2.7968,2.7486,2.7255,2.7248,2.7382,2.749,2.7656,2.7855,2.8157,2.8417,2.8249,2.8346,2.8476,2.8281,2.8118,2.7954,2.7954,2.7762,2.7597,2.7762,2.753,2.7255,2.7121,2.6985,2.6816,2.6543,2.6173,2.5756,2.5324,2.4969,2.4647,2.4273,2.4309,2.4345,2.4345,2.42,2.3927,2.3555,2.288,2.2297,2.1895,2.162,2.1536,2.1731,2.1818,2.1769,2.1683,2.1683,2.1683,2.155,2.1244,2.0896,2.045,2.045,2.0137,1.9508,1.8856,1.8353,1.7951,1.7829,1.767,1.7466,1.7453,1.7472,1.2718,1.307,1.3272,1.3115,1.3173,1.3299,1.3553,1.3711,1.4086,1.5197,1.6021,0.0,0.0,1.876,0.0,0.0,0.0,0.0,0.0,0.0,0.0,0.0,0.0,0.0,2.7323,2.749,2.7723,2.8112,2.8432,2.8615,2.872,2.9155,2.9556,2.9855,3.0049,3.0381,3.0869,3.0598,3.0377,3.0177,2.9939,2.9383,2.8674,2.902,2.8615,2.7573,0.0,0.0,2.7255,2.6816,2.6884,2.7255,2.718,2.7323,2.759,2.7456,2.7623,2.7829,2.7556,2.7523,2.7656,2.7656,2.7523,2.7356,2.7356,2.7019,2.6679,2.6926,2.6816,2.6543,2.6267,2.6154,2.6015,2.5641,2.5394,2.5147,2.4814,2.4598,2.4418,2.42,2.42,2.4236,2.4127,2.3982,2.3568,2.2745,2.2468,2.2027,2.0988,2.1379,2.1591,2.1217,2.1607,2.1759,2.1436,2.1031,2.0799,2.0819,2.078,2.0469,1.9863,1.9981,1.9666,1.8834,1.8072,1.7505,1.7261,1.7065,1.7052,1.7101,1.6896,1.7165,1.341,1.3923,1.4281,1.3993,1.4066,1.4286,1.4648,1.4825,1.5162,1.591,1.6661,1.7544,0.0,1.9262,1.9848,0.0,0.0,0.0,0.0,0.0,0.0,0.0,0.0,2.6987,2.6816,2.7556,2.8052,2.8254,2.8225,2.8392,2.8864,2.8969,2.9326,3.0038,3.0275,3.0326,3.0231,3.0511,3.0174,2.9239,2.9622,2.8828,2.7076,2.7591,2.7379,2.6609,0.0,2.6524,2.6405,2.6302,2.6233,2.6154,2.6292,2.6499,2.6654,2.696,2.7162,2.733,2.7263,2.7061,2.6884,2.7079,2.685,2.6586,2.6782,2.6568,2.6223,2.6154,2.6188,2.6258,2.6188,2.5945,2.5641,2.5394,2.5111,2.4814,2.4598,2.4526,2.4381,2.4018,2.4236,2.4309,2.3776,2.3666,2.3423,2.2781,2.2213,2.177,2.1624,2.1246,2.1073,2.1407,2.1242,2.1051,2.0994,2.0625,2.0372,2.0391,2.0177,1.9942,1.9685,1.921,1.8692,1.8152,1.7668,1.7139,1.6566,1.6572,1.6615,1.6691,1.6536,1.6664,1.3532,1.4123,1.4716,1.5116,1.5269,1.5314,1.5568,1.5959,1.6409,1.6815,1.7546,1.8382,0.0,0.0,2.1341,2.3215,0.0,2.4673,2.5778,2.623,2.6377,0.0,0.0,2.7657,2.7456,2.7987,2.8406,2.8444,2.8637,2.8632,2.8479,2.9171,2.9585,2.9666,2.9811,2.9917,2.9844,2.9767,2.9327,2.851,2.8245,2.7492,2.6408,2.6733,2.6579,2.5931,0.0,2.5886,2.6025,2.5816,2.5781,2.591,2.6119,2.6154,2.6164,2.6336,2.6508,2.6645,2.6543,2.6405,2.6292,2.6396,2.6292,2.6129,2.6233,2.6154,2.6015,2.5945,2.598,2.598,2.5665,2.5571,2.5465,2.4969,2.4814,2.4729,2.4418,2.4345,2.4273,2.4091,2.42,2.4236,2.3813,2.3593,2.3224,2.2628,2.2099,2.1645,2.1377,2.1024,2.0887,2.1011,2.0858,2.0702,2.0586,2.0255,2.0059,2.0059,1.9745,1.9508,1.9289,1.8451,1.7829,1.7505,1.6976,1.6402,1.585,1.6085,1.6166,1.6126,1.6188,1.6395,1.3478,1.4148,1.4891,1.5895,1.6117,1.6157,1.65,1.7071,1.7632,1.7926,1.8674,0.0,0.0,2.1242,0.0,2.4893,2.5198,2.5614,2.6629,2.6952,2.7154,2.7323,2.7888,2.8249,2.8177,2.8438,2.86,2.86,2.881,2.8746,2.8319,2.9188,2.959,2.934,2.9318,2.9337,2.9448,2.88,2.8226,2.7714,2.7274,2.6651,2.5889,2.6227,2.6081,2.5535,2.5394,2.5465,2.5711,2.5394,2.5465,2.5746,2.5945,2.5945,2.591,2.591,2.598,2.6015,2.5875,2.5805,2.5805,2.5875,2.5875,2.584,2.5875,2.5875,2.584,2.584,2.577,2.563,2.5288,2.5288,2.5277,2.4706,2.4598,2.4562,2.4273,2.42,2.42,2.4164,2.4127,2.4055,2.3776,2.3446,2.3038,2.2478,2.1987,2.1512,2.1012,2.0896,2.078,2.0605,2.0605,2.045,2.0157,1.9902,1.9745,1.9706,1.939,1.9073,1.8794,1.7955,1.7351,1.6965,1.636,1.5848,1.5445,1.572,1.5834,1.5777,1.5993,1.6271,1.3315,1.4068,1.5047,1.5833,1.6191,1.6607,1.7426,1.8045,1.8669,1.9259,2.0114,2.0844,0.0,2.2632,0.0,2.4707,2.5645,2.6458,2.6909,0.0,2.7323,2.7456,2.7881,2.8177,2.8254,2.8476,2.86,2.86,2.8335,2.8372,2.8845,2.8608,2.874,2.9446,2.8975,2.8775,2.8963,2.7878,2.7103,2.6638,2.7655,2.7113,2.5183,2.6021,2.6009,2.53,2.5324,2.53,2.5335,2.5182,2.5218,2.5335,2.5335,2.5571,2.591,2.591,2.5805,2.5641,2.5641,2.55,2.5394,2.5805,2.5746,2.5641,2.584,2.577,2.5606,2.5606,2.5394,2.5218,2.55,2.5206,2.4837,2.4801,2.449,2.4236,2.42,2.42,2.4164,2.3982,2.3945,2.3776,2.3409,2.315,2.2889,2.2478,2.1721,2.1244,2.1167,2.0858,2.0605,2.0605,2.0605,2.0333,1.9724,1.9469,1.9271,1.9073,1.9033,1.8754,1.8112,1.7921,1.7476,1.6557,1.6147,1.5821,1.5595,1.5667,1.5835,1.6053,1.614,1.6197,1.3684,1.4532,1.5382,1.6166,1.6843,1.7462,1.8205,1.8973,1.9732,2.0379,2.0977,2.158,0.0,0.0,2.4047,2.5267,2.5993,2.6668,2.7371,2.7855,2.8252,2.8692,2.8752,2.8801,2.9023,2.8589,2.8243,2.8118,2.8232,2.8163,2.7923,2.8411,2.8815,2.901,2.8217,2.7889,2.8064,2.7041,2.6105,2.5277,2.6137,2.6054,2.5135,2.5433,2.5445,2.5182,2.5182,2.5111,2.4992,2.4921,2.4957,2.4992,2.5111,2.5394,2.5676,2.5571,2.5571,2.5571,2.5465,2.5335,2.5335,2.55,2.55,2.543,2.55,2.5465,2.5394,2.5324,2.5182,2.5076,2.5099,2.4849,2.4562,2.4454,2.4309,2.42,2.42,2.42,2.42,2.4091,2.3982,2.3813,2.3519,2.3001,2.2478,2.2101,2.1474,2.0974,2.0838,2.0683,2.0605,2.0605,2.0333,2.0059,1.9824,1.935,1.9061,1.8947,1.8801,1.8432,1.7714,1.7467,1.686,1.5891,1.5908,1.5718,1.5166,1.5866,1.6106,1.5911,1.6135,1.6224,1.3709,1.4567,1.5466,1.6281,1.7171,1.8049,1.8809,1.974,2.0694,2.1426,2.185,2.2364,2.3325,0.0,0.0,0.0,2.6425,2.698,2.7703,2.8249,2.8736,2.9176,2.898,2.893,2.911,2.8391,2.7848,2.7723,2.7923,2.784,2.7341,2.8202,2.8564,2.8196,2.7573,2.7285,2.7285,2.6382,2.5525,2.4782,2.5034,2.5065,2.4921,2.4992,2.5028,2.5028,2.5028,2.4921,2.4801,2.4729,2.4729,2.4729,2.4921,2.5182,2.543,2.5288,2.5324,2.543,2.5335,2.5264,2.5253,2.5253,2.5253,2.5253,2.5147,2.5182,2.5218,2.5111,2.5064,2.4957,2.4837,2.4634,2.4454,2.4309,2.4236,2.42,2.42,2.4164,2.4127,2.4127,2.3909,2.3629,2.3372,2.274,2.2176,2.1759,2.1205,2.078,2.0605,2.0527,2.045,2.0411,2.002,1.9762,1.9694,1.9232,1.8906,1.8751,1.8523,1.8055,1.7371,1.697,1.6389,1.5585,1.5786,1.5665,1.5174,1.6077,1.6274,1.5831,1.6176,1.6224,1.3215,1.4097,1.5166,1.6088,1.7161,1.8251,1.9213,2.0383,2.157,2.2418,2.2775,2.33,2.457,2.4698,0.0,2.62,2.7032,2.7556,2.7789,2.8249,2.86,2.86,2.8444,2.8287,2.8287,2.7822,2.749,2.749,2.7356,2.7315,2.7315,2.7779,2.7737,2.7033,2.7103,2.7,2.6609,2.5863,2.5419,2.5294,2.4672,2.4437,2.449,2.4693,2.4801,2.4801,2.4801,2.4801,2.4801,2.4562,2.449,2.4526,2.4729,2.4921,2.5111,2.5111,2.5111,2.5111,2.5253,2.5218,2.5111,2.5111,2.5111,2.504,2.4849,2.4957,2.5111,2.5076,2.4957,2.4801,2.4801,2.4634,2.449,2.449,2.4345,2.42,2.42,2.4055,2.3886,2.3886,2.3556,2.315,2.2777,2.2365,2.1949,2.155,2.0992,2.0605,2.0605,2.0411,2.0177,1.9942,1.9724,1.9476,1.9224,1.9011,1.8751,1.844,1.8052,1.7609,1.702,1.6536,1.6118,1.5713,1.5697,1.5745,1.5771,1.6281,1.6248,1.5832,1.6353,1.6305,1.3695,1.4741,1.5846,1.659,0.0,1.8507,1.9991,2.1099,2.2101,2.3301,2.3777,2.4212,2.4832,2.4937,0.0,2.6427,2.6985,2.7444,2.7934,2.8541,2.9027,2.9203,2.8812,2.8541,2.8578,2.7699,2.7087,2.6952,2.6782,2.6739,2.6739,2.6756,2.6856,2.6984,2.6261,2.5937,2.61,2.5248,2.4722,2.454,2.4333,2.4338,2.449,2.4273,2.4309,2.4598,2.4598,2.449,2.4381,2.4309,2.4381,2.449,2.4562,2.4706,2.4885,2.4885,2.4885,2.4885,2.4921,2.5028,2.5076,2.4921,2.4992,2.504,2.4849,2.4837,2.4849,2.4706,2.4634,2.4562,2.4418,2.4236,2.4091,2.4091,2.3922,2.3835,2.3982,2.3922,2.3886,2.3886,2.3446,2.3038,2.2927,2.2214,2.1665,2.1512,2.0896,2.0333,2.0137,2.0059,1.9942,1.9724,1.9508,1.9356,1.9206,1.8704,1.8288,1.8008,1.7429,1.707,1.6876,1.6641,1.6114,1.5206,1.5743,1.5784,1.5232,1.6113,1.6303,1.5832,1.6163,1.6116,1.4082,1.4917,1.5754,1.6651,1.7497,1.8708,2.0956,0.0,0.0,0.0,2.4437,2.4852,2.566,2.5618,0.0,2.6763,2.7258,2.7605,2.7733,2.8341,2.8806,2.8897,2.8398,2.8053,2.8095,2.7301,2.6748,2.6611,2.6568,2.66,2.6801,2.6841,2.6973,2.7198,2.6639,2.6273,2.606,2.5305,2.4792,2.4476,2.4146,2.4127,2.4381,2.4127,2.4164,2.4381,2.4381,2.4309,2.42,2.42,2.4273,2.4381,2.4381,2.449,2.4693,2.4693,2.4693,2.467,2.4765,2.4814,2.4849,2.4706,2.4706,2.4718,2.4598,2.4562,2.4562,2.449,2.4454,2.4345,2.4236,2.3945,2.3703,2.3982,2.3776,2.3666,2.3872,2.3776,2.3629,2.3556,2.3187,2.2777,2.2478,2.1911,2.1397,2.1089,2.045,1.9942,1.9706,1.9587,1.9429,1.9152,1.9137,1.9023,1.8642,1.8258,1.7838,1.7356,1.6747,1.6341,1.6248,1.5932,1.5571,1.505,1.5303,1.5209,1.4709,1.5785,1.5974,1.5404,1.594,1.6089,1.4225,1.4722,1.525,1.6316,1.7443,0.0,2.1807,2.3416,2.4378,2.4681,0.0,2.5364,2.6782,2.6509,2.6315,2.7152,2.7733,2.7893,2.736,2.7835,2.8189,2.796,2.7497,2.7196,2.7162,2.6748,2.6499,2.6465,2.6515,2.6766,2.7208,2.7517,2.7607,2.7397,2.7638,2.7244,2.6197,2.5751,2.5271,2.48,2.4025,2.3813,2.4164,2.4164,2.4187,2.4269,2.4223,2.4223,2.4269,2.4223,2.42,2.42,2.4164,2.4273,2.4454,2.4418,2.4418,2.4454,2.4634,2.4598,2.4454,2.4418,2.4309,2.4164,2.4164,2.4164,2.42,2.4381,2.4309,2.4164,2.4164,2.3703,2.3446,2.4018,2.3849,2.3629,2.3813,2.3556,2.3224,2.3001,2.2815,2.2402,2.1627,2.1436,2.1167,2.0391,1.9899,1.9524,1.9286,1.9087,1.8807,1.8365,1.8596,1.8456,1.7676,1.7637,1.731,1.6518,1.6042,1.5615,1.5305,1.4837,1.4756,1.507,1.4499,1.4251,1.4292,1.5201,1.5309,1.464,1.5621,1.5971,1.3014,1.4452,0.0,1.6296,1.8576,2.0819,2.1102,2.3107,2.4974,2.5111,2.5624,2.6264,2.7002,2.7152,2.7373,2.7964,2.8071,2.8026,2.7919,2.8005,2.7927,2.7656,2.7364,2.7095,2.685,2.6611,2.643,2.6283,2.6656,2.6884,2.6805,2.6747,2.6688,2.6651,2.6258,2.5775,2.5194,2.5093,2.4785,2.418,2.4098,2.3945,2.374,2.374,2.4113,2.4751,2.4361,2.4407,2.4691,2.4155,2.4055,2.4164,2.3849,2.3849,2.4018,2.3849,2.3886,2.3995,2.3886,2.4055,2.42,2.3886,2.3849,2.3945,2.3776,2.374,2.374,2.3776,2.374,2.374,2.374,2.3519,2.3372,2.3666,2.3519,2.3372,2.3409,2.3372,2.3187,2.2815,2.2478,2.2025,2.1397,2.0992,2.0605,2.0074,1.9928,1.9625,1.9053,1.893,1.86,1.7796,1.7737,1.7578,1.7041,1.6799,1.6415,1.5716,1.5557,1.5192,1.4506,1.4609,1.4721,1.4783,1.4435,1.4292,1.4292,1.4532,1.4436,1.41,1.4753,1.4888,1.3151,1.4334,0.0,1.6848,0.0,2.0781,2.1037,2.2846,2.454,2.4814,2.5721,2.6577,2.7027,2.7188,2.7345,2.7615,2.7801,2.7874,2.755,2.7631,2.7523,2.7154,2.6884,2.6611,2.6336,2.6258,2.6253,2.642,2.6717,2.7015,2.7459,2.6919,2.6868,2.74,2.6667,2.6247,2.6131,2.5939,2.544,2.4652,2.4588,2.4297,2.3886,2.3666,2.3875,2.4397,2.4146,2.4192,2.4397,2.4036,2.3909,2.3909,2.3666,2.3666,2.374,2.3629,2.3666,2.374,2.3629,2.374,2.3886,2.3666,2.3519,2.3446,2.3335,2.3187,2.3001,2.2905,2.2868,2.2852,2.2756,2.2644,2.2628,2.2703,2.2815,2.2889,2.3001,2.2777,2.2466,2.2143,2.1788,2.1322,2.0682,2.0146,1.9699,1.9447,1.9377,1.9165,1.8727,1.8322,1.7851,1.7305,1.7149,1.6887,1.6313,1.616,1.5838,1.5089,1.4934,1.4613,1.4064,1.4088,1.4112,1.4112,1.3775,1.3534,1.3389,1.363,1.3639,1.3509,1.4176,1.4515,1.3155,1.3991,1.5214,1.746,1.9036,0.0,2.1114,2.26,2.3913,2.4204,2.5441,2.6543,2.6952,2.7019,2.7059,2.7058,2.7439,2.7565,2.7032,2.707,2.7019,2.6679,2.6436,2.6233,2.6058,2.6131,2.6293,2.6564,2.6687,2.7042,2.7773,2.712,2.7124,2.8091,2.7333,2.6955,2.7094,2.681,2.6152,2.5092,2.4801,2.448,2.4091,2.3703,2.3711,2.4022,2.3931,2.3954,2.3985,2.3895,2.3703,2.3482,2.3446,2.3409,2.3372,2.3372,2.3446,2.3482,2.3446,2.3482,2.3519,2.3519,2.3224,2.2889,2.2889,2.259,2.2214,2.2042,2.1966,2.1911,2.1738,2.1762,2.1806,2.1806,2.206,2.2328,2.2483,2.2063,2.1594,2.1253,2.0899,2.0408,1.9842,1.9312,1.8925,1.8953,1.8845,1.8626,1.8327,1.7685,1.7165,1.6844,1.6654,1.628,1.5643,1.5604,1.5309,1.4688,1.4448,1.416,1.3931,1.3642,1.3497,1.3448,1.3001,1.271,1.2516,1.2807,1.2975,1.3054,1.3651,1.4136,1.1018,0.0,1.5103,0.0,1.9337,2.0701,0.0,0.0,2.3827,0.0,2.5028,2.6405,2.6892,2.7154,2.7356,2.765,2.7604,2.7464,2.7252,2.6833,2.6483,2.6449,2.6551,2.6599,2.6599,2.7016,2.6993,2.6251,2.66,2.6633,2.6012,2.5843,2.6042,2.6571,2.6294,2.5869,2.5369,2.5927,2.5419,2.3925,2.3817,2.3734,2.3666,2.3446,2.3802,2.4559,2.409,2.4062,2.4311,2.3846,2.3409,2.3075,2.2889,2.2703,2.2553,2.2553,2.2777,2.3075,2.2889,2.3038,2.3298,2.315,2.2815,2.2478,2.2478,2.2063,2.1606,2.1568,2.1454,2.1318,2.128,2.1544,2.1808,2.1808,2.185,2.1849,2.1714,2.1454,2.1108,2.0469,1.9864,1.9352,1.9094,1.9081,1.911,1.9242,1.9035,1.8643,1.7985,1.7676,1.7175,1.6226,1.5948,1.5643,1.5244,1.4962,1.4688,1.4388,1.4304,1.416,1.3931,1.3642,1.3389,1.3147,1.2905,1.2856,1.3001,1.2662,1.2594,1.2775,1.2625,1.2789,1.1895,1.3391,1.5262,0.0,1.8377,1.9319,1.9697,0.0,2.2731,2.233,2.3723,2.5206,2.5916,2.6302,2.6577,2.6884,2.6892,2.6858,2.6816,2.6405,2.6094,2.599,2.5836,2.5817,2.602,2.626,2.633,2.6215,2.6429,2.6363,2.5887,2.5826,2.5945,2.6223,2.5853,2.5597,2.5435,2.5509,2.5027,2.4104,2.3541,2.3372,2.3593,2.3261,2.3408,2.3906,2.3645,2.3653,2.3757,2.3535,2.3187,2.2815,2.274,2.244,2.2063,2.2063,2.2025,2.2004,2.2025,2.2063,2.2155,2.2289,2.2063,2.1703,2.1606,2.13,2.0876,2.0411,2.0352,2.043,2.0196,2.0429,2.0799,2.1072,2.0931,2.0734,2.0759,2.0799,2.0641,1.9802,1.9171,1.8735,1.8498,1.8452,1.8423,1.8495,1.8326,1.8086,1.7553,1.7099,1.6598,1.5952,1.5543,1.5185,1.4914,1.4783,1.4496,1.4112,1.4064,1.3871,1.3497,1.334,1.3147,1.2953,1.2856,1.2759,1.271,1.237,1.236,1.2649,1.2224,1.2385,0.0,0.0,1.4879,1.6279,1.725,1.8031,0.0,0.0,2.162,0.0,2.2514,2.3816,2.4508,2.5167,2.562,2.5802,2.6064,2.6173,2.6139,2.5816,2.5535,2.5394,2.5254,2.5295,2.5546,2.5765,2.5975,2.6053,2.6077,2.5884,2.5477,2.5531,2.5631,2.5746,2.548,2.5324,2.5373,2.4882,2.454,2.4294,2.3541,2.3298,2.3519,2.3113,2.2964,2.3075,2.3224,2.3224,2.3075,2.3187,2.2889,2.2402,2.2402,2.2025,2.1492,2.153,2.1377,2.1165,2.1339,2.1339,2.1339,2.1606,2.1474,2.1108,2.0954,2.0586,2.0137,1.9548,1.9469,1.9469,1.9271,1.9463,1.9869,2.0248,2.0214,2.0002,1.9894,2.0086,1.9997,1.9135,1.8761,1.8578,1.8316,1.8119,1.8007,1.7914,1.7796,1.7561,1.7152,1.6547,1.6044,1.5685,1.5127,1.4743,1.4659,1.4589,1.4375,1.4016,1.4027,1.3786,1.334,1.3244,1.3098,1.2856,1.2807,1.271,1.2516,1.2224,1.2232,1.2506,1.2142,1.2304,0.0,1.2689,0.0,1.4982,1.6357,0.0,0.0,0.0,0.0,0.0,2.1897,2.2604,2.2697,2.3816,2.4715,2.4837,2.5335,2.5571,2.537,2.5016,2.4743,2.4743,2.5289,2.5685,2.567,2.6559,2.664,2.5552,2.5422,2.4936,2.3801,2.4168,2.4437,2.4475,2.4886,2.4831,2.4177,2.3667,2.3585,2.4028,2.3728,2.3482,2.3298,2.2889,2.2628,2.2478,2.3038,2.2964,2.2478,2.2852,2.244,2.155,2.155,2.1185,2.0683,2.0876,2.0934,2.0934,2.1167,2.132,2.1512,2.1512,2.1223,2.0915,2.0895,2.0196,1.939,1.9566,1.9033,1.8554,1.8913,1.916,1.9406,1.9611,2.0067,2.0204,1.9272,1.9156,1.9076,1.8472,1.8679,1.8912,1.8706,1.8544,1.8349,1.8051,1.7842,1.7398,1.6536,1.6261,1.5923,1.5404,1.4662,1.4358,1.4558,1.421,1.4039,1.428,1.4292,1.416,1.3883,1.3593,1.334,1.3098,1.2905,1.2807,1.2759,1.2516,1.2348,1.2344,1.2274,1.2274,0.0,0.0,0.0,1.3765,1.459,1.5376,1.636,1.8329,1.9889,0.0,0.0,2.2262,2.1576,2.2649,2.3723,2.3976,2.4184,2.4286,2.4213,2.3973,2.3903,2.4205,2.4339,2.4654,2.5276,2.5365,2.5183,2.4597,2.443,2.4117,2.3431,2.4171,2.4493,2.4259,2.4552,2.4188,2.3021,2.2939,2.3014,2.315,2.2826,2.2665,2.2703,2.2176,2.1797,2.1645,2.1852,2.189,2.1835,2.1987,2.1683,2.1108,2.1108,2.0722,2.0177,2.0255,2.0079,1.9923,2.0255,2.0333,2.0333,2.076,2.0605,2.0255,2.0098,1.9706,1.9231,1.8913,1.8732,1.8612,1.8594,1.874,1.8945,1.9026,1.9393,1.9537,1.8798,1.8731,1.879,1.8668,1.8376,1.8245,1.8544,1.8071,1.7644,1.7523,1.7143,1.669,1.6033,1.5945,1.5558,1.4707,1.4533,1.4364,1.4173,1.4157,1.41,1.4064,1.3871,1.3678,1.3389,1.3147,1.3001,1.2905,1.2856,1.2807,1.2807,1.2516,1.2397,1.2324,1.2173,1.2272,1.1862,0.0,0.0,0.0,0.0,1.3711,1.4978,0.0,0.0,0.0,0.0,0.0,0.0,2.1068,2.2201,2.2842,2.304,2.3128,2.3187,2.2927,2.2913,2.3388,2.3427,2.3652,2.4271,2.4266,2.406,2.3594,2.3524,0.0,2.3133,2.3849,2.4229,2.4205,2.4172,2.3664,2.2713,2.2714,2.259,2.2402,2.2138,2.1987,2.1987,2.1454,2.1069,2.0838,2.0722,2.0876,2.1185,2.1262,2.0992,2.0547,2.0469,2.0157,1.9706,1.9706,1.9548,1.935,1.9666,1.9764,1.9764,2.0137,2.0098,1.9863,1.9587,1.9311,1.9033,1.8594,1.8411,1.825,1.8273,1.8371,1.8491,1.8652,1.8952,1.903,1.8521,1.8568,1.8665,1.8642,1.8191,1.7938,1.8324,1.7673,1.7026,1.7011,1.6638,1.6131,1.5597,1.5514,1.521,1.4371,1.4301,1.4226,1.4004,1.4108,1.4112,1.4016,1.3786,1.3497,1.3244,1.3001,1.2856,1.2807,1.2807,1.2807,1.2807,1.2613,1.2405,1.2203,1.2418,1.2558,0.0,0.0,0.0,0.0,0.0,0.0,1.4754,0.0,1.5848,0.0,0.0,0.0,0.0,0.0,0.0,2.1277,2.1765,2.2096,2.2289,2.1835,2.1694,2.2282,2.2573,2.2778,2.2798,2.3392,2.3432,2.2544,2.2658,2.2775,2.2757,2.2991,2.3417,2.4144,2.3673,2.3376,2.3315,2.2902,2.2365,2.1759,2.178,2.153,2.1165,2.076,2.0411,2.0118,1.9745,1.9942,2.0566,2.076,2.0469,1.9863,1.9648,1.945,1.9311,1.9292,1.9292,1.935,1.9508,1.9706,1.9863,1.9685,1.9706,1.9824,1.9429,1.8993,1.8692,1.8692,1.8089,1.7522,1.791,1.7991,1.8112,1.8571,1.8772,1.8783,1.844,1.8609,1.8763,1.8347,1.8183,1.8083,1.8143,1.7401,1.6754,1.6609,1.6257,1.5759,1.5274,1.5016,1.477,1.4509,1.4073,1.3926,1.4173,1.3979,1.4002,1.4256,1.4004,1.3775,1.3485,1.3244,1.3001,1.2807,1.2807,1.2807,1.2807,1.2807,1.2516,1.2029,1.2996,1.3192,1.2254,0.0,0.0,0.0,0.0,0.0,1.2878,1.4014,1.5091,0.0,0.0,0.0,0.0,0.0,0.0,0.0,1.9399,2.0372,2.0566,2.0683,2.0972,2.1479,2.1593,2.1861,2.2437,2.2031,2.1795,0.0,2.1738,2.1849,2.2278,2.2839,2.3259,2.3467,2.3124,2.2646,2.2042,2.1918,2.1703,2.1359,2.0722,2.043,2.043,1.9784,1.939,1.9311,1.9051,1.9051,1.925,1.9429,1.9311,1.9051,1.9112,1.9112,1.9112,1.9271,1.9292,1.935,1.9508,1.9645,1.9706,1.9784,1.9666,1.9429,1.9152,1.8794,1.8451,1.825,1.8008,1.787,1.7951,1.7991,1.8031,1.817,1.8117,1.7989,1.7927,1.7978,1.8026,1.8004,1.7732,1.7434,1.7427,1.6837,1.6296,1.6135,1.572,1.526,1.4909,1.472,1.4386,1.3788,1.3771,1.3674,1.3452,1.3516,1.3652,1.3725,1.3485,1.3295,1.3201,1.2999,1.2856,1.2807,1.2807,1.2807,1.2807,1.2807,1.2516,1.2029,1.2482,1.2696,1.2673,1.1994,1.1365,1.1521,0.0,0.0,1.1997,1.264,1.3361,0.0,0.0,0.0,0.0,0.0,0.0,0.0,0.0,1.7507,1.8638,1.8958,1.9324,1.9967,2.0003,2.0285,2.0822,2.0411,2.0159,2.0267,2.0331,2.0747,2.1521,2.2405,2.2899,2.29,2.2609,2.2239,2.1816,2.144,2.1031,2.0664,1.9981,1.9627,1.9548,1.9091,1.8851,1.8754,1.8652,1.8531,1.8411,1.8514,1.8652,1.8692,1.8732,1.8812,1.8891,1.8913,1.8993,1.9073,1.917,1.9289,1.9369,1.9408,1.9311,1.9112,1.8834,1.8514,1.8193,1.8031,1.7951,1.787,1.787,1.787,1.791,1.7991,1.791,1.7789,1.7732,1.7691,1.7677,1.7581,1.7257,1.6928,1.6835,1.6287,1.5828,1.5701,1.5305,1.4894,1.4587,1.4442,1.414,1.3587,1.3689,1.368,1.3285,1.3407,1.3519,1.3519,1.324,1.3098,1.3098,1.2918,1.2807,1.2807,1.2807,1.2759,1.2613,1.2759,1.2759,1.2613,1.2467,1.2643,1.3155,1.2467,1.1784,1.1977,1.1442,0.0,1.1822,1.1584,1.1488,1.2503,0.0,0.0,0.0,0.0,0.0,0.0,0.0,0.0,1.6562,1.6828,1.713,1.7948,1.8024,1.817,1.8446,1.8566,1.8484,1.8151,1.882,1.9666,2.0626,2.1681,2.2291,2.2309,2.197,2.1848,2.1945,2.1172,2.043,1.9745,1.939,1.8993,1.8612,1.8612,1.8531,1.8353,1.8353,1.8233,1.7991,1.7991,1.825,1.8612,1.8451,1.8531,1.8652,1.8491,1.8571,1.8692,1.8692,1.8812,1.8931,1.8772,1.8812,1.8834,1.8514,1.8193,1.7951,1.7991,1.7904,1.7742,1.7708,1.7725,1.7759,1.7887,1.791,1.7829,1.7651,1.761,1.7529,1.7139,1.6853,1.6607,1.636,1.5824,1.5382,1.5311,1.4936,1.4601,1.4433,1.4208,1.3997,1.3688,1.3694,1.3673,1.3411,1.3379,1.3378,1.3378,1.3136,1.3006,1.3006,1.2907,1.2807,1.2807,1.2807,1.2662,1.2419,1.2613,1.2953,1.3448,1.2743,1.2773,0.0,0.0,0.0,0.0,1.2373,0.0,1.2047,1.2241,1.2476,0.0,0.0,0.0,0.0,0.0,0.0,0.0,0.0,0.0,0.0,0.0,1.5137,1.5749,1.5809,1.5959,1.6366,1.6373,1.6548,1.7122,1.8225,1.9168,1.9787,2.0521,2.093,2.0943,2.1049,2.0836,2.0331,2.0,1.9529,1.8935,1.8714,1.8434,1.8129,1.8129,1.8129,1.8072,1.8072,1.8031,1.7991,1.7991,1.8031,1.8152,1.8313,1.8434,1.8491,1.8612,1.8652,1.8692,1.8692,1.8732,1.8732,1.8692,1.8491,1.8233,1.8353,1.8112,1.7789,1.7951,1.805,1.8037,1.7775,1.7763,1.7805,1.7588,1.7383,1.7261,1.7221,1.7221,1.7139,1.6853,1.673,1.6525,1.5948,1.5602,1.5269,1.4894,1.4601,1.4433,1.4391,1.4208,1.3955,1.3476,1.3485,1.3297,1.2912,1.2702,1.2608,1.2608,1.2552,1.2527,1.2527,1.2723,1.2807,1.2807,1.2807,1.2662,1.2419,1.2224,1.2516,1.3158,1.2569,1.2828,0.0,0.0,0.0,1.299,0.0,0.0,0.0,1.2073,1.1947,1.2113,0.0,0.0,0.0,0.0,0.0,0.0,0.0,0.0,0.0,0.0,0.0,1.4043,1.3787,1.3682,1.4158,1.391,1.4211,1.5506,1.695,1.8053,1.8629,1.9298,1.9674,1.9752,1.9655,1.9494,1.9292,1.8975,1.8656,1.8353,1.8152,1.7991,1.787,1.7951,1.7991,1.7991,1.7991,1.7951,1.787,1.787,1.7789,1.7708,1.8072,1.8193,1.8193,1.8331,1.8371,1.8371,1.8371,1.8371,1.8371,1.8371,1.8112,1.787,1.8031,1.791,1.7742,1.7902,1.8035,1.8059,1.7977,1.7895,1.7779,1.7596,1.7343,1.7057,1.6935,1.6812,1.6648,1.6278,1.6113,1.6031,1.5906,1.5533,1.5117,1.4783,1.4447,1.4195,1.4068,1.3857,1.3616,1.3307,1.3264,1.3094,1.2741,1.2528,1.2416,1.2557,1.2473,1.247,1.2592,1.2719,1.2807,1.2807,1.2662,1.2467,1.2224,1.1932,1.2127,1.2759,1.2312,1.2648,0.0,0.0,0.0,0.0,0.0,1.2847,0.0,0.0,0.0,0.0,0.0,0.0,0.0,0.0,0.0,0.0,0.0,0.0,0.0,0.0,0.0,1.1987,1.1441,1.1087,1.1564,1.1128,1.1558,1.3326,1.4982,1.6202,1.6905,1.7866,1.8446,1.8579,1.8243,1.8135,1.8376,1.7991,1.7789,1.7749,1.7627,1.757,1.757,1.7789,1.787,1.787,1.787,1.7789,1.7627,1.7627,1.7546,1.7441,1.7749,1.787,1.787,1.787,1.791,1.7951,1.7951,1.7951,1.7951,1.7951,1.7829,1.7627,1.767,1.7677,1.7653,1.7829,1.7937,1.7941,1.7971,1.7771,1.7548,1.7465,1.718,1.6853,1.6607,1.6402,1.6154,1.5782,1.5519,1.545,1.5699,1.534,1.4866,1.4489,1.4195,1.3913,1.3688,1.3476,1.3307,1.3137,1.3094,1.3009,1.2699,1.2454,1.2388,1.2612,1.2462,1.2479,1.2686,1.2737,1.271,1.271,1.2467,1.2175,1.1834,1.1727,1.1894,1.2394,1.2184,1.2608,0.0,0.0,0.0,0.0,1.4643,0.0,0.0,0.0,1.2539,1.1444,0.0,0.0,0.0,0.0,0.0,0.0,0.0,0.0,0.0,0.0,0.0,0.8563,0.818,0.787,0.7971,0.7847,0.8482,1.0357,1.19,1.3159,1.4084,1.5883,1.7026,1.7365,1.7219,1.7164,1.7204,1.7164,1.7,1.6853,1.7057,1.718,1.718,1.7383,1.7481,1.7481,1.7481,1.7481,1.7441,1.7441,1.7441,1.74,1.7441,1.7481,1.7481,1.7481,1.7587,1.7732,1.7732,1.7732,1.7732,1.7732,1.7587,1.7449,1.7571,1.7524,1.7507,1.7804,1.7786,1.7588,1.731,1.7109,1.6902,1.6629,1.636,1.6211,1.617,1.5948,1.5767,1.5699,1.5409,1.5033,1.4643,1.4517,1.4279,1.3646,1.3646,1.3646,1.3476,1.3392,1.3307,1.3137,1.3094,1.3009,1.2699,1.2283,1.214,1.2436,1.2236,1.2248,1.2451,1.2448,1.2467,1.2467,1.2175,1.1785,1.1296,1.1686,1.2034,1.2344,1.2506,1.3143,0.0,0.0,0.0,0.0,0.0,0.0,1.334,0.0,1.2029,0.0,0.0,0.0,0.0,0.0,0.0,0.0,0.6016,0.0,0.0,0.0,0.0,0.0,0.0,0.0,0.5713,0.5933,0.6524,0.7579,0.9278,1.0824,1.2241,1.3765,1.5103,1.6191,1.6099,1.6139,1.6221,1.6263,1.6278,1.6376,1.6689,1.6853,1.6894,1.7237,1.74,1.74,1.74,1.7343,1.7221,1.7221,1.7139,1.6976,1.6976,1.7139,1.74,1.74,1.7465,1.7546,1.7546,1.7546,1.7505,1.7383,1.7327,1.7282,1.73,1.7291,1.7372,1.7644,1.753,1.73,1.724,1.6917,1.6573,1.6433,1.6266,1.6064,1.5744,1.5681,1.5516,1.502,1.4699,1.4377,1.3899,1.4026,1.411,1.387,1.3392,1.3094,1.3009,1.2887,1.2719,1.2478,1.2596,1.2577,1.2307,1.212,1.2092,1.2383,1.23,1.2321,1.2416,1.227,1.2224,1.2419,1.226,1.2083,1.1835,1.2051,1.2167,1.219,1.2496,1.3153,1.5998,0.0,0.0,0.0,0.0,0.0,0.0,0.0,0.0,0.0,0.0,0.0,0.0,0.0,0.7247,0.6234,0.0,0.5503,0.0,0.0,0.0,0.0,0.0,0.0,0.0,0.3953,0.4372,0.5002,0.6469,0.813,1.0003,1.1603,1.3162,1.466,1.4937,1.5117,1.5242,1.5325,1.5492,1.5699,1.6154,1.636,1.6443,1.6894,1.7139,1.7139,1.718,1.7139,1.6976,1.6976,1.6894,1.6689,1.6689,1.6853,1.7139,1.718,1.718,1.7139,1.718,1.7221,1.718,1.7057,1.7029,1.7096,1.7128,1.7068,1.7043,1.7307,1.7125,1.6835,1.6938,1.6589,1.618,1.6139,1.6004,1.5771,1.5327,1.5247,1.5106,1.4446,1.4166,1.387,1.3476,1.3701,1.387,1.3743,1.3137,1.2668,1.2625,1.2517,1.2346,1.212,1.228,1.2304,1.2079,1.196,1.1977,1.2181,1.231,1.2366,1.2366,1.2181,1.2162,1.2459,1.2324,1.2264,1.2213,1.2329,1.2359,1.224,1.2568,1.3181,0.0,0.0,0.0,1.5985,0.0,0.0,0.0,0.0,1.2224,0.0,0.0,0.0,0.0,0.7982,0.7278,0.6344,0.5948,0.0,0.0,0.0,0.0,0.0,0.0,0.0,0.0,0.131,0.1474,0.0,0.3257,0.4635,0.6945,0.9331,1.1285,1.2643,1.3628,1.4124,1.4124,1.4321,1.4517,1.4741,1.5228,1.5519,1.5741,1.6237,1.6443,1.6427,1.6648,1.673,1.6689,1.6689,1.6689,1.6689,1.6689,1.6607,1.6484,1.6648,1.6607,1.6484,1.6648,1.673,1.673,1.6689,1.6705,1.6768,1.7201,1.6891,1.648,1.6822,1.6541,1.6128,1.6144,1.5922,1.5658,1.5477,1.5284,1.5062,1.4783,1.4573,1.4363,1.4166,1.3913,1.3646,1.3434,1.3392,1.3264,1.2796,1.2699,1.2613,1.2454,1.2386,1.2414,1.2403,1.2338,1.2301,1.229,1.1879,1.1626,1.1627,1.2061,1.2314,1.2314,1.221,1.2319,1.2576,1.238,1.2174,1.1916,1.2345,1.2611,1.2601,1.2866,1.3402,0.0,0.0,1.6366,1.5558,0.0,0.0,0.0,0.0,0.0,0.0,0.0,0.0,0.0,0.8464,0.7604,0.6305,0.5967,0.5453,0.0,0.0,0.0,0.0,0.0,0.0,0.0,0.0,0.0,0.0,0.1109,0.0,0.4618,0.6659,0.8875,1.1268,1.2126,1.2997,1.3828,1.4082,1.4279,1.4517,1.4992,1.5325,1.5519,1.5809,1.6031,1.6211,1.6294,1.6294,1.6294,1.6294,1.6294,1.6294,1.6294,1.6154,1.5974,1.636,1.636,1.6211,1.6294,1.6294,1.6294,1.6294,1.6308,1.6392,1.6495,1.6274,1.6082,1.6103,1.5857,1.5658,1.5658,1.545,1.5284,1.52,1.519,1.5091,1.4891,1.4792,1.462,1.4246,1.3703,1.3222,1.2966,1.2812,1.2742,1.2692,1.2337,1.2002,1.1974,1.1771,1.1685,1.167,1.1773,1.1802,1.1635,1.1631,1.1745,1.2022,1.2044,1.2082,1.222,1.1887,1.1864,1.2339,1.2424,1.2451,1.2293,1.2836,1.2989,1.2817,1.3086,1.3879,1.6643,1.643,0.0,1.5559,1.4769,0.0,1.3152,0.0,1.1681,0.0,0.0,0.0,0.0,0.0,0.7935,0.6369,0.5855,0.5083,0.0,0.2469,0.0,0.0,0.0,0.0,0.0,0.0,0.0,-0.1085,-0.0453,0.0835,0.0,0.4975,0.7332,0.9806,1.1265,1.2478,1.3476,1.3743,1.3955,1.4153,1.4615,1.4908,1.5061,1.5367,1.5575,1.5756,1.5824,1.5865,1.5963,1.5963,1.5963,1.5963,1.6046,1.5839,1.5533,1.6072,1.6154,1.5963,1.5963,1.5963,1.5963,1.6087,1.6141,1.6151,1.5982,1.5848,1.5687,1.5641,1.5413,1.5173,1.5288,1.5161,1.495,1.4866,1.4895,1.4891,1.4756,1.4615,1.4332,1.3917,1.3281,1.2711,1.2272,1.2057,1.2048,1.2533,1.2248,1.1903,1.1838,1.1657,1.1513,1.1415,1.1499,1.1517,1.1273,1.1306,1.1492,1.1853,1.1788,1.1821,1.203,1.1739,1.1881,1.246,1.2491,1.2612,1.2782,1.3028,1.3152,1.3207,1.3261,1.4158]}]]